<?xml version="1.0" encoding="UTF-8" standalone="no" ?>
<gpx xmlns="http://www.topografix.com/GPX/1/1" xmlns:xsi="http://www.w3.org/2001/XMLSchema-instance" xsi:schemaLocation="http://www.topografix.com/GPX/1/1 http://www.topografix.com/GPX/1/1/gpx.xsd" version="1.1" creator="VisuGPX - https://www.visugpx.com">
  <metadata>
    <name>Blanzat - Malauzat - Argnat - Chanat </name>
  </metadata>
  <trk>
    <name><![CDATA[2020-07-25]]></name>
    <trkseg>
      <trkpt lat="45.79089" lon="3.07574">
        <ele>422.79998779297</ele>
        <time>2020-07-25T06:35:17Z</time>
      </trkpt>
      <trkpt lat="45.79086" lon="3.07584">
        <ele>422.60000610352</ele>
        <time>2020-07-25T06:35:23Z</time>
      </trkpt>
      <trkpt lat="45.79089" lon="3.07586">
        <ele>421.79998779297</ele>
        <time>2020-07-25T06:35:29Z</time>
      </trkpt>
      <trkpt lat="45.7909" lon="3.07585">
        <ele>421.39999389648</ele>
        <time>2020-07-25T06:35:36Z</time>
      </trkpt>
      <trkpt lat="45.791" lon="3.0758">
        <ele>421.39999389648</ele>
        <time>2020-07-25T06:35:41Z</time>
      </trkpt>
      <trkpt lat="45.79111" lon="3.07584">
        <ele>420.60000610352</ele>
        <time>2020-07-25T06:35:44Z</time>
      </trkpt>
      <trkpt lat="45.79115" lon="3.07586">
        <ele>420</ele>
        <time>2020-07-25T06:35:45Z</time>
      </trkpt>
      <trkpt lat="45.79118" lon="3.07588">
        <ele>419.39999389648</ele>
        <time>2020-07-25T06:35:46Z</time>
      </trkpt>
      <trkpt lat="45.79125" lon="3.07593">
        <ele>418</ele>
        <time>2020-07-25T06:35:48Z</time>
      </trkpt>
      <trkpt lat="45.79129" lon="3.07596">
        <ele>417</ele>
        <time>2020-07-25T06:35:50Z</time>
      </trkpt>
      <trkpt lat="45.79131" lon="3.07599">
        <ele>415.60000610352</ele>
        <time>2020-07-25T06:35:53Z</time>
      </trkpt>
      <trkpt lat="45.79131" lon="3.07599">
        <ele>415.20001220703</ele>
        <time>2020-07-25T06:35:54Z</time>
      </trkpt>
      <trkpt lat="45.79131" lon="3.07599">
        <ele>414.60000610352</ele>
        <time>2020-07-25T06:35:59Z</time>
      </trkpt>
      <trkpt lat="45.79132" lon="3.07602">
        <ele>414.60000610352</ele>
        <time>2020-07-25T06:36:03Z</time>
      </trkpt>
      <trkpt lat="45.79131" lon="3.07624">
        <ele>414.20001220703</ele>
        <time>2020-07-25T06:36:07Z</time>
      </trkpt>
      <trkpt lat="45.7913" lon="3.0764">
        <ele>413.39999389648</ele>
        <time>2020-07-25T06:36:09Z</time>
      </trkpt>
      <trkpt lat="45.7913" lon="3.07646">
        <ele>413</ele>
        <time>2020-07-25T06:36:10Z</time>
      </trkpt>
      <trkpt lat="45.79132" lon="3.07652">
        <ele>412.39999389648</ele>
        <time>2020-07-25T06:36:11Z</time>
      </trkpt>
      <trkpt lat="45.79137" lon="3.07662">
        <ele>411</ele>
        <time>2020-07-25T06:36:14Z</time>
      </trkpt>
      <trkpt lat="45.79138" lon="3.07663">
        <ele>410.79998779297</ele>
        <time>2020-07-25T06:36:15Z</time>
      </trkpt>
      <trkpt lat="45.79143" lon="3.07666">
        <ele>410.39999389648</ele>
        <time>2020-07-25T06:36:17Z</time>
      </trkpt>
      <trkpt lat="45.79146" lon="3.07664">
        <ele>410.39999389648</ele>
        <time>2020-07-25T06:36:18Z</time>
      </trkpt>
      <trkpt lat="45.79153" lon="3.07652">
        <ele>410</ele>
        <time>2020-07-25T06:36:21Z</time>
      </trkpt>
      <trkpt lat="45.79155" lon="3.07648">
        <ele>410</ele>
        <time>2020-07-25T06:36:22Z</time>
      </trkpt>
      <trkpt lat="45.79156" lon="3.07645">
        <ele>409.79998779297</ele>
        <time>2020-07-25T06:36:23Z</time>
      </trkpt>
      <trkpt lat="45.79164" lon="3.07625">
        <ele>410.20001220703</ele>
        <time>2020-07-25T06:36:29Z</time>
      </trkpt>
      <trkpt lat="45.79175" lon="3.07599">
        <ele>410.39999389648</ele>
        <time>2020-07-25T06:36:37Z</time>
      </trkpt>
      <trkpt lat="45.79186" lon="3.07572">
        <ele>410.60000610352</ele>
        <time>2020-07-25T06:36:45Z</time>
      </trkpt>
      <trkpt lat="45.79195" lon="3.0755">
        <ele>410.60000610352</ele>
        <time>2020-07-25T06:36:52Z</time>
      </trkpt>
      <trkpt lat="45.79208" lon="3.07522">
        <ele>410</ele>
        <time>2020-07-25T06:36:59Z</time>
      </trkpt>
      <trkpt lat="45.79223" lon="3.07492">
        <ele>409</ele>
        <time>2020-07-25T06:37:05Z</time>
      </trkpt>
      <trkpt lat="45.79233" lon="3.07476">
        <ele>408.39999389648</ele>
        <time>2020-07-25T06:37:10Z</time>
      </trkpt>
      <trkpt lat="45.79233" lon="3.07459">
        <ele>408.60000610352</ele>
        <time>2020-07-25T06:37:14Z</time>
      </trkpt>
      <trkpt lat="45.79233" lon="3.07454">
        <ele>408.79998779297</ele>
        <time>2020-07-25T06:37:15Z</time>
      </trkpt>
      <trkpt lat="45.79237" lon="3.07428">
        <ele>408.79998779297</ele>
        <time>2020-07-25T06:37:20Z</time>
      </trkpt>
      <trkpt lat="45.79243" lon="3.07393">
        <ele>409.20001220703</ele>
        <time>2020-07-25T06:37:27Z</time>
      </trkpt>
      <trkpt lat="45.79247" lon="3.07361">
        <ele>409.79998779297</ele>
        <time>2020-07-25T06:37:35Z</time>
      </trkpt>
      <trkpt lat="45.79249" lon="3.07349">
        <ele>410.20001220703</ele>
        <time>2020-07-25T06:37:38Z</time>
      </trkpt>
      <trkpt lat="45.7925" lon="3.07337">
        <ele>410.79998779297</ele>
        <time>2020-07-25T06:37:41Z</time>
      </trkpt>
      <trkpt lat="45.79251" lon="3.0733">
        <ele>411.20001220703</ele>
        <time>2020-07-25T06:37:43Z</time>
      </trkpt>
      <trkpt lat="45.79256" lon="3.07305">
        <ele>411.79998779297</ele>
        <time>2020-07-25T06:37:49Z</time>
      </trkpt>
      <trkpt lat="45.79258" lon="3.07295">
        <ele>412.39999389648</ele>
        <time>2020-07-25T06:37:52Z</time>
      </trkpt>
      <trkpt lat="45.79259" lon="3.07282">
        <ele>412.79998779297</ele>
        <time>2020-07-25T06:37:56Z</time>
      </trkpt>
      <trkpt lat="45.79262" lon="3.07266">
        <ele>413.39999389648</ele>
        <time>2020-07-25T06:38:01Z</time>
      </trkpt>
      <trkpt lat="45.79263" lon="3.07243">
        <ele>414.20001220703</ele>
        <time>2020-07-25T06:38:08Z</time>
      </trkpt>
      <trkpt lat="45.79261" lon="3.07226">
        <ele>414.60000610352</ele>
        <time>2020-07-25T06:38:13Z</time>
      </trkpt>
      <trkpt lat="45.79259" lon="3.0722">
        <ele>414.79998779297</ele>
        <time>2020-07-25T06:38:15Z</time>
      </trkpt>
      <trkpt lat="45.79258" lon="3.07196">
        <ele>415.39999389648</ele>
        <time>2020-07-25T06:38:22Z</time>
      </trkpt>
      <trkpt lat="45.79257" lon="3.07179">
        <ele>415.60000610352</ele>
        <time>2020-07-25T06:38:27Z</time>
      </trkpt>
      <trkpt lat="45.79254" lon="3.07169">
        <ele>415.79998779297</ele>
        <time>2020-07-25T06:38:30Z</time>
      </trkpt>
      <trkpt lat="45.79248" lon="3.07148">
        <ele>416.39999389648</ele>
        <time>2020-07-25T06:38:37Z</time>
      </trkpt>
      <trkpt lat="45.79245" lon="3.07129">
        <ele>416.60000610352</ele>
        <time>2020-07-25T06:38:43Z</time>
      </trkpt>
      <trkpt lat="45.79243" lon="3.0712">
        <ele>417</ele>
        <time>2020-07-25T06:38:46Z</time>
      </trkpt>
      <trkpt lat="45.79234" lon="3.07098">
        <ele>417.60000610352</ele>
        <time>2020-07-25T06:38:53Z</time>
      </trkpt>
      <trkpt lat="45.79231" lon="3.07088">
        <ele>417.60000610352</ele>
        <time>2020-07-25T06:38:56Z</time>
      </trkpt>
      <trkpt lat="45.79221" lon="3.07073">
        <ele>418.20001220703</ele>
        <time>2020-07-25T06:39:02Z</time>
      </trkpt>
      <trkpt lat="45.79208" lon="3.07056">
        <ele>418.79998779297</ele>
        <time>2020-07-25T06:39:09Z</time>
      </trkpt>
      <trkpt lat="45.79205" lon="3.07051">
        <ele>418.79998779297</ele>
        <time>2020-07-25T06:39:11Z</time>
      </trkpt>
      <trkpt lat="45.79192" lon="3.07032">
        <ele>419.39999389648</ele>
        <time>2020-07-25T06:39:19Z</time>
      </trkpt>
      <trkpt lat="45.79188" lon="3.07024">
        <ele>419.79998779297</ele>
        <time>2020-07-25T06:39:22Z</time>
      </trkpt>
      <trkpt lat="45.79181" lon="3.07007">
        <ele>420.20001220703</ele>
        <time>2020-07-25T06:39:28Z</time>
      </trkpt>
      <trkpt lat="45.79174" lon="3.06988">
        <ele>420.79998779297</ele>
        <time>2020-07-25T06:39:35Z</time>
      </trkpt>
      <trkpt lat="45.79171" lon="3.06983">
        <ele>421</ele>
        <time>2020-07-25T06:39:37Z</time>
      </trkpt>
      <trkpt lat="45.79166" lon="3.06965">
        <ele>421.60000610352</ele>
        <time>2020-07-25T06:39:43Z</time>
      </trkpt>
      <trkpt lat="45.79164" lon="3.06959">
        <ele>421.79998779297</ele>
        <time>2020-07-25T06:39:45Z</time>
      </trkpt>
      <trkpt lat="45.79162" lon="3.06946">
        <ele>422</ele>
        <time>2020-07-25T06:39:49Z</time>
      </trkpt>
      <trkpt lat="45.79155" lon="3.06921">
        <ele>422.39999389648</ele>
        <time>2020-07-25T06:39:56Z</time>
      </trkpt>
      <trkpt lat="45.79149" lon="3.069">
        <ele>423</ele>
        <time>2020-07-25T06:40:03Z</time>
      </trkpt>
      <trkpt lat="45.79146" lon="3.06886">
        <ele>424.20001220703</ele>
        <time>2020-07-25T06:40:09Z</time>
      </trkpt>
      <trkpt lat="45.79141" lon="3.06869">
        <ele>425</ele>
        <time>2020-07-25T06:40:16Z</time>
      </trkpt>
      <trkpt lat="45.79141" lon="3.06866">
        <ele>425.20001220703</ele>
        <time>2020-07-25T06:40:17Z</time>
      </trkpt>
      <trkpt lat="45.79138" lon="3.06847">
        <ele>426</ele>
        <time>2020-07-25T06:40:24Z</time>
      </trkpt>
      <trkpt lat="45.79136" lon="3.06839">
        <ele>426.39999389648</ele>
        <time>2020-07-25T06:40:27Z</time>
      </trkpt>
      <trkpt lat="45.79132" lon="3.06824">
        <ele>426.79998779297</ele>
        <time>2020-07-25T06:40:33Z</time>
      </trkpt>
      <trkpt lat="45.79128" lon="3.06808">
        <ele>427.39999389648</ele>
        <time>2020-07-25T06:40:39Z</time>
      </trkpt>
      <trkpt lat="45.79127" lon="3.06801">
        <ele>427.60000610352</ele>
        <time>2020-07-25T06:40:42Z</time>
      </trkpt>
      <trkpt lat="45.79121" lon="3.06779">
        <ele>428.39999389648</ele>
        <time>2020-07-25T06:40:50Z</time>
      </trkpt>
      <trkpt lat="45.79115" lon="3.0676">
        <ele>429.60000610352</ele>
        <time>2020-07-25T06:40:58Z</time>
      </trkpt>
      <trkpt lat="45.79111" lon="3.06741">
        <ele>430.60000610352</ele>
        <time>2020-07-25T06:41:06Z</time>
      </trkpt>
      <trkpt lat="45.7911" lon="3.06739">
        <ele>430.79998779297</ele>
        <time>2020-07-25T06:41:07Z</time>
      </trkpt>
      <trkpt lat="45.79105" lon="3.06721">
        <ele>431.79998779297</ele>
        <time>2020-07-25T06:41:14Z</time>
      </trkpt>
      <trkpt lat="45.79104" lon="3.06716">
        <ele>432</ele>
        <time>2020-07-25T06:41:16Z</time>
      </trkpt>
      <trkpt lat="45.791" lon="3.06699">
        <ele>432.79998779297</ele>
        <time>2020-07-25T06:41:23Z</time>
      </trkpt>
      <trkpt lat="45.79098" lon="3.06692">
        <ele>433</ele>
        <time>2020-07-25T06:41:26Z</time>
      </trkpt>
      <trkpt lat="45.79092" lon="3.06668">
        <ele>433.79998779297</ele>
        <time>2020-07-25T06:41:36Z</time>
      </trkpt>
      <trkpt lat="45.7909" lon="3.06664">
        <ele>434</ele>
        <time>2020-07-25T06:41:38Z</time>
      </trkpt>
      <trkpt lat="45.79085" lon="3.0664">
        <ele>435</ele>
        <time>2020-07-25T06:41:48Z</time>
      </trkpt>
      <trkpt lat="45.79084" lon="3.06635">
        <ele>435</ele>
        <time>2020-07-25T06:41:50Z</time>
      </trkpt>
      <trkpt lat="45.79082" lon="3.06615">
        <ele>436</ele>
        <time>2020-07-25T06:41:58Z</time>
      </trkpt>
      <trkpt lat="45.79083" lon="3.06613">
        <ele>436</ele>
        <time>2020-07-25T06:41:59Z</time>
      </trkpt>
      <trkpt lat="45.7909" lon="3.06602">
        <ele>436.60000610352</ele>
        <time>2020-07-25T06:42:05Z</time>
      </trkpt>
      <trkpt lat="45.79099" lon="3.06595">
        <ele>437</ele>
        <time>2020-07-25T06:42:11Z</time>
      </trkpt>
      <trkpt lat="45.79102" lon="3.06592">
        <ele>437.20001220703</ele>
        <time>2020-07-25T06:42:13Z</time>
      </trkpt>
      <trkpt lat="45.79113" lon="3.06581">
        <ele>438.20001220703</ele>
        <time>2020-07-25T06:42:21Z</time>
      </trkpt>
      <trkpt lat="45.79114" lon="3.0658">
        <ele>438.39999389648</ele>
        <time>2020-07-25T06:42:22Z</time>
      </trkpt>
      <trkpt lat="45.79125" lon="3.0657">
        <ele>439.20001220703</ele>
        <time>2020-07-25T06:42:30Z</time>
      </trkpt>
      <trkpt lat="45.79134" lon="3.06561">
        <ele>440</ele>
        <time>2020-07-25T06:42:37Z</time>
      </trkpt>
      <trkpt lat="45.79138" lon="3.06557">
        <ele>440.20001220703</ele>
        <time>2020-07-25T06:42:40Z</time>
      </trkpt>
      <trkpt lat="45.79145" lon="3.06553">
        <ele>440.79998779297</ele>
        <time>2020-07-25T06:42:44Z</time>
      </trkpt>
      <trkpt lat="45.79154" lon="3.06546">
        <ele>441.39999389648</ele>
        <time>2020-07-25T06:42:50Z</time>
      </trkpt>
      <trkpt lat="45.79157" lon="3.06543">
        <ele>441.79998779297</ele>
        <time>2020-07-25T06:42:52Z</time>
      </trkpt>
      <trkpt lat="45.79164" lon="3.06538">
        <ele>442.39999389648</ele>
        <time>2020-07-25T06:42:57Z</time>
      </trkpt>
      <trkpt lat="45.79167" lon="3.06534">
        <ele>442.79998779297</ele>
        <time>2020-07-25T06:43:00Z</time>
      </trkpt>
      <trkpt lat="45.79172" lon="3.06529">
        <ele>443.39999389648</ele>
        <time>2020-07-25T06:43:05Z</time>
      </trkpt>
      <trkpt lat="45.79175" lon="3.06525">
        <ele>444</ele>
        <time>2020-07-25T06:43:08Z</time>
      </trkpt>
      <trkpt lat="45.79177" lon="3.06524">
        <ele>444.39999389648</ele>
        <time>2020-07-25T06:43:10Z</time>
      </trkpt>
      <trkpt lat="45.79179" lon="3.06522">
        <ele>444.60000610352</ele>
        <time>2020-07-25T06:43:12Z</time>
      </trkpt>
      <trkpt lat="45.79184" lon="3.06519">
        <ele>445.39999389648</ele>
        <time>2020-07-25T06:43:16Z</time>
      </trkpt>
      <trkpt lat="45.79185" lon="3.06518">
        <ele>445.60000610352</ele>
        <time>2020-07-25T06:43:17Z</time>
      </trkpt>
      <trkpt lat="45.79193" lon="3.06512">
        <ele>446.60000610352</ele>
        <time>2020-07-25T06:43:24Z</time>
      </trkpt>
      <trkpt lat="45.79194" lon="3.06511">
        <ele>446.79998779297</ele>
        <time>2020-07-25T06:43:25Z</time>
      </trkpt>
      <trkpt lat="45.79197" lon="3.06509">
        <ele>447.20001220703</ele>
        <time>2020-07-25T06:43:28Z</time>
      </trkpt>
      <trkpt lat="45.792" lon="3.06507">
        <ele>447.60000610352</ele>
        <time>2020-07-25T06:43:31Z</time>
      </trkpt>
      <trkpt lat="45.79201" lon="3.06506">
        <ele>447.79998779297</ele>
        <time>2020-07-25T06:43:32Z</time>
      </trkpt>
      <trkpt lat="45.79208" lon="3.06502">
        <ele>449</ele>
        <time>2020-07-25T06:43:38Z</time>
      </trkpt>
      <trkpt lat="45.79209" lon="3.06501">
        <ele>449.20001220703</ele>
        <time>2020-07-25T06:43:39Z</time>
      </trkpt>
      <trkpt lat="45.79215" lon="3.06499">
        <ele>450</ele>
        <time>2020-07-25T06:43:44Z</time>
      </trkpt>
      <trkpt lat="45.79221" lon="3.06498">
        <ele>450.60000610352</ele>
        <time>2020-07-25T06:43:49Z</time>
      </trkpt>
      <trkpt lat="45.79224" lon="3.06498">
        <ele>451</ele>
        <time>2020-07-25T06:43:52Z</time>
      </trkpt>
      <trkpt lat="45.79232" lon="3.065">
        <ele>451.79998779297</ele>
        <time>2020-07-25T06:43:58Z</time>
      </trkpt>
      <trkpt lat="45.79233" lon="3.065">
        <ele>451.79998779297</ele>
        <time>2020-07-25T06:43:59Z</time>
      </trkpt>
      <trkpt lat="45.79237" lon="3.06498">
        <ele>452.20001220703</ele>
        <time>2020-07-25T06:44:02Z</time>
      </trkpt>
      <trkpt lat="45.79238" lon="3.06495">
        <ele>452.39999389648</ele>
        <time>2020-07-25T06:44:04Z</time>
      </trkpt>
      <trkpt lat="45.79238" lon="3.06485">
        <ele>453</ele>
        <time>2020-07-25T06:44:09Z</time>
      </trkpt>
      <trkpt lat="45.79238" lon="3.06482">
        <ele>453.20001220703</ele>
        <time>2020-07-25T06:44:11Z</time>
      </trkpt>
      <trkpt lat="45.79237" lon="3.06469">
        <ele>454</ele>
        <time>2020-07-25T06:44:19Z</time>
      </trkpt>
      <trkpt lat="45.79237" lon="3.06467">
        <ele>454.20001220703</ele>
        <time>2020-07-25T06:44:20Z</time>
      </trkpt>
      <trkpt lat="45.79239" lon="3.0646">
        <ele>454.60000610352</ele>
        <time>2020-07-25T06:44:24Z</time>
      </trkpt>
      <trkpt lat="45.79239" lon="3.06459">
        <ele>454.60000610352</ele>
        <time>2020-07-25T06:44:25Z</time>
      </trkpt>
      <trkpt lat="45.79242" lon="3.06453">
        <ele>455.20001220703</ele>
        <time>2020-07-25T06:44:29Z</time>
      </trkpt>
      <trkpt lat="45.79245" lon="3.06447">
        <ele>455.79998779297</ele>
        <time>2020-07-25T06:44:33Z</time>
      </trkpt>
      <trkpt lat="45.79248" lon="3.06442">
        <ele>456.39999389648</ele>
        <time>2020-07-25T06:44:37Z</time>
      </trkpt>
      <trkpt lat="45.79251" lon="3.06433">
        <ele>457.20001220703</ele>
        <time>2020-07-25T06:44:43Z</time>
      </trkpt>
      <trkpt lat="45.79252" lon="3.0643">
        <ele>457.60000610352</ele>
        <time>2020-07-25T06:44:45Z</time>
      </trkpt>
      <trkpt lat="45.79256" lon="3.06421">
        <ele>458.60000610352</ele>
        <time>2020-07-25T06:44:52Z</time>
      </trkpt>
      <trkpt lat="45.79261" lon="3.06408">
        <ele>459.79998779297</ele>
        <time>2020-07-25T06:45:01Z</time>
      </trkpt>
      <trkpt lat="45.79262" lon="3.06407">
        <ele>459.79998779297</ele>
        <time>2020-07-25T06:45:02Z</time>
      </trkpt>
      <trkpt lat="45.79265" lon="3.06398">
        <ele>460.79998779297</ele>
        <time>2020-07-25T06:45:08Z</time>
      </trkpt>
      <trkpt lat="45.79267" lon="3.06395">
        <ele>461.20001220703</ele>
        <time>2020-07-25T06:45:11Z</time>
      </trkpt>
      <trkpt lat="45.79269" lon="3.0639">
        <ele>462</ele>
        <time>2020-07-25T06:45:15Z</time>
      </trkpt>
      <trkpt lat="45.79271" lon="3.06386">
        <ele>462.39999389648</ele>
        <time>2020-07-25T06:45:18Z</time>
      </trkpt>
      <trkpt lat="45.79275" lon="3.06379">
        <ele>463</ele>
        <time>2020-07-25T06:45:23Z</time>
      </trkpt>
      <trkpt lat="45.79277" lon="3.06372">
        <ele>463.79998779297</ele>
        <time>2020-07-25T06:45:28Z</time>
      </trkpt>
      <trkpt lat="45.79278" lon="3.06369">
        <ele>464</ele>
        <time>2020-07-25T06:45:30Z</time>
      </trkpt>
      <trkpt lat="45.79279" lon="3.06368">
        <ele>464.20001220703</ele>
        <time>2020-07-25T06:45:31Z</time>
      </trkpt>
      <trkpt lat="45.79281" lon="3.06364">
        <ele>464.79998779297</ele>
        <time>2020-07-25T06:45:35Z</time>
      </trkpt>
      <trkpt lat="45.79281" lon="3.0636">
        <ele>465.20001220703</ele>
        <time>2020-07-25T06:45:37Z</time>
      </trkpt>
      <trkpt lat="45.79282" lon="3.06354">
        <ele>466.20001220703</ele>
        <time>2020-07-25T06:45:42Z</time>
      </trkpt>
      <trkpt lat="45.79283" lon="3.06353">
        <ele>466.39999389648</ele>
        <time>2020-07-25T06:45:43Z</time>
      </trkpt>
      <trkpt lat="45.79289" lon="3.06353">
        <ele>467</ele>
        <time>2020-07-25T06:45:47Z</time>
      </trkpt>
      <trkpt lat="45.79293" lon="3.06353">
        <ele>467.39999389648</ele>
        <time>2020-07-25T06:45:50Z</time>
      </trkpt>
      <trkpt lat="45.79299" lon="3.06351">
        <ele>467.79998779297</ele>
        <time>2020-07-25T06:45:54Z</time>
      </trkpt>
      <trkpt lat="45.79299" lon="3.06349">
        <ele>468</ele>
        <time>2020-07-25T06:45:55Z</time>
      </trkpt>
      <trkpt lat="45.793" lon="3.06344">
        <ele>468.39999389648</ele>
        <time>2020-07-25T06:45:58Z</time>
      </trkpt>
      <trkpt lat="45.79302" lon="3.0634">
        <ele>469</ele>
        <time>2020-07-25T06:46:01Z</time>
      </trkpt>
      <trkpt lat="45.79306" lon="3.06336">
        <ele>469.60000610352</ele>
        <time>2020-07-25T06:46:05Z</time>
      </trkpt>
      <trkpt lat="45.79311" lon="3.06332">
        <ele>470.20001220703</ele>
        <time>2020-07-25T06:46:10Z</time>
      </trkpt>
      <trkpt lat="45.79314" lon="3.06328">
        <ele>470.60000610352</ele>
        <time>2020-07-25T06:46:14Z</time>
      </trkpt>
      <trkpt lat="45.79319" lon="3.06322">
        <ele>471</ele>
        <time>2020-07-25T06:46:19Z</time>
      </trkpt>
      <trkpt lat="45.79324" lon="3.06317">
        <ele>471.60000610352</ele>
        <time>2020-07-25T06:46:24Z</time>
      </trkpt>
      <trkpt lat="45.79328" lon="3.06312">
        <ele>472</ele>
        <time>2020-07-25T06:46:28Z</time>
      </trkpt>
      <trkpt lat="45.79337" lon="3.06302">
        <ele>472.60000610352</ele>
        <time>2020-07-25T06:46:37Z</time>
      </trkpt>
      <trkpt lat="45.79338" lon="3.06301">
        <ele>472.79998779297</ele>
        <time>2020-07-25T06:46:38Z</time>
      </trkpt>
      <trkpt lat="45.79348" lon="3.06295">
        <ele>473.39999389648</ele>
        <time>2020-07-25T06:46:46Z</time>
      </trkpt>
      <trkpt lat="45.7935" lon="3.06294">
        <ele>473.60000610352</ele>
        <time>2020-07-25T06:46:48Z</time>
      </trkpt>
      <trkpt lat="45.79352" lon="3.06293">
        <ele>473.79998779297</ele>
        <time>2020-07-25T06:46:50Z</time>
      </trkpt>
      <trkpt lat="45.79354" lon="3.06293">
        <ele>474</ele>
        <time>2020-07-25T06:46:51Z</time>
      </trkpt>
      <trkpt lat="45.79358" lon="3.06291">
        <ele>474.20001220703</ele>
        <time>2020-07-25T06:46:54Z</time>
      </trkpt>
      <trkpt lat="45.79361" lon="3.06289">
        <ele>474.39999389648</ele>
        <time>2020-07-25T06:46:57Z</time>
      </trkpt>
      <trkpt lat="45.79365" lon="3.06288">
        <ele>474.79998779297</ele>
        <time>2020-07-25T06:47:00Z</time>
      </trkpt>
      <trkpt lat="45.79372" lon="3.06284">
        <ele>475.60000610352</ele>
        <time>2020-07-25T06:47:06Z</time>
      </trkpt>
      <trkpt lat="45.79376" lon="3.06283">
        <ele>476</ele>
        <time>2020-07-25T06:47:09Z</time>
      </trkpt>
      <trkpt lat="45.79385" lon="3.06277">
        <ele>476.60000610352</ele>
        <time>2020-07-25T06:47:16Z</time>
      </trkpt>
      <trkpt lat="45.79388" lon="3.06276">
        <ele>477</ele>
        <time>2020-07-25T06:47:19Z</time>
      </trkpt>
      <trkpt lat="45.7939" lon="3.06275">
        <ele>477.39999389648</ele>
        <time>2020-07-25T06:47:22Z</time>
      </trkpt>
      <trkpt lat="45.79398" lon="3.06269">
        <ele>478</ele>
        <time>2020-07-25T06:47:29Z</time>
      </trkpt>
      <trkpt lat="45.79399" lon="3.06268">
        <ele>478</ele>
        <time>2020-07-25T06:47:30Z</time>
      </trkpt>
      <trkpt lat="45.79407" lon="3.06256">
        <ele>478.60000610352</ele>
        <time>2020-07-25T06:47:37Z</time>
      </trkpt>
      <trkpt lat="45.79411" lon="3.0625">
        <ele>479.20001220703</ele>
        <time>2020-07-25T06:47:41Z</time>
      </trkpt>
      <trkpt lat="45.79415" lon="3.06242">
        <ele>479.79998779297</ele>
        <time>2020-07-25T06:47:46Z</time>
      </trkpt>
      <trkpt lat="45.79418" lon="3.06238">
        <ele>480.20001220703</ele>
        <time>2020-07-25T06:47:51Z</time>
      </trkpt>
      <trkpt lat="45.79421" lon="3.06236">
        <ele>480.39999389648</ele>
        <time>2020-07-25T06:47:53Z</time>
      </trkpt>
      <trkpt lat="45.79429" lon="3.06232">
        <ele>481.20001220703</ele>
        <time>2020-07-25T06:48:00Z</time>
      </trkpt>
      <trkpt lat="45.79434" lon="3.0623">
        <ele>481.79998779297</ele>
        <time>2020-07-25T06:48:03Z</time>
      </trkpt>
      <trkpt lat="45.79442" lon="3.06227">
        <ele>482.39999389648</ele>
        <time>2020-07-25T06:48:09Z</time>
      </trkpt>
      <trkpt lat="45.79453" lon="3.06223">
        <ele>483.20001220703</ele>
        <time>2020-07-25T06:48:16Z</time>
      </trkpt>
      <trkpt lat="45.79457" lon="3.06222">
        <ele>483.39999389648</ele>
        <time>2020-07-25T06:48:19Z</time>
      </trkpt>
      <trkpt lat="45.79469" lon="3.06219">
        <ele>484</ele>
        <time>2020-07-25T06:48:26Z</time>
      </trkpt>
      <trkpt lat="45.79476" lon="3.06216">
        <ele>484.39999389648</ele>
        <time>2020-07-25T06:48:30Z</time>
      </trkpt>
      <trkpt lat="45.79484" lon="3.06214">
        <ele>485</ele>
        <time>2020-07-25T06:48:35Z</time>
      </trkpt>
      <trkpt lat="45.79493" lon="3.06211">
        <ele>485.39999389648</ele>
        <time>2020-07-25T06:48:41Z</time>
      </trkpt>
      <trkpt lat="45.79494" lon="3.0621">
        <ele>485.60000610352</ele>
        <time>2020-07-25T06:48:42Z</time>
      </trkpt>
      <trkpt lat="45.79509" lon="3.06206">
        <ele>486.60000610352</ele>
        <time>2020-07-25T06:48:51Z</time>
      </trkpt>
      <trkpt lat="45.79524" lon="3.06202">
        <ele>487.39999389648</ele>
        <time>2020-07-25T06:49:00Z</time>
      </trkpt>
      <trkpt lat="45.79527" lon="3.06201">
        <ele>487.60000610352</ele>
        <time>2020-07-25T06:49:02Z</time>
      </trkpt>
      <trkpt lat="45.79534" lon="3.06199">
        <ele>488</ele>
        <time>2020-07-25T06:49:06Z</time>
      </trkpt>
      <trkpt lat="45.79548" lon="3.06193">
        <ele>488.60000610352</ele>
        <time>2020-07-25T06:49:15Z</time>
      </trkpt>
      <trkpt lat="45.79549" lon="3.06193">
        <ele>488.60000610352</ele>
        <time>2020-07-25T06:49:16Z</time>
      </trkpt>
      <trkpt lat="45.7956" lon="3.06187">
        <ele>489.60000610352</ele>
        <time>2020-07-25T06:49:23Z</time>
      </trkpt>
      <trkpt lat="45.79561" lon="3.06185">
        <ele>489.79998779297</ele>
        <time>2020-07-25T06:49:24Z</time>
      </trkpt>
      <trkpt lat="45.79571" lon="3.06175">
        <ele>490.79998779297</ele>
        <time>2020-07-25T06:49:32Z</time>
      </trkpt>
      <trkpt lat="45.79572" lon="3.06174">
        <ele>491</ele>
        <time>2020-07-25T06:49:33Z</time>
      </trkpt>
      <trkpt lat="45.79578" lon="3.06166">
        <ele>492</ele>
        <time>2020-07-25T06:49:38Z</time>
      </trkpt>
      <trkpt lat="45.79583" lon="3.0616">
        <ele>493</ele>
        <time>2020-07-25T06:49:42Z</time>
      </trkpt>
      <trkpt lat="45.79583" lon="3.06158">
        <ele>493.20001220703</ele>
        <time>2020-07-25T06:49:43Z</time>
      </trkpt>
      <trkpt lat="45.79587" lon="3.06149">
        <ele>494.20001220703</ele>
        <time>2020-07-25T06:49:47Z</time>
      </trkpt>
      <trkpt lat="45.79594" lon="3.06141">
        <ele>494.79998779297</ele>
        <time>2020-07-25T06:49:52Z</time>
      </trkpt>
      <trkpt lat="45.79598" lon="3.06137">
        <ele>495.20001220703</ele>
        <time>2020-07-25T06:49:55Z</time>
      </trkpt>
      <trkpt lat="45.79609" lon="3.06127">
        <ele>495.79998779297</ele>
        <time>2020-07-25T06:50:02Z</time>
      </trkpt>
      <trkpt lat="45.79618" lon="3.06119">
        <ele>496.20001220703</ele>
        <time>2020-07-25T06:50:08Z</time>
      </trkpt>
      <trkpt lat="45.79619" lon="3.06118">
        <ele>496.20001220703</ele>
        <time>2020-07-25T06:50:09Z</time>
      </trkpt>
      <trkpt lat="45.79631" lon="3.06104">
        <ele>497</ele>
        <time>2020-07-25T06:50:17Z</time>
      </trkpt>
      <trkpt lat="45.79635" lon="3.06098">
        <ele>497.20001220703</ele>
        <time>2020-07-25T06:50:20Z</time>
      </trkpt>
      <trkpt lat="45.79646" lon="3.06083">
        <ele>498</ele>
        <time>2020-07-25T06:50:28Z</time>
      </trkpt>
      <trkpt lat="45.79649" lon="3.06076">
        <ele>498.39999389648</ele>
        <time>2020-07-25T06:50:31Z</time>
      </trkpt>
      <trkpt lat="45.79658" lon="3.06059">
        <ele>499</ele>
        <time>2020-07-25T06:50:38Z</time>
      </trkpt>
      <trkpt lat="45.79662" lon="3.06049">
        <ele>499.39999389648</ele>
        <time>2020-07-25T06:50:42Z</time>
      </trkpt>
      <trkpt lat="45.79666" lon="3.06035">
        <ele>499.60000610352</ele>
        <time>2020-07-25T06:50:47Z</time>
      </trkpt>
      <trkpt lat="45.79673" lon="3.06013">
        <ele>500.20001220703</ele>
        <time>2020-07-25T06:50:55Z</time>
      </trkpt>
      <trkpt lat="45.79674" lon="3.06006">
        <ele>500.39999389648</ele>
        <time>2020-07-25T06:50:57Z</time>
      </trkpt>
      <trkpt lat="45.79678" lon="3.05992">
        <ele>500.60000610352</ele>
        <time>2020-07-25T06:51:01Z</time>
      </trkpt>
      <trkpt lat="45.79685" lon="3.05964">
        <ele>501</ele>
        <time>2020-07-25T06:51:09Z</time>
      </trkpt>
      <trkpt lat="45.79695" lon="3.05944">
        <ele>501.39999389648</ele>
        <time>2020-07-25T06:51:16Z</time>
      </trkpt>
      <trkpt lat="45.79705" lon="3.05939">
        <ele>501.60000610352</ele>
        <time>2020-07-25T06:51:20Z</time>
      </trkpt>
      <trkpt lat="45.79718" lon="3.05931">
        <ele>502</ele>
        <time>2020-07-25T06:51:25Z</time>
      </trkpt>
      <trkpt lat="45.79741" lon="3.05911">
        <ele>502.20001220703</ele>
        <time>2020-07-25T06:51:33Z</time>
      </trkpt>
      <trkpt lat="45.79777" lon="3.05877">
        <ele>501.39999389648</ele>
        <time>2020-07-25T06:51:44Z</time>
      </trkpt>
      <trkpt lat="45.79817" lon="3.05841">
        <ele>501.20001220703</ele>
        <time>2020-07-25T06:51:55Z</time>
      </trkpt>
      <trkpt lat="45.79856" lon="3.05802">
        <ele>500.79998779297</ele>
        <time>2020-07-25T06:52:05Z</time>
      </trkpt>
      <trkpt lat="45.79865" lon="3.05792">
        <ele>500.39999389648</ele>
        <time>2020-07-25T06:52:07Z</time>
      </trkpt>
      <trkpt lat="45.79892" lon="3.05762">
        <ele>499.39999389648</ele>
        <time>2020-07-25T06:52:13Z</time>
      </trkpt>
      <trkpt lat="45.79906" lon="3.05747">
        <ele>498.79998779297</ele>
        <time>2020-07-25T06:52:16Z</time>
      </trkpt>
      <trkpt lat="45.79927" lon="3.05727">
        <ele>498.20001220703</ele>
        <time>2020-07-25T06:52:20Z</time>
      </trkpt>
      <trkpt lat="45.79948" lon="3.0571">
        <ele>497.39999389648</ele>
        <time>2020-07-25T06:52:24Z</time>
      </trkpt>
      <trkpt lat="45.79965" lon="3.05698">
        <ele>497.20001220703</ele>
        <time>2020-07-25T06:52:27Z</time>
      </trkpt>
      <trkpt lat="45.79971" lon="3.05696">
        <ele>497</ele>
        <time>2020-07-25T06:52:28Z</time>
      </trkpt>
      <trkpt lat="45.79982" lon="3.05692">
        <ele>497</ele>
        <time>2020-07-25T06:52:30Z</time>
      </trkpt>
      <trkpt lat="45.80031" lon="3.0568">
        <ele>496.39999389648</ele>
        <time>2020-07-25T06:52:38Z</time>
      </trkpt>
      <trkpt lat="45.80077" lon="3.05664">
        <ele>496.20001220703</ele>
        <time>2020-07-25T06:52:46Z</time>
      </trkpt>
      <trkpt lat="45.80082" lon="3.0566">
        <ele>496.20001220703</ele>
        <time>2020-07-25T06:52:47Z</time>
      </trkpt>
      <trkpt lat="45.80109" lon="3.05636">
        <ele>495.60000610352</ele>
        <time>2020-07-25T06:52:52Z</time>
      </trkpt>
      <trkpt lat="45.80121" lon="3.05624">
        <ele>495.20001220703</ele>
        <time>2020-07-25T06:52:54Z</time>
      </trkpt>
      <trkpt lat="45.80141" lon="3.05604">
        <ele>494</ele>
        <time>2020-07-25T06:52:57Z</time>
      </trkpt>
      <trkpt lat="45.80157" lon="3.05593">
        <ele>492.79998779297</ele>
        <time>2020-07-25T06:52:59Z</time>
      </trkpt>
      <trkpt lat="45.80175" lon="3.05584">
        <ele>491.39999389648</ele>
        <time>2020-07-25T06:53:01Z</time>
      </trkpt>
      <trkpt lat="45.80196" lon="3.05579">
        <ele>489.79998779297</ele>
        <time>2020-07-25T06:53:03Z</time>
      </trkpt>
      <trkpt lat="45.80206" lon="3.05579">
        <ele>488.79998779297</ele>
        <time>2020-07-25T06:53:04Z</time>
      </trkpt>
      <trkpt lat="45.80217" lon="3.05581">
        <ele>487.60000610352</ele>
        <time>2020-07-25T06:53:05Z</time>
      </trkpt>
      <trkpt lat="45.80229" lon="3.05585">
        <ele>486.39999389648</ele>
        <time>2020-07-25T06:53:06Z</time>
      </trkpt>
      <trkpt lat="45.8024" lon="3.0559">
        <ele>485.20001220703</ele>
        <time>2020-07-25T06:53:07Z</time>
      </trkpt>
      <trkpt lat="45.80252" lon="3.05593">
        <ele>483.79998779297</ele>
        <time>2020-07-25T06:53:08Z</time>
      </trkpt>
      <trkpt lat="45.80264" lon="3.05595">
        <ele>482.39999389648</ele>
        <time>2020-07-25T06:53:09Z</time>
      </trkpt>
      <trkpt lat="45.80276" lon="3.05595">
        <ele>481</ele>
        <time>2020-07-25T06:53:10Z</time>
      </trkpt>
      <trkpt lat="45.80288" lon="3.05594">
        <ele>479.60000610352</ele>
        <time>2020-07-25T06:53:11Z</time>
      </trkpt>
      <trkpt lat="45.803" lon="3.05594">
        <ele>478.20001220703</ele>
        <time>2020-07-25T06:53:12Z</time>
      </trkpt>
      <trkpt lat="45.80312" lon="3.05595">
        <ele>476.79998779297</ele>
        <time>2020-07-25T06:53:13Z</time>
      </trkpt>
      <trkpt lat="45.80324" lon="3.05597">
        <ele>475.60000610352</ele>
        <time>2020-07-25T06:53:14Z</time>
      </trkpt>
      <trkpt lat="45.80346" lon="3.05602">
        <ele>473.20001220703</ele>
        <time>2020-07-25T06:53:16Z</time>
      </trkpt>
      <trkpt lat="45.8037" lon="3.05606">
        <ele>472</ele>
        <time>2020-07-25T06:53:18Z</time>
      </trkpt>
      <trkpt lat="45.80393" lon="3.05607">
        <ele>470.79998779297</ele>
        <time>2020-07-25T06:53:20Z</time>
      </trkpt>
      <trkpt lat="45.80405" lon="3.05608">
        <ele>470.20001220703</ele>
        <time>2020-07-25T06:53:21Z</time>
      </trkpt>
      <trkpt lat="45.80416" lon="3.05609">
        <ele>469.39999389648</ele>
        <time>2020-07-25T06:53:22Z</time>
      </trkpt>
      <trkpt lat="45.80438" lon="3.0561">
        <ele>468.20001220703</ele>
        <time>2020-07-25T06:53:24Z</time>
      </trkpt>
      <trkpt lat="45.80448" lon="3.05607">
        <ele>467.79998779297</ele>
        <time>2020-07-25T06:53:25Z</time>
      </trkpt>
      <trkpt lat="45.80458" lon="3.05602">
        <ele>467.20001220703</ele>
        <time>2020-07-25T06:53:26Z</time>
      </trkpt>
      <trkpt lat="45.80467" lon="3.05594">
        <ele>467</ele>
        <time>2020-07-25T06:53:27Z</time>
      </trkpt>
      <trkpt lat="45.80484" lon="3.05577">
        <ele>466.60000610352</ele>
        <time>2020-07-25T06:53:29Z</time>
      </trkpt>
      <trkpt lat="45.80503" lon="3.05564">
        <ele>466.60000610352</ele>
        <time>2020-07-25T06:53:31Z</time>
      </trkpt>
      <trkpt lat="45.80526" lon="3.05561">
        <ele>466</ele>
        <time>2020-07-25T06:53:33Z</time>
      </trkpt>
      <trkpt lat="45.80538" lon="3.05561">
        <ele>465.60000610352</ele>
        <time>2020-07-25T06:53:34Z</time>
      </trkpt>
      <trkpt lat="45.80549" lon="3.05561">
        <ele>464.79998779297</ele>
        <time>2020-07-25T06:53:35Z</time>
      </trkpt>
      <trkpt lat="45.8056" lon="3.05561">
        <ele>464</ele>
        <time>2020-07-25T06:53:36Z</time>
      </trkpt>
      <trkpt lat="45.80582" lon="3.0556">
        <ele>462.20001220703</ele>
        <time>2020-07-25T06:53:38Z</time>
      </trkpt>
      <trkpt lat="45.80599" lon="3.0556">
        <ele>460.60000610352</ele>
        <time>2020-07-25T06:53:40Z</time>
      </trkpt>
      <trkpt lat="45.80608" lon="3.05561">
        <ele>460.39999389648</ele>
        <time>2020-07-25T06:53:41Z</time>
      </trkpt>
      <trkpt lat="45.80615" lon="3.05564">
        <ele>460.20001220703</ele>
        <time>2020-07-25T06:53:42Z</time>
      </trkpt>
      <trkpt lat="45.80626" lon="3.05569">
        <ele>460</ele>
        <time>2020-07-25T06:53:44Z</time>
      </trkpt>
      <trkpt lat="45.80633" lon="3.05578">
        <ele>460.20001220703</ele>
        <time>2020-07-25T06:53:47Z</time>
      </trkpt>
      <trkpt lat="45.80636" lon="3.05583">
        <ele>460.79998779297</ele>
        <time>2020-07-25T06:53:51Z</time>
      </trkpt>
      <trkpt lat="45.80638" lon="3.05584">
        <ele>461</ele>
        <time>2020-07-25T06:53:52Z</time>
      </trkpt>
      <trkpt lat="45.80646" lon="3.05586">
        <ele>461</ele>
        <time>2020-07-25T06:53:55Z</time>
      </trkpt>
      <trkpt lat="45.80666" lon="3.0559">
        <ele>460.20001220703</ele>
        <time>2020-07-25T06:54:00Z</time>
      </trkpt>
      <trkpt lat="45.80684" lon="3.05589">
        <ele>459.39999389648</ele>
        <time>2020-07-25T06:54:03Z</time>
      </trkpt>
      <trkpt lat="45.8069" lon="3.05586">
        <ele>458.60000610352</ele>
        <time>2020-07-25T06:54:04Z</time>
      </trkpt>
      <trkpt lat="45.80697" lon="3.05581">
        <ele>458</ele>
        <time>2020-07-25T06:54:05Z</time>
      </trkpt>
      <trkpt lat="45.8071" lon="3.05567">
        <ele>456.39999389648</ele>
        <time>2020-07-25T06:54:07Z</time>
      </trkpt>
      <trkpt lat="45.80717" lon="3.05563">
        <ele>455.60000610352</ele>
        <time>2020-07-25T06:54:08Z</time>
      </trkpt>
      <trkpt lat="45.80723" lon="3.05561">
        <ele>454.60000610352</ele>
        <time>2020-07-25T06:54:09Z</time>
      </trkpt>
      <trkpt lat="45.80731" lon="3.05563">
        <ele>453.79998779297</ele>
        <time>2020-07-25T06:54:10Z</time>
      </trkpt>
      <trkpt lat="45.80737" lon="3.05566">
        <ele>453</ele>
        <time>2020-07-25T06:54:11Z</time>
      </trkpt>
      <trkpt lat="45.80744" lon="3.05568">
        <ele>452.20001220703</ele>
        <time>2020-07-25T06:54:12Z</time>
      </trkpt>
      <trkpt lat="45.80749" lon="3.05571">
        <ele>451.60000610352</ele>
        <time>2020-07-25T06:54:13Z</time>
      </trkpt>
      <trkpt lat="45.80756" lon="3.05572">
        <ele>451</ele>
        <time>2020-07-25T06:54:14Z</time>
      </trkpt>
      <trkpt lat="45.80763" lon="3.05572">
        <ele>450.20001220703</ele>
        <time>2020-07-25T06:54:15Z</time>
      </trkpt>
      <trkpt lat="45.80776" lon="3.05575">
        <ele>448.39999389648</ele>
        <time>2020-07-25T06:54:17Z</time>
      </trkpt>
      <trkpt lat="45.80782" lon="3.05576">
        <ele>447.60000610352</ele>
        <time>2020-07-25T06:54:18Z</time>
      </trkpt>
      <trkpt lat="45.80789" lon="3.05578">
        <ele>447</ele>
        <time>2020-07-25T06:54:19Z</time>
      </trkpt>
      <trkpt lat="45.80808" lon="3.0558">
        <ele>445.20001220703</ele>
        <time>2020-07-25T06:54:21Z</time>
      </trkpt>
      <trkpt lat="45.80817" lon="3.05581">
        <ele>444</ele>
        <time>2020-07-25T06:54:22Z</time>
      </trkpt>
      <trkpt lat="45.80826" lon="3.05581">
        <ele>442.79998779297</ele>
        <time>2020-07-25T06:54:23Z</time>
      </trkpt>
      <trkpt lat="45.80834" lon="3.05583">
        <ele>441.79998779297</ele>
        <time>2020-07-25T06:54:24Z</time>
      </trkpt>
      <trkpt lat="45.80841" lon="3.05586">
        <ele>440.79998779297</ele>
        <time>2020-07-25T06:54:25Z</time>
      </trkpt>
      <trkpt lat="45.80846" lon="3.05588">
        <ele>440</ele>
        <time>2020-07-25T06:54:26Z</time>
      </trkpt>
      <trkpt lat="45.80851" lon="3.0559">
        <ele>439</ele>
        <time>2020-07-25T06:54:28Z</time>
      </trkpt>
      <trkpt lat="45.80852" lon="3.05591">
        <ele>438.79998779297</ele>
        <time>2020-07-25T06:54:29Z</time>
      </trkpt>
      <trkpt lat="45.80863" lon="3.05601">
        <ele>439</ele>
        <time>2020-07-25T06:54:33Z</time>
      </trkpt>
      <trkpt lat="45.80881" lon="3.05622">
        <ele>438</ele>
        <time>2020-07-25T06:54:39Z</time>
      </trkpt>
      <trkpt lat="45.80884" lon="3.05626">
        <ele>438</ele>
        <time>2020-07-25T06:54:40Z</time>
      </trkpt>
      <trkpt lat="45.80886" lon="3.05632">
        <ele>437.79998779297</ele>
        <time>2020-07-25T06:54:41Z</time>
      </trkpt>
      <trkpt lat="45.80895" lon="3.05649">
        <ele>437</ele>
        <time>2020-07-25T06:54:45Z</time>
      </trkpt>
      <trkpt lat="45.80901" lon="3.05656">
        <ele>436.79998779297</ele>
        <time>2020-07-25T06:54:47Z</time>
      </trkpt>
      <trkpt lat="45.80905" lon="3.05658">
        <ele>436.79998779297</ele>
        <time>2020-07-25T06:54:48Z</time>
      </trkpt>
      <trkpt lat="45.80914" lon="3.05662">
        <ele>436.60000610352</ele>
        <time>2020-07-25T06:54:50Z</time>
      </trkpt>
      <trkpt lat="45.80929" lon="3.05667">
        <ele>435.60000610352</ele>
        <time>2020-07-25T06:54:53Z</time>
      </trkpt>
      <trkpt lat="45.80946" lon="3.05671">
        <ele>434.79998779297</ele>
        <time>2020-07-25T06:54:56Z</time>
      </trkpt>
      <trkpt lat="45.80952" lon="3.05671">
        <ele>434.39999389648</ele>
        <time>2020-07-25T06:54:57Z</time>
      </trkpt>
      <trkpt lat="45.80976" lon="3.05671">
        <ele>433.39999389648</ele>
        <time>2020-07-25T06:55:01Z</time>
      </trkpt>
      <trkpt lat="45.80981" lon="3.05672">
        <ele>433.20001220703</ele>
        <time>2020-07-25T06:55:02Z</time>
      </trkpt>
      <trkpt lat="45.80985" lon="3.05673">
        <ele>433</ele>
        <time>2020-07-25T06:55:03Z</time>
      </trkpt>
      <trkpt lat="45.81003" lon="3.05672">
        <ele>432.39999389648</ele>
        <time>2020-07-25T06:55:06Z</time>
      </trkpt>
      <trkpt lat="45.81009" lon="3.05671">
        <ele>432.20001220703</ele>
        <time>2020-07-25T06:55:07Z</time>
      </trkpt>
      <trkpt lat="45.81036" lon="3.05671">
        <ele>431.39999389648</ele>
        <time>2020-07-25T06:55:11Z</time>
      </trkpt>
      <trkpt lat="45.81043" lon="3.0567">
        <ele>431</ele>
        <time>2020-07-25T06:55:12Z</time>
      </trkpt>
      <trkpt lat="45.81066" lon="3.05671">
        <ele>430.39999389648</ele>
        <time>2020-07-25T06:55:16Z</time>
      </trkpt>
      <trkpt lat="45.81072" lon="3.05672">
        <ele>430.60000610352</ele>
        <time>2020-07-25T06:55:17Z</time>
      </trkpt>
      <trkpt lat="45.81098" lon="3.0568">
        <ele>430.60000610352</ele>
        <time>2020-07-25T06:55:21Z</time>
      </trkpt>
      <trkpt lat="45.81117" lon="3.05688">
        <ele>429.79998779297</ele>
        <time>2020-07-25T06:55:24Z</time>
      </trkpt>
      <trkpt lat="45.81142" lon="3.05697">
        <ele>428.60000610352</ele>
        <time>2020-07-25T06:55:28Z</time>
      </trkpt>
      <trkpt lat="45.81148" lon="3.05699">
        <ele>428.20001220703</ele>
        <time>2020-07-25T06:55:29Z</time>
      </trkpt>
      <trkpt lat="45.8116" lon="3.05704">
        <ele>427.60000610352</ele>
        <time>2020-07-25T06:55:31Z</time>
      </trkpt>
      <trkpt lat="45.81185" lon="3.05713">
        <ele>427</ele>
        <time>2020-07-25T06:55:35Z</time>
      </trkpt>
      <trkpt lat="45.81228" lon="3.05724">
        <ele>427.20001220703</ele>
        <time>2020-07-25T06:55:42Z</time>
      </trkpt>
      <trkpt lat="45.81234" lon="3.05722">
        <ele>427.20001220703</ele>
        <time>2020-07-25T06:55:43Z</time>
      </trkpt>
      <trkpt lat="45.81263" lon="3.05714">
        <ele>427</ele>
        <time>2020-07-25T06:55:48Z</time>
      </trkpt>
      <trkpt lat="45.81314" lon="3.0571">
        <ele>426.60000610352</ele>
        <time>2020-07-25T06:55:56Z</time>
      </trkpt>
      <trkpt lat="45.8132" lon="3.05709">
        <ele>426.60000610352</ele>
        <time>2020-07-25T06:55:57Z</time>
      </trkpt>
      <trkpt lat="45.81363" lon="3.05709">
        <ele>425.79998779297</ele>
        <time>2020-07-25T06:56:04Z</time>
      </trkpt>
      <trkpt lat="45.81397" lon="3.05724">
        <ele>425.79998779297</ele>
        <time>2020-07-25T06:56:10Z</time>
      </trkpt>
      <trkpt lat="45.81406" lon="3.05732">
        <ele>425.79998779297</ele>
        <time>2020-07-25T06:56:12Z</time>
      </trkpt>
      <trkpt lat="45.81415" lon="3.05742">
        <ele>425.60000610352</ele>
        <time>2020-07-25T06:56:14Z</time>
      </trkpt>
      <trkpt lat="45.81423" lon="3.05754">
        <ele>425.60000610352</ele>
        <time>2020-07-25T06:56:16Z</time>
      </trkpt>
      <trkpt lat="45.81431" lon="3.05773">
        <ele>425.60000610352</ele>
        <time>2020-07-25T06:56:19Z</time>
      </trkpt>
      <trkpt lat="45.81437" lon="3.05787">
        <ele>425.39999389648</ele>
        <time>2020-07-25T06:56:21Z</time>
      </trkpt>
      <trkpt lat="45.81469" lon="3.05852">
        <ele>425</ele>
        <time>2020-07-25T06:56:31Z</time>
      </trkpt>
      <trkpt lat="45.81472" lon="3.05858">
        <ele>424.79998779297</ele>
        <time>2020-07-25T06:56:32Z</time>
      </trkpt>
      <trkpt lat="45.81477" lon="3.05863">
        <ele>424.79998779297</ele>
        <time>2020-07-25T06:56:33Z</time>
      </trkpt>
      <trkpt lat="45.8149" lon="3.05877">
        <ele>424.79998779297</ele>
        <time>2020-07-25T06:56:36Z</time>
      </trkpt>
      <trkpt lat="45.81495" lon="3.0588">
        <ele>424.79998779297</ele>
        <time>2020-07-25T06:56:37Z</time>
      </trkpt>
      <trkpt lat="45.81515" lon="3.05888">
        <ele>425</ele>
        <time>2020-07-25T06:56:41Z</time>
      </trkpt>
      <trkpt lat="45.81564" lon="3.05902">
        <ele>424.79998779297</ele>
        <time>2020-07-25T06:56:50Z</time>
      </trkpt>
      <trkpt lat="45.81581" lon="3.05902">
        <ele>424.39999389648</ele>
        <time>2020-07-25T06:56:53Z</time>
      </trkpt>
      <trkpt lat="45.81614" lon="3.05902">
        <ele>424.20001220703</ele>
        <time>2020-07-25T06:56:59Z</time>
      </trkpt>
      <trkpt lat="45.81647" lon="3.05906">
        <ele>424.20001220703</ele>
        <time>2020-07-25T06:57:05Z</time>
      </trkpt>
      <trkpt lat="45.81658" lon="3.05913">
        <ele>424</ele>
        <time>2020-07-25T06:57:07Z</time>
      </trkpt>
      <trkpt lat="45.81671" lon="3.0593">
        <ele>423.39999389648</ele>
        <time>2020-07-25T06:57:10Z</time>
      </trkpt>
      <trkpt lat="45.81675" lon="3.05935">
        <ele>423.20001220703</ele>
        <time>2020-07-25T06:57:11Z</time>
      </trkpt>
      <trkpt lat="45.81712" lon="3.05976">
        <ele>422.79998779297</ele>
        <time>2020-07-25T06:57:20Z</time>
      </trkpt>
      <trkpt lat="45.81721" lon="3.05984">
        <ele>422.79998779297</ele>
        <time>2020-07-25T06:57:22Z</time>
      </trkpt>
      <trkpt lat="45.81736" lon="3.05996">
        <ele>422.20001220703</ele>
        <time>2020-07-25T06:57:25Z</time>
      </trkpt>
      <trkpt lat="45.81741" lon="3.06001">
        <ele>422</ele>
        <time>2020-07-25T06:57:26Z</time>
      </trkpt>
      <trkpt lat="45.81757" lon="3.06026">
        <ele>421.20001220703</ele>
        <time>2020-07-25T06:57:30Z</time>
      </trkpt>
      <trkpt lat="45.81761" lon="3.06033">
        <ele>421</ele>
        <time>2020-07-25T06:57:31Z</time>
      </trkpt>
      <trkpt lat="45.81775" lon="3.06064">
        <ele>420</ele>
        <time>2020-07-25T06:57:35Z</time>
      </trkpt>
      <trkpt lat="45.81792" lon="3.06097">
        <ele>419.20001220703</ele>
        <time>2020-07-25T06:57:39Z</time>
      </trkpt>
      <trkpt lat="45.81798" lon="3.06104">
        <ele>418.39999389648</ele>
        <time>2020-07-25T06:57:40Z</time>
      </trkpt>
      <trkpt lat="45.81818" lon="3.06125">
        <ele>417</ele>
        <time>2020-07-25T06:57:43Z</time>
      </trkpt>
      <trkpt lat="45.81832" lon="3.06137">
        <ele>415.60000610352</ele>
        <time>2020-07-25T06:57:45Z</time>
      </trkpt>
      <trkpt lat="45.81848" lon="3.06149">
        <ele>414.20001220703</ele>
        <time>2020-07-25T06:57:47Z</time>
      </trkpt>
      <trkpt lat="45.81856" lon="3.06156">
        <ele>413.60000610352</ele>
        <time>2020-07-25T06:57:48Z</time>
      </trkpt>
      <trkpt lat="45.81864" lon="3.06162">
        <ele>413</ele>
        <time>2020-07-25T06:57:49Z</time>
      </trkpt>
      <trkpt lat="45.8188" lon="3.06175">
        <ele>411.79998779297</ele>
        <time>2020-07-25T06:57:51Z</time>
      </trkpt>
      <trkpt lat="45.81896" lon="3.06188">
        <ele>410.20001220703</ele>
        <time>2020-07-25T06:57:53Z</time>
      </trkpt>
      <trkpt lat="45.81912" lon="3.06202">
        <ele>409</ele>
        <time>2020-07-25T06:57:55Z</time>
      </trkpt>
      <trkpt lat="45.81934" lon="3.06221">
        <ele>408.20001220703</ele>
        <time>2020-07-25T06:57:58Z</time>
      </trkpt>
      <trkpt lat="45.81941" lon="3.06229">
        <ele>407.79998779297</ele>
        <time>2020-07-25T06:57:59Z</time>
      </trkpt>
      <trkpt lat="45.81946" lon="3.06238">
        <ele>407.39999389648</ele>
        <time>2020-07-25T06:58:00Z</time>
      </trkpt>
      <trkpt lat="45.81955" lon="3.06259">
        <ele>407</ele>
        <time>2020-07-25T06:58:02Z</time>
      </trkpt>
      <trkpt lat="45.81964" lon="3.06292">
        <ele>406.79998779297</ele>
        <time>2020-07-25T06:58:05Z</time>
      </trkpt>
      <trkpt lat="45.81966" lon="3.06304">
        <ele>406.79998779297</ele>
        <time>2020-07-25T06:58:06Z</time>
      </trkpt>
      <trkpt lat="45.81977" lon="3.06364">
        <ele>405.39999389648</ele>
        <time>2020-07-25T06:58:11Z</time>
      </trkpt>
      <trkpt lat="45.81986" lon="3.06401">
        <ele>404.20001220703</ele>
        <time>2020-07-25T06:58:14Z</time>
      </trkpt>
      <trkpt lat="45.81992" lon="3.06426">
        <ele>403.20001220703</ele>
        <time>2020-07-25T06:58:16Z</time>
      </trkpt>
      <trkpt lat="45.82" lon="3.06452">
        <ele>402</ele>
        <time>2020-07-25T06:58:18Z</time>
      </trkpt>
      <trkpt lat="45.82006" lon="3.06472">
        <ele>400.60000610352</ele>
        <time>2020-07-25T06:58:20Z</time>
      </trkpt>
      <trkpt lat="45.82011" lon="3.06486">
        <ele>399.20001220703</ele>
        <time>2020-07-25T06:58:22Z</time>
      </trkpt>
      <trkpt lat="45.82013" lon="3.06492">
        <ele>398.79998779297</ele>
        <time>2020-07-25T06:58:23Z</time>
      </trkpt>
      <trkpt lat="45.82011" lon="3.06508">
        <ele>398.60000610352</ele>
        <time>2020-07-25T06:58:26Z</time>
      </trkpt>
      <trkpt lat="45.82009" lon="3.06514">
        <ele>398.60000610352</ele>
        <time>2020-07-25T06:58:27Z</time>
      </trkpt>
      <trkpt lat="45.82006" lon="3.06519">
        <ele>398.60000610352</ele>
        <time>2020-07-25T06:58:28Z</time>
      </trkpt>
      <trkpt lat="45.81995" lon="3.06536">
        <ele>398</ele>
        <time>2020-07-25T06:58:31Z</time>
      </trkpt>
      <trkpt lat="45.81988" lon="3.06545">
        <ele>396.79998779297</ele>
        <time>2020-07-25T06:58:34Z</time>
      </trkpt>
      <trkpt lat="45.81989" lon="3.06545">
        <ele>396.60000610352</ele>
        <time>2020-07-25T06:58:37Z</time>
      </trkpt>
      <trkpt lat="45.81988" lon="3.06547">
        <ele>397</ele>
        <time>2020-07-25T06:58:47Z</time>
      </trkpt>
      <trkpt lat="45.8198" lon="3.06564">
        <ele>396.79998779297</ele>
        <time>2020-07-25T06:58:52Z</time>
      </trkpt>
      <trkpt lat="45.81974" lon="3.06578">
        <ele>395.60000610352</ele>
        <time>2020-07-25T06:58:55Z</time>
      </trkpt>
      <trkpt lat="45.81971" lon="3.06589">
        <ele>395.39999389648</ele>
        <time>2020-07-25T06:58:57Z</time>
      </trkpt>
      <trkpt lat="45.81969" lon="3.06601">
        <ele>395.20001220703</ele>
        <time>2020-07-25T06:58:59Z</time>
      </trkpt>
      <trkpt lat="45.81969" lon="3.06636">
        <ele>395</ele>
        <time>2020-07-25T06:59:05Z</time>
      </trkpt>
      <trkpt lat="45.8198" lon="3.06663">
        <ele>395.20001220703</ele>
        <time>2020-07-25T06:59:10Z</time>
      </trkpt>
      <trkpt lat="45.82003" lon="3.0671">
        <ele>395.20001220703</ele>
        <time>2020-07-25T06:59:19Z</time>
      </trkpt>
      <trkpt lat="45.82019" lon="3.06753">
        <ele>395.20001220703</ele>
        <time>2020-07-25T06:59:27Z</time>
      </trkpt>
      <trkpt lat="45.82041" lon="3.06814">
        <ele>395.20001220703</ele>
        <time>2020-07-25T06:59:38Z</time>
      </trkpt>
      <trkpt lat="45.82061" lon="3.06857">
        <ele>395.39999389648</ele>
        <time>2020-07-25T06:59:46Z</time>
      </trkpt>
      <trkpt lat="45.82067" lon="3.06868">
        <ele>395.39999389648</ele>
        <time>2020-07-25T06:59:48Z</time>
      </trkpt>
      <trkpt lat="45.82075" lon="3.06887">
        <ele>395</ele>
        <time>2020-07-25T06:59:51Z</time>
      </trkpt>
      <trkpt lat="45.82078" lon="3.06893">
        <ele>395</ele>
        <time>2020-07-25T06:59:52Z</time>
      </trkpt>
      <trkpt lat="45.82091" lon="3.06915">
        <ele>394.39999389648</ele>
        <time>2020-07-25T06:59:55Z</time>
      </trkpt>
      <trkpt lat="45.82094" lon="3.06924">
        <ele>394</ele>
        <time>2020-07-25T06:59:56Z</time>
      </trkpt>
      <trkpt lat="45.82097" lon="3.06933">
        <ele>393.20001220703</ele>
        <time>2020-07-25T06:59:57Z</time>
      </trkpt>
      <trkpt lat="45.82102" lon="3.06952">
        <ele>391.20001220703</ele>
        <time>2020-07-25T06:59:59Z</time>
      </trkpt>
      <trkpt lat="45.82108" lon="3.06968">
        <ele>389.79998779297</ele>
        <time>2020-07-25T07:00:01Z</time>
      </trkpt>
      <trkpt lat="45.82127" lon="3.07">
        <ele>389.20001220703</ele>
        <time>2020-07-25T07:00:06Z</time>
      </trkpt>
      <trkpt lat="45.82157" lon="3.0705">
        <ele>389.79998779297</ele>
        <time>2020-07-25T07:00:14Z</time>
      </trkpt>
      <trkpt lat="45.82164" lon="3.07064">
        <ele>389.79998779297</ele>
        <time>2020-07-25T07:00:16Z</time>
      </trkpt>
      <trkpt lat="45.82171" lon="3.07086">
        <ele>389.20001220703</ele>
        <time>2020-07-25T07:00:19Z</time>
      </trkpt>
      <trkpt lat="45.82174" lon="3.07101">
        <ele>389</ele>
        <time>2020-07-25T07:00:21Z</time>
      </trkpt>
      <trkpt lat="45.82175" lon="3.07109">
        <ele>388.79998779297</ele>
        <time>2020-07-25T07:00:22Z</time>
      </trkpt>
      <trkpt lat="45.82177" lon="3.07133">
        <ele>388.60000610352</ele>
        <time>2020-07-25T07:00:25Z</time>
      </trkpt>
      <trkpt lat="45.82183" lon="3.072">
        <ele>387.79998779297</ele>
        <time>2020-07-25T07:00:33Z</time>
      </trkpt>
      <trkpt lat="45.82184" lon="3.07208">
        <ele>387.60000610352</ele>
        <time>2020-07-25T07:00:34Z</time>
      </trkpt>
      <trkpt lat="45.82187" lon="3.07236">
        <ele>386.60000610352</ele>
        <time>2020-07-25T07:00:37Z</time>
      </trkpt>
      <trkpt lat="45.82193" lon="3.07284">
        <ele>385.20001220703</ele>
        <time>2020-07-25T07:00:42Z</time>
      </trkpt>
      <trkpt lat="45.82196" lon="3.07304">
        <ele>384.20001220703</ele>
        <time>2020-07-25T07:00:44Z</time>
      </trkpt>
      <trkpt lat="45.82201" lon="3.07334">
        <ele>383</ele>
        <time>2020-07-25T07:00:47Z</time>
      </trkpt>
      <trkpt lat="45.82206" lon="3.07364">
        <ele>382</ele>
        <time>2020-07-25T07:00:50Z</time>
      </trkpt>
      <trkpt lat="45.82207" lon="3.07374">
        <ele>381.79998779297</ele>
        <time>2020-07-25T07:00:51Z</time>
      </trkpt>
      <trkpt lat="45.82211" lon="3.07432">
        <ele>381</ele>
        <time>2020-07-25T07:00:57Z</time>
      </trkpt>
      <trkpt lat="45.82212" lon="3.07441">
        <ele>380.60000610352</ele>
        <time>2020-07-25T07:00:58Z</time>
      </trkpt>
      <trkpt lat="45.82214" lon="3.07503">
        <ele>380.60000610352</ele>
        <time>2020-07-25T07:01:05Z</time>
      </trkpt>
      <trkpt lat="45.82212" lon="3.07559">
        <ele>380.79998779297</ele>
        <time>2020-07-25T07:01:12Z</time>
      </trkpt>
      <trkpt lat="45.82209" lon="3.07605">
        <ele>380.60000610352</ele>
        <time>2020-07-25T07:01:18Z</time>
      </trkpt>
      <trkpt lat="45.82205" lon="3.0767">
        <ele>380.20001220703</ele>
        <time>2020-07-25T07:01:27Z</time>
      </trkpt>
      <trkpt lat="45.82204" lon="3.07722">
        <ele>380.20001220703</ele>
        <time>2020-07-25T07:01:34Z</time>
      </trkpt>
      <trkpt lat="45.82209" lon="3.07772">
        <ele>380.39999389648</ele>
        <time>2020-07-25T07:01:41Z</time>
      </trkpt>
      <trkpt lat="45.82213" lon="3.07793">
        <ele>380.39999389648</ele>
        <time>2020-07-25T07:01:44Z</time>
      </trkpt>
      <trkpt lat="45.8222" lon="3.0781">
        <ele>380.39999389648</ele>
        <time>2020-07-25T07:01:47Z</time>
      </trkpt>
      <trkpt lat="45.82234" lon="3.07815">
        <ele>380.39999389648</ele>
        <time>2020-07-25T07:01:50Z</time>
      </trkpt>
      <trkpt lat="45.82252" lon="3.07811">
        <ele>380</ele>
        <time>2020-07-25T07:01:53Z</time>
      </trkpt>
      <trkpt lat="45.82259" lon="3.07809">
        <ele>379.79998779297</ele>
        <time>2020-07-25T07:01:54Z</time>
      </trkpt>
      <trkpt lat="45.82266" lon="3.07806">
        <ele>379.20001220703</ele>
        <time>2020-07-25T07:01:55Z</time>
      </trkpt>
      <trkpt lat="45.8228" lon="3.07802">
        <ele>378</ele>
        <time>2020-07-25T07:01:57Z</time>
      </trkpt>
      <trkpt lat="45.82293" lon="3.07797">
        <ele>377</ele>
        <time>2020-07-25T07:01:59Z</time>
      </trkpt>
      <trkpt lat="45.82314" lon="3.07789">
        <ele>375.79998779297</ele>
        <time>2020-07-25T07:02:02Z</time>
      </trkpt>
      <trkpt lat="45.82335" lon="3.07781">
        <ele>374.20001220703</ele>
        <time>2020-07-25T07:02:05Z</time>
      </trkpt>
      <trkpt lat="45.82369" lon="3.07763">
        <ele>373.39999389648</ele>
        <time>2020-07-25T07:02:10Z</time>
      </trkpt>
      <trkpt lat="45.82406" lon="3.07743">
        <ele>373.39999389648</ele>
        <time>2020-07-25T07:02:16Z</time>
      </trkpt>
      <trkpt lat="45.82413" lon="3.07742">
        <ele>373.39999389648</ele>
        <time>2020-07-25T07:02:17Z</time>
      </trkpt>
      <trkpt lat="45.82425" lon="3.07744">
        <ele>373.20001220703</ele>
        <time>2020-07-25T07:02:19Z</time>
      </trkpt>
      <trkpt lat="45.82456" lon="3.07758">
        <ele>373.60000610352</ele>
        <time>2020-07-25T07:02:25Z</time>
      </trkpt>
      <trkpt lat="45.82464" lon="3.07763">
        <ele>374.39999389648</ele>
        <time>2020-07-25T07:02:27Z</time>
      </trkpt>
      <trkpt lat="45.82471" lon="3.07768">
        <ele>375.60000610352</ele>
        <time>2020-07-25T07:02:29Z</time>
      </trkpt>
      <trkpt lat="45.82477" lon="3.07771">
        <ele>376.20001220703</ele>
        <time>2020-07-25T07:02:31Z</time>
      </trkpt>
      <trkpt lat="45.82482" lon="3.07771">
        <ele>376.60000610352</ele>
        <time>2020-07-25T07:02:33Z</time>
      </trkpt>
      <trkpt lat="45.82493" lon="3.07777">
        <ele>377.39999389648</ele>
        <time>2020-07-25T07:02:37Z</time>
      </trkpt>
      <trkpt lat="45.82504" lon="3.07772">
        <ele>377.60000610352</ele>
        <time>2020-07-25T07:02:41Z</time>
      </trkpt>
      <trkpt lat="45.82506" lon="3.07775">
        <ele>377.79998779297</ele>
        <time>2020-07-25T07:02:43Z</time>
      </trkpt>
      <trkpt lat="45.82518" lon="3.07773">
        <ele>378.39999389648</ele>
        <time>2020-07-25T07:02:48Z</time>
      </trkpt>
      <trkpt lat="45.82533" lon="3.07767">
        <ele>378.79998779297</ele>
        <time>2020-07-25T07:02:54Z</time>
      </trkpt>
      <trkpt lat="45.82537" lon="3.07765">
        <ele>379.20001220703</ele>
        <time>2020-07-25T07:02:56Z</time>
      </trkpt>
      <trkpt lat="45.82542" lon="3.07761">
        <ele>380.20001220703</ele>
        <time>2020-07-25T07:02:59Z</time>
      </trkpt>
      <trkpt lat="45.82552" lon="3.07758">
        <ele>381.20001220703</ele>
        <time>2020-07-25T07:03:04Z</time>
      </trkpt>
      <trkpt lat="45.8257" lon="3.07761">
        <ele>382.39999389648</ele>
        <time>2020-07-25T07:03:13Z</time>
      </trkpt>
      <trkpt lat="45.82587" lon="3.07758">
        <ele>383.20001220703</ele>
        <time>2020-07-25T07:03:22Z</time>
      </trkpt>
      <trkpt lat="45.826" lon="3.07753">
        <ele>383.39999389648</ele>
        <time>2020-07-25T07:03:28Z</time>
      </trkpt>
      <trkpt lat="45.82606" lon="3.07751">
        <ele>383.39999389648</ele>
        <time>2020-07-25T07:03:31Z</time>
      </trkpt>
      <trkpt lat="45.82625" lon="3.07746">
        <ele>383.79998779297</ele>
        <time>2020-07-25T07:03:40Z</time>
      </trkpt>
      <trkpt lat="45.8264" lon="3.07741">
        <ele>384</ele>
        <time>2020-07-25T07:03:47Z</time>
      </trkpt>
      <trkpt lat="45.82653" lon="3.07739">
        <ele>384.39999389648</ele>
        <time>2020-07-25T07:03:53Z</time>
      </trkpt>
      <trkpt lat="45.8266" lon="3.07738">
        <ele>384.60000610352</ele>
        <time>2020-07-25T07:03:56Z</time>
      </trkpt>
      <trkpt lat="45.82681" lon="3.07729">
        <ele>384.79998779297</ele>
        <time>2020-07-25T07:04:05Z</time>
      </trkpt>
      <trkpt lat="45.82704" lon="3.07719">
        <ele>385.20001220703</ele>
        <time>2020-07-25T07:04:14Z</time>
      </trkpt>
      <trkpt lat="45.82721" lon="3.07708">
        <ele>385.39999389648</ele>
        <time>2020-07-25T07:04:22Z</time>
      </trkpt>
      <trkpt lat="45.82724" lon="3.07706">
        <ele>385.39999389648</ele>
        <time>2020-07-25T07:04:23Z</time>
      </trkpt>
      <trkpt lat="45.82738" lon="3.07695">
        <ele>386.20001220703</ele>
        <time>2020-07-25T07:04:30Z</time>
      </trkpt>
      <trkpt lat="45.82746" lon="3.07689">
        <ele>386.39999389648</ele>
        <time>2020-07-25T07:04:34Z</time>
      </trkpt>
      <trkpt lat="45.82752" lon="3.07686">
        <ele>387</ele>
        <time>2020-07-25T07:04:37Z</time>
      </trkpt>
      <trkpt lat="45.82762" lon="3.07683">
        <ele>387.39999389648</ele>
        <time>2020-07-25T07:04:42Z</time>
      </trkpt>
      <trkpt lat="45.82764" lon="3.07684">
        <ele>387.60000610352</ele>
        <time>2020-07-25T07:04:43Z</time>
      </trkpt>
      <trkpt lat="45.82766" lon="3.07685">
        <ele>387.79998779297</ele>
        <time>2020-07-25T07:04:44Z</time>
      </trkpt>
      <trkpt lat="45.82777" lon="3.07686">
        <ele>388.39999389648</ele>
        <time>2020-07-25T07:04:50Z</time>
      </trkpt>
      <trkpt lat="45.82779" lon="3.07683">
        <ele>388.79998779297</ele>
        <time>2020-07-25T07:04:52Z</time>
      </trkpt>
      <trkpt lat="45.82784" lon="3.07677">
        <ele>389.60000610352</ele>
        <time>2020-07-25T07:04:56Z</time>
      </trkpt>
      <trkpt lat="45.82785" lon="3.07676">
        <ele>389.79998779297</ele>
        <time>2020-07-25T07:04:57Z</time>
      </trkpt>
      <trkpt lat="45.82791" lon="3.07669">
        <ele>390.39999389648</ele>
        <time>2020-07-25T07:05:02Z</time>
      </trkpt>
      <trkpt lat="45.82792" lon="3.07668">
        <ele>390.79998779297</ele>
        <time>2020-07-25T07:05:04Z</time>
      </trkpt>
      <trkpt lat="45.82797" lon="3.07667">
        <ele>391.39999389648</ele>
        <time>2020-07-25T07:05:09Z</time>
      </trkpt>
      <trkpt lat="45.82803" lon="3.07664">
        <ele>392</ele>
        <time>2020-07-25T07:05:12Z</time>
      </trkpt>
      <trkpt lat="45.82808" lon="3.07664">
        <ele>392.39999389648</ele>
        <time>2020-07-25T07:05:15Z</time>
      </trkpt>
      <trkpt lat="45.82812" lon="3.07667">
        <ele>393</ele>
        <time>2020-07-25T07:05:17Z</time>
      </trkpt>
      <trkpt lat="45.82819" lon="3.07674">
        <ele>394</ele>
        <time>2020-07-25T07:05:22Z</time>
      </trkpt>
      <trkpt lat="45.82821" lon="3.07675">
        <ele>394.20001220703</ele>
        <time>2020-07-25T07:05:23Z</time>
      </trkpt>
      <trkpt lat="45.8283" lon="3.07681">
        <ele>395.20001220703</ele>
        <time>2020-07-25T07:05:31Z</time>
      </trkpt>
      <trkpt lat="45.82831" lon="3.07681">
        <ele>395.20001220703</ele>
        <time>2020-07-25T07:05:32Z</time>
      </trkpt>
      <trkpt lat="45.82834" lon="3.07674">
        <ele>395.60000610352</ele>
        <time>2020-07-25T07:05:36Z</time>
      </trkpt>
      <trkpt lat="45.82836" lon="3.0767">
        <ele>395.79998779297</ele>
        <time>2020-07-25T07:05:38Z</time>
      </trkpt>
      <trkpt lat="45.82838" lon="3.07665">
        <ele>396.20001220703</ele>
        <time>2020-07-25T07:05:41Z</time>
      </trkpt>
      <trkpt lat="45.8284" lon="3.07663">
        <ele>396.39999389648</ele>
        <time>2020-07-25T07:05:43Z</time>
      </trkpt>
      <trkpt lat="45.82845" lon="3.07653">
        <ele>397.39999389648</ele>
        <time>2020-07-25T07:05:49Z</time>
      </trkpt>
      <trkpt lat="45.82845" lon="3.07651">
        <ele>397.60000610352</ele>
        <time>2020-07-25T07:05:50Z</time>
      </trkpt>
      <trkpt lat="45.82846" lon="3.07631">
        <ele>398.39999389648</ele>
        <time>2020-07-25T07:05:59Z</time>
      </trkpt>
      <trkpt lat="45.82847" lon="3.07628">
        <ele>398.60000610352</ele>
        <time>2020-07-25T07:06:00Z</time>
      </trkpt>
      <trkpt lat="45.82851" lon="3.07613">
        <ele>399.20001220703</ele>
        <time>2020-07-25T07:06:08Z</time>
      </trkpt>
      <trkpt lat="45.82855" lon="3.0761">
        <ele>399.39999389648</ele>
        <time>2020-07-25T07:06:11Z</time>
      </trkpt>
      <trkpt lat="45.82859" lon="3.07608">
        <ele>399.79998779297</ele>
        <time>2020-07-25T07:06:14Z</time>
      </trkpt>
      <trkpt lat="45.82868" lon="3.07595">
        <ele>400.39999389648</ele>
        <time>2020-07-25T07:06:22Z</time>
      </trkpt>
      <trkpt lat="45.82869" lon="3.07573">
        <ele>400.60000610352</ele>
        <time>2020-07-25T07:06:29Z</time>
      </trkpt>
      <trkpt lat="45.82869" lon="3.0757">
        <ele>400.60000610352</ele>
        <time>2020-07-25T07:06:30Z</time>
      </trkpt>
      <trkpt lat="45.8287" lon="3.0754">
        <ele>400.60000610352</ele>
        <time>2020-07-25T07:06:38Z</time>
      </trkpt>
      <trkpt lat="45.82871" lon="3.07503">
        <ele>401.20001220703</ele>
        <time>2020-07-25T07:06:48Z</time>
      </trkpt>
      <trkpt lat="45.82872" lon="3.07486">
        <ele>401.60000610352</ele>
        <time>2020-07-25T07:06:53Z</time>
      </trkpt>
      <trkpt lat="45.82872" lon="3.07472">
        <ele>401.79998779297</ele>
        <time>2020-07-25T07:06:57Z</time>
      </trkpt>
      <trkpt lat="45.82872" lon="3.07439">
        <ele>402.60000610352</ele>
        <time>2020-07-25T07:07:06Z</time>
      </trkpt>
      <trkpt lat="45.82871" lon="3.07413">
        <ele>403.39999389648</ele>
        <time>2020-07-25T07:07:14Z</time>
      </trkpt>
      <trkpt lat="45.82871" lon="3.0741">
        <ele>403.79998779297</ele>
        <time>2020-07-25T07:07:15Z</time>
      </trkpt>
      <trkpt lat="45.8287" lon="3.07393">
        <ele>404.39999389648</ele>
        <time>2020-07-25T07:07:21Z</time>
      </trkpt>
      <trkpt lat="45.8287" lon="3.0738">
        <ele>404.79998779297</ele>
        <time>2020-07-25T07:07:25Z</time>
      </trkpt>
      <trkpt lat="45.82869" lon="3.07357">
        <ele>405.39999389648</ele>
        <time>2020-07-25T07:07:32Z</time>
      </trkpt>
      <trkpt lat="45.82868" lon="3.07338">
        <ele>405.79998779297</ele>
        <time>2020-07-25T07:07:38Z</time>
      </trkpt>
      <trkpt lat="45.82868" lon="3.07332">
        <ele>406</ele>
        <time>2020-07-25T07:07:40Z</time>
      </trkpt>
      <trkpt lat="45.82867" lon="3.07305">
        <ele>406.60000610352</ele>
        <time>2020-07-25T07:07:48Z</time>
      </trkpt>
      <trkpt lat="45.82866" lon="3.07299">
        <ele>407</ele>
        <time>2020-07-25T07:07:50Z</time>
      </trkpt>
      <trkpt lat="45.82866" lon="3.07274">
        <ele>407.60000610352</ele>
        <time>2020-07-25T07:07:58Z</time>
      </trkpt>
      <trkpt lat="45.82866" lon="3.07261">
        <ele>408</ele>
        <time>2020-07-25T07:08:02Z</time>
      </trkpt>
      <trkpt lat="45.82865" lon="3.07251">
        <ele>408.39999389648</ele>
        <time>2020-07-25T07:08:05Z</time>
      </trkpt>
      <trkpt lat="45.82866" lon="3.0723">
        <ele>409</ele>
        <time>2020-07-25T07:08:12Z</time>
      </trkpt>
      <trkpt lat="45.82865" lon="3.0722">
        <ele>409.39999389648</ele>
        <time>2020-07-25T07:08:15Z</time>
      </trkpt>
      <trkpt lat="45.82865" lon="3.07191">
        <ele>410</ele>
        <time>2020-07-25T07:08:24Z</time>
      </trkpt>
      <trkpt lat="45.82864" lon="3.07184">
        <ele>410.20001220703</ele>
        <time>2020-07-25T07:08:26Z</time>
      </trkpt>
      <trkpt lat="45.82865" lon="3.0716">
        <ele>411</ele>
        <time>2020-07-25T07:08:34Z</time>
      </trkpt>
      <trkpt lat="45.82865" lon="3.07157">
        <ele>411</ele>
        <time>2020-07-25T07:08:35Z</time>
      </trkpt>
      <trkpt lat="45.82864" lon="3.07127">
        <ele>412</ele>
        <time>2020-07-25T07:08:45Z</time>
      </trkpt>
      <trkpt lat="45.82865" lon="3.07098">
        <ele>413</ele>
        <time>2020-07-25T07:08:54Z</time>
      </trkpt>
      <trkpt lat="45.82865" lon="3.07094">
        <ele>413.20001220703</ele>
        <time>2020-07-25T07:08:55Z</time>
      </trkpt>
      <trkpt lat="45.82868" lon="3.07069">
        <ele>413.79998779297</ele>
        <time>2020-07-25T07:09:03Z</time>
      </trkpt>
      <trkpt lat="45.8287" lon="3.07053">
        <ele>414.20001220703</ele>
        <time>2020-07-25T07:09:08Z</time>
      </trkpt>
      <trkpt lat="45.82874" lon="3.07034">
        <ele>414.79998779297</ele>
        <time>2020-07-25T07:09:14Z</time>
      </trkpt>
      <trkpt lat="45.82878" lon="3.07018">
        <ele>415.20001220703</ele>
        <time>2020-07-25T07:09:19Z</time>
      </trkpt>
      <trkpt lat="45.82878" lon="3.07012">
        <ele>415.39999389648</ele>
        <time>2020-07-25T07:09:21Z</time>
      </trkpt>
      <trkpt lat="45.82881" lon="3.06987">
        <ele>416.20001220703</ele>
        <time>2020-07-25T07:09:29Z</time>
      </trkpt>
      <trkpt lat="45.82881" lon="3.06977">
        <ele>416.39999389648</ele>
        <time>2020-07-25T07:09:32Z</time>
      </trkpt>
      <trkpt lat="45.82882" lon="3.06954">
        <ele>417.20001220703</ele>
        <time>2020-07-25T07:09:40Z</time>
      </trkpt>
      <trkpt lat="45.82882" lon="3.06951">
        <ele>417.39999389648</ele>
        <time>2020-07-25T07:09:41Z</time>
      </trkpt>
      <trkpt lat="45.82882" lon="3.06931">
        <ele>418.20001220703</ele>
        <time>2020-07-25T07:09:48Z</time>
      </trkpt>
      <trkpt lat="45.82882" lon="3.06923">
        <ele>418.39999389648</ele>
        <time>2020-07-25T07:09:51Z</time>
      </trkpt>
      <trkpt lat="45.82881" lon="3.06897">
        <ele>419.39999389648</ele>
        <time>2020-07-25T07:10:00Z</time>
      </trkpt>
      <trkpt lat="45.82881" lon="3.06893">
        <ele>419.60000610352</ele>
        <time>2020-07-25T07:10:01Z</time>
      </trkpt>
      <trkpt lat="45.8288" lon="3.06874">
        <ele>420.39999389648</ele>
        <time>2020-07-25T07:10:08Z</time>
      </trkpt>
      <trkpt lat="45.8288" lon="3.06869">
        <ele>420.60000610352</ele>
        <time>2020-07-25T07:10:10Z</time>
      </trkpt>
      <trkpt lat="45.82881" lon="3.06853">
        <ele>421.39999389648</ele>
        <time>2020-07-25T07:10:16Z</time>
      </trkpt>
      <trkpt lat="45.82881" lon="3.06844">
        <ele>421.60000610352</ele>
        <time>2020-07-25T07:10:19Z</time>
      </trkpt>
      <trkpt lat="45.82882" lon="3.06827">
        <ele>422.20001220703</ele>
        <time>2020-07-25T07:10:25Z</time>
      </trkpt>
      <trkpt lat="45.82882" lon="3.06816">
        <ele>422.79998779297</ele>
        <time>2020-07-25T07:10:29Z</time>
      </trkpt>
      <trkpt lat="45.82883" lon="3.06806">
        <ele>423.20001220703</ele>
        <time>2020-07-25T07:10:33Z</time>
      </trkpt>
      <trkpt lat="45.82884" lon="3.06784">
        <ele>423.79998779297</ele>
        <time>2020-07-25T07:10:41Z</time>
      </trkpt>
      <trkpt lat="45.82887" lon="3.06761">
        <ele>424.39999389648</ele>
        <time>2020-07-25T07:10:49Z</time>
      </trkpt>
      <trkpt lat="45.8289" lon="3.06746">
        <ele>425</ele>
        <time>2020-07-25T07:10:54Z</time>
      </trkpt>
      <trkpt lat="45.82892" lon="3.06734">
        <ele>425.39999389648</ele>
        <time>2020-07-25T07:10:58Z</time>
      </trkpt>
      <trkpt lat="45.82894" lon="3.06719">
        <ele>426</ele>
        <time>2020-07-25T07:11:04Z</time>
      </trkpt>
      <trkpt lat="45.82885" lon="3.06708">
        <ele>426.60000610352</ele>
        <time>2020-07-25T07:11:09Z</time>
      </trkpt>
      <trkpt lat="45.82876" lon="3.06701">
        <ele>426.60000610352</ele>
        <time>2020-07-25T07:11:13Z</time>
      </trkpt>
      <trkpt lat="45.82869" lon="3.06697">
        <ele>426.60000610352</ele>
        <time>2020-07-25T07:11:16Z</time>
      </trkpt>
      <trkpt lat="45.82863" lon="3.06691">
        <ele>427</ele>
        <time>2020-07-25T07:11:19Z</time>
      </trkpt>
      <trkpt lat="45.82858" lon="3.06683">
        <ele>427.20001220703</ele>
        <time>2020-07-25T07:11:22Z</time>
      </trkpt>
      <trkpt lat="45.82852" lon="3.0666">
        <ele>426.79998779297</ele>
        <time>2020-07-25T07:11:29Z</time>
      </trkpt>
      <trkpt lat="45.82854" lon="3.06645">
        <ele>427</ele>
        <time>2020-07-25T07:11:34Z</time>
      </trkpt>
      <trkpt lat="45.82859" lon="3.06632">
        <ele>428.20001220703</ele>
        <time>2020-07-25T07:11:40Z</time>
      </trkpt>
      <trkpt lat="45.8286" lon="3.06629">
        <ele>428.60000610352</ele>
        <time>2020-07-25T07:11:42Z</time>
      </trkpt>
      <trkpt lat="45.82865" lon="3.0662">
        <ele>429.20001220703</ele>
        <time>2020-07-25T07:11:47Z</time>
      </trkpt>
      <trkpt lat="45.82867" lon="3.06617">
        <ele>429.60000610352</ele>
        <time>2020-07-25T07:11:49Z</time>
      </trkpt>
      <trkpt lat="45.82868" lon="3.06608">
        <ele>430.39999389648</ele>
        <time>2020-07-25T07:11:54Z</time>
      </trkpt>
      <trkpt lat="45.82869" lon="3.06604">
        <ele>430.79998779297</ele>
        <time>2020-07-25T07:11:56Z</time>
      </trkpt>
      <trkpt lat="45.82871" lon="3.06597">
        <ele>431.39999389648</ele>
        <time>2020-07-25T07:12:00Z</time>
      </trkpt>
      <trkpt lat="45.82874" lon="3.06589">
        <ele>432.20001220703</ele>
        <time>2020-07-25T07:12:05Z</time>
      </trkpt>
      <trkpt lat="45.82875" lon="3.06586">
        <ele>432.60000610352</ele>
        <time>2020-07-25T07:12:07Z</time>
      </trkpt>
      <trkpt lat="45.82879" lon="3.06576">
        <ele>433.60000610352</ele>
        <time>2020-07-25T07:12:14Z</time>
      </trkpt>
      <trkpt lat="45.82881" lon="3.06573">
        <ele>433.79998779297</ele>
        <time>2020-07-25T07:12:16Z</time>
      </trkpt>
      <trkpt lat="45.82885" lon="3.06568">
        <ele>434.79998779297</ele>
        <time>2020-07-25T07:12:21Z</time>
      </trkpt>
      <trkpt lat="45.82887" lon="3.06566">
        <ele>435</ele>
        <time>2020-07-25T07:12:23Z</time>
      </trkpt>
      <trkpt lat="45.82891" lon="3.06565">
        <ele>435.39999389648</ele>
        <time>2020-07-25T07:12:26Z</time>
      </trkpt>
      <trkpt lat="45.82894" lon="3.06563">
        <ele>436</ele>
        <time>2020-07-25T07:12:29Z</time>
      </trkpt>
      <trkpt lat="45.82902" lon="3.0656">
        <ele>437</ele>
        <time>2020-07-25T07:12:37Z</time>
      </trkpt>
      <trkpt lat="45.8291" lon="3.06556">
        <ele>438</ele>
        <time>2020-07-25T07:12:44Z</time>
      </trkpt>
      <trkpt lat="45.82911" lon="3.06556">
        <ele>438.20001220703</ele>
        <time>2020-07-25T07:12:45Z</time>
      </trkpt>
      <trkpt lat="45.8292" lon="3.06552">
        <ele>439.20001220703</ele>
        <time>2020-07-25T07:12:52Z</time>
      </trkpt>
      <trkpt lat="45.82928" lon="3.06549">
        <ele>440.20001220703</ele>
        <time>2020-07-25T07:12:59Z</time>
      </trkpt>
      <trkpt lat="45.82931" lon="3.06547">
        <ele>440.79998779297</ele>
        <time>2020-07-25T07:13:03Z</time>
      </trkpt>
      <trkpt lat="45.82933" lon="3.06546">
        <ele>441</ele>
        <time>2020-07-25T07:13:05Z</time>
      </trkpt>
      <trkpt lat="45.82936" lon="3.06545">
        <ele>441.20001220703</ele>
        <time>2020-07-25T07:13:07Z</time>
      </trkpt>
      <trkpt lat="45.82943" lon="3.06542">
        <ele>441.79998779297</ele>
        <time>2020-07-25T07:13:12Z</time>
      </trkpt>
      <trkpt lat="45.82954" lon="3.06539">
        <ele>442.20001220703</ele>
        <time>2020-07-25T07:13:20Z</time>
      </trkpt>
      <trkpt lat="45.82968" lon="3.06539">
        <ele>443</ele>
        <time>2020-07-25T07:13:29Z</time>
      </trkpt>
      <trkpt lat="45.82974" lon="3.0654">
        <ele>443.20001220703</ele>
        <time>2020-07-25T07:13:33Z</time>
      </trkpt>
      <trkpt lat="45.82981" lon="3.06543">
        <ele>443.39999389648</ele>
        <time>2020-07-25T07:13:38Z</time>
      </trkpt>
      <trkpt lat="45.82991" lon="3.06548">
        <ele>444</ele>
        <time>2020-07-25T07:13:45Z</time>
      </trkpt>
      <trkpt lat="45.82994" lon="3.0655">
        <ele>444.39999389648</ele>
        <time>2020-07-25T07:13:47Z</time>
      </trkpt>
      <trkpt lat="45.83005" lon="3.06559">
        <ele>444.60000610352</ele>
        <time>2020-07-25T07:13:55Z</time>
      </trkpt>
      <trkpt lat="45.83019" lon="3.06564">
        <ele>445.20001220703</ele>
        <time>2020-07-25T07:14:04Z</time>
      </trkpt>
      <trkpt lat="45.8302" lon="3.06565">
        <ele>445.39999389648</ele>
        <time>2020-07-25T07:14:05Z</time>
      </trkpt>
      <trkpt lat="45.8303" lon="3.06566">
        <ele>446</ele>
        <time>2020-07-25T07:14:12Z</time>
      </trkpt>
      <trkpt lat="45.83036" lon="3.06566">
        <ele>446.20001220703</ele>
        <time>2020-07-25T07:14:16Z</time>
      </trkpt>
      <trkpt lat="45.83039" lon="3.06565">
        <ele>446.39999389648</ele>
        <time>2020-07-25T07:14:18Z</time>
      </trkpt>
      <trkpt lat="45.83044" lon="3.06564">
        <ele>446.60000610352</ele>
        <time>2020-07-25T07:14:21Z</time>
      </trkpt>
      <trkpt lat="45.83063" lon="3.06558">
        <ele>447.39999389648</ele>
        <time>2020-07-25T07:14:32Z</time>
      </trkpt>
      <trkpt lat="45.83065" lon="3.06557">
        <ele>447.60000610352</ele>
        <time>2020-07-25T07:14:33Z</time>
      </trkpt>
      <trkpt lat="45.83075" lon="3.06554">
        <ele>448.39999389648</ele>
        <time>2020-07-25T07:14:40Z</time>
      </trkpt>
      <trkpt lat="45.83077" lon="3.06553">
        <ele>448.60000610352</ele>
        <time>2020-07-25T07:14:41Z</time>
      </trkpt>
      <trkpt lat="45.8309" lon="3.0655">
        <ele>449.39999389648</ele>
        <time>2020-07-25T07:14:50Z</time>
      </trkpt>
      <trkpt lat="45.83093" lon="3.0655">
        <ele>449.79998779297</ele>
        <time>2020-07-25T07:14:52Z</time>
      </trkpt>
      <trkpt lat="45.831" lon="3.0655">
        <ele>450.79998779297</ele>
        <time>2020-07-25T07:14:57Z</time>
      </trkpt>
      <trkpt lat="45.83101" lon="3.0655">
        <ele>451</ele>
        <time>2020-07-25T07:14:58Z</time>
      </trkpt>
      <trkpt lat="45.83111" lon="3.06551">
        <ele>452</ele>
        <time>2020-07-25T07:15:04Z</time>
      </trkpt>
      <trkpt lat="45.83112" lon="3.06551">
        <ele>452.20001220703</ele>
        <time>2020-07-25T07:15:05Z</time>
      </trkpt>
      <trkpt lat="45.83119" lon="3.06556">
        <ele>453</ele>
        <time>2020-07-25T07:15:10Z</time>
      </trkpt>
      <trkpt lat="45.8312" lon="3.06557">
        <ele>453</ele>
        <time>2020-07-25T07:15:11Z</time>
      </trkpt>
      <trkpt lat="45.83124" lon="3.06554">
        <ele>453.39999389648</ele>
        <time>2020-07-25T07:15:15Z</time>
      </trkpt>
      <trkpt lat="45.83124" lon="3.06554">
        <ele>453.60000610352</ele>
        <time>2020-07-25T07:15:22Z</time>
      </trkpt>
      <trkpt lat="45.83124" lon="3.06554">
        <ele>453.60000610352</ele>
        <time>2020-07-25T07:15:29Z</time>
      </trkpt>
      <trkpt lat="45.83124" lon="3.06554">
        <ele>453.79998779297</ele>
        <time>2020-07-25T07:15:39Z</time>
      </trkpt>
      <trkpt lat="45.83124" lon="3.06554">
        <ele>453.79998779297</ele>
        <time>2020-07-25T07:15:48Z</time>
      </trkpt>
      <trkpt lat="45.83124" lon="3.06554">
        <ele>453.79998779297</ele>
        <time>2020-07-25T07:15:56Z</time>
      </trkpt>
      <trkpt lat="45.83124" lon="3.06554">
        <ele>453.79998779297</ele>
        <time>2020-07-25T07:16:09Z</time>
      </trkpt>
      <trkpt lat="45.83124" lon="3.06554">
        <ele>453.79998779297</ele>
        <time>2020-07-25T07:16:24Z</time>
      </trkpt>
      <trkpt lat="45.83124" lon="3.06554">
        <ele>454</ele>
        <time>2020-07-25T07:16:32Z</time>
      </trkpt>
      <trkpt lat="45.83124" lon="3.06554">
        <ele>454</ele>
        <time>2020-07-25T07:16:41Z</time>
      </trkpt>
      <trkpt lat="45.83124" lon="3.06554">
        <ele>453.60000610352</ele>
        <time>2020-07-25T07:16:48Z</time>
      </trkpt>
      <trkpt lat="45.83124" lon="3.06554">
        <ele>453.20001220703</ele>
        <time>2020-07-25T07:16:54Z</time>
      </trkpt>
      <trkpt lat="45.83124" lon="3.06554">
        <ele>453</ele>
        <time>2020-07-25T07:17:08Z</time>
      </trkpt>
      <trkpt lat="45.83124" lon="3.06554">
        <ele>453.20001220703</ele>
        <time>2020-07-25T07:17:26Z</time>
      </trkpt>
      <trkpt lat="45.83124" lon="3.06554">
        <ele>453.39999389648</ele>
        <time>2020-07-25T07:17:40Z</time>
      </trkpt>
      <trkpt lat="45.83124" lon="3.06554">
        <ele>453.20001220703</ele>
        <time>2020-07-25T07:18:02Z</time>
      </trkpt>
      <trkpt lat="45.83124" lon="3.06554">
        <ele>453.39999389648</ele>
        <time>2020-07-25T07:18:08Z</time>
      </trkpt>
      <trkpt lat="45.83124" lon="3.06554">
        <ele>453.39999389648</ele>
        <time>2020-07-25T07:18:19Z</time>
      </trkpt>
      <trkpt lat="45.83124" lon="3.06554">
        <ele>453.39999389648</ele>
        <time>2020-07-25T07:18:28Z</time>
      </trkpt>
      <trkpt lat="45.83125" lon="3.06554">
        <ele>453.39999389648</ele>
        <time>2020-07-25T07:18:50Z</time>
      </trkpt>
      <trkpt lat="45.83125" lon="3.06554">
        <ele>453.39999389648</ele>
        <time>2020-07-25T07:19:02Z</time>
      </trkpt>
      <trkpt lat="45.83125" lon="3.06554">
        <ele>453.39999389648</ele>
        <time>2020-07-25T07:19:04Z</time>
      </trkpt>
      <trkpt lat="45.83125" lon="3.06555">
        <ele>453.39999389648</ele>
        <time>2020-07-25T07:19:24Z</time>
      </trkpt>
      <trkpt lat="45.83125" lon="3.06555">
        <ele>453.39999389648</ele>
        <time>2020-07-25T07:19:45Z</time>
      </trkpt>
      <trkpt lat="45.83125" lon="3.06555">
        <ele>453.39999389648</ele>
        <time>2020-07-25T07:19:56Z</time>
      </trkpt>
      <trkpt lat="45.83125" lon="3.06556">
        <ele>453.39999389648</ele>
        <time>2020-07-25T07:20:05Z</time>
      </trkpt>
      <trkpt lat="45.83125" lon="3.06556">
        <ele>453.39999389648</ele>
        <time>2020-07-25T07:20:22Z</time>
      </trkpt>
      <trkpt lat="45.83125" lon="3.06556">
        <ele>453.39999389648</ele>
        <time>2020-07-25T07:20:40Z</time>
      </trkpt>
      <trkpt lat="45.83125" lon="3.06556">
        <ele>453.60000610352</ele>
        <time>2020-07-25T07:20:52Z</time>
      </trkpt>
      <trkpt lat="45.83125" lon="3.06556">
        <ele>453.60000610352</ele>
        <time>2020-07-25T07:20:59Z</time>
      </trkpt>
      <trkpt lat="45.83125" lon="3.06556">
        <ele>453.60000610352</ele>
        <time>2020-07-25T07:21:19Z</time>
      </trkpt>
      <trkpt lat="45.83125" lon="3.06556">
        <ele>453.60000610352</ele>
        <time>2020-07-25T07:21:41Z</time>
      </trkpt>
      <trkpt lat="45.83125" lon="3.06556">
        <ele>453.60000610352</ele>
        <time>2020-07-25T07:21:55Z</time>
      </trkpt>
      <trkpt lat="45.83125" lon="3.06556">
        <ele>453.60000610352</ele>
        <time>2020-07-25T07:21:56Z</time>
      </trkpt>
      <trkpt lat="45.83125" lon="3.06556">
        <ele>453.60000610352</ele>
        <time>2020-07-25T07:22:10Z</time>
      </trkpt>
      <trkpt lat="45.83125" lon="3.06556">
        <ele>453.60000610352</ele>
        <time>2020-07-25T07:22:30Z</time>
      </trkpt>
      <trkpt lat="45.83126" lon="3.06556">
        <ele>453.60000610352</ele>
        <time>2020-07-25T07:22:52Z</time>
      </trkpt>
      <trkpt lat="45.83125" lon="3.06555">
        <ele>453.60000610352</ele>
        <time>2020-07-25T07:22:57Z</time>
      </trkpt>
      <trkpt lat="45.83125" lon="3.06555">
        <ele>453.79998779297</ele>
        <time>2020-07-25T07:23:00Z</time>
      </trkpt>
      <trkpt lat="45.83125" lon="3.06555">
        <ele>454</ele>
        <time>2020-07-25T07:23:02Z</time>
      </trkpt>
      <trkpt lat="45.83125" lon="3.06554">
        <ele>454.39999389648</ele>
        <time>2020-07-25T07:23:04Z</time>
      </trkpt>
      <trkpt lat="45.83127" lon="3.06551">
        <ele>454.39999389648</ele>
        <time>2020-07-25T07:23:06Z</time>
      </trkpt>
      <trkpt lat="45.8313" lon="3.06544">
        <ele>454.39999389648</ele>
        <time>2020-07-25T07:23:09Z</time>
      </trkpt>
      <trkpt lat="45.83137" lon="3.06539">
        <ele>454.39999389648</ele>
        <time>2020-07-25T07:23:12Z</time>
      </trkpt>
      <trkpt lat="45.83153" lon="3.06536">
        <ele>454.39999389648</ele>
        <time>2020-07-25T07:23:19Z</time>
      </trkpt>
      <trkpt lat="45.83171" lon="3.06541">
        <ele>454.79998779297</ele>
        <time>2020-07-25T07:23:27Z</time>
      </trkpt>
      <trkpt lat="45.83176" lon="3.06546">
        <ele>455</ele>
        <time>2020-07-25T07:23:30Z</time>
      </trkpt>
      <trkpt lat="45.83185" lon="3.06554">
        <ele>455.39999389648</ele>
        <time>2020-07-25T07:23:35Z</time>
      </trkpt>
      <trkpt lat="45.832" lon="3.06563">
        <ele>456</ele>
        <time>2020-07-25T07:23:44Z</time>
      </trkpt>
      <trkpt lat="45.83213" lon="3.06562">
        <ele>456.79998779297</ele>
        <time>2020-07-25T07:23:51Z</time>
      </trkpt>
      <trkpt lat="45.8322" lon="3.06559">
        <ele>457.20001220703</ele>
        <time>2020-07-25T07:23:55Z</time>
      </trkpt>
      <trkpt lat="45.83223" lon="3.06557">
        <ele>457.39999389648</ele>
        <time>2020-07-25T07:23:57Z</time>
      </trkpt>
      <trkpt lat="45.83229" lon="3.06553">
        <ele>458.39999389648</ele>
        <time>2020-07-25T07:24:02Z</time>
      </trkpt>
      <trkpt lat="45.83232" lon="3.06552">
        <ele>458.79998779297</ele>
        <time>2020-07-25T07:24:04Z</time>
      </trkpt>
      <trkpt lat="45.83234" lon="3.06551">
        <ele>459.39999389648</ele>
        <time>2020-07-25T07:24:06Z</time>
      </trkpt>
      <trkpt lat="45.83241" lon="3.06548">
        <ele>460.39999389648</ele>
        <time>2020-07-25T07:24:12Z</time>
      </trkpt>
      <trkpt lat="45.83243" lon="3.06547">
        <ele>460.60000610352</ele>
        <time>2020-07-25T07:24:13Z</time>
      </trkpt>
      <trkpt lat="45.83255" lon="3.06541">
        <ele>461.39999389648</ele>
        <time>2020-07-25T07:24:22Z</time>
      </trkpt>
      <trkpt lat="45.83256" lon="3.06541">
        <ele>461.60000610352</ele>
        <time>2020-07-25T07:24:23Z</time>
      </trkpt>
      <trkpt lat="45.83266" lon="3.06539">
        <ele>462.39999389648</ele>
        <time>2020-07-25T07:24:30Z</time>
      </trkpt>
      <trkpt lat="45.83269" lon="3.06538">
        <ele>462.60000610352</ele>
        <time>2020-07-25T07:24:32Z</time>
      </trkpt>
      <trkpt lat="45.83278" lon="3.06535">
        <ele>463.20001220703</ele>
        <time>2020-07-25T07:24:39Z</time>
      </trkpt>
      <trkpt lat="45.8329" lon="3.06536">
        <ele>463.60000610352</ele>
        <time>2020-07-25T07:24:47Z</time>
      </trkpt>
      <trkpt lat="45.83291" lon="3.06536">
        <ele>463.79998779297</ele>
        <time>2020-07-25T07:24:48Z</time>
      </trkpt>
      <trkpt lat="45.83305" lon="3.06537">
        <ele>464.60000610352</ele>
        <time>2020-07-25T07:24:58Z</time>
      </trkpt>
      <trkpt lat="45.83309" lon="3.06537">
        <ele>464.79998779297</ele>
        <time>2020-07-25T07:25:00Z</time>
      </trkpt>
      <trkpt lat="45.83321" lon="3.06538">
        <ele>465.60000610352</ele>
        <time>2020-07-25T07:25:08Z</time>
      </trkpt>
      <trkpt lat="45.83323" lon="3.06539">
        <ele>465.79998779297</ele>
        <time>2020-07-25T07:25:09Z</time>
      </trkpt>
      <trkpt lat="45.83336" lon="3.0654">
        <ele>466.79998779297</ele>
        <time>2020-07-25T07:25:18Z</time>
      </trkpt>
      <trkpt lat="45.83338" lon="3.0654">
        <ele>466.79998779297</ele>
        <time>2020-07-25T07:25:20Z</time>
      </trkpt>
      <trkpt lat="45.83347" lon="3.06541">
        <ele>467.39999389648</ele>
        <time>2020-07-25T07:25:26Z</time>
      </trkpt>
      <trkpt lat="45.83354" lon="3.06539">
        <ele>468</ele>
        <time>2020-07-25T07:25:31Z</time>
      </trkpt>
      <trkpt lat="45.83355" lon="3.06539">
        <ele>468</ele>
        <time>2020-07-25T07:25:32Z</time>
      </trkpt>
      <trkpt lat="45.83371" lon="3.06534">
        <ele>469</ele>
        <time>2020-07-25T07:25:41Z</time>
      </trkpt>
      <trkpt lat="45.83383" lon="3.06528">
        <ele>470</ele>
        <time>2020-07-25T07:25:49Z</time>
      </trkpt>
      <trkpt lat="45.83384" lon="3.06527">
        <ele>470.20001220703</ele>
        <time>2020-07-25T07:25:50Z</time>
      </trkpt>
      <trkpt lat="45.83394" lon="3.06521">
        <ele>471</ele>
        <time>2020-07-25T07:25:57Z</time>
      </trkpt>
      <trkpt lat="45.83399" lon="3.06517">
        <ele>471.39999389648</ele>
        <time>2020-07-25T07:26:01Z</time>
      </trkpt>
      <trkpt lat="45.83405" lon="3.06513">
        <ele>472.20001220703</ele>
        <time>2020-07-25T07:26:05Z</time>
      </trkpt>
      <trkpt lat="45.8341" lon="3.06512">
        <ele>472.79998779297</ele>
        <time>2020-07-25T07:26:08Z</time>
      </trkpt>
      <trkpt lat="45.83411" lon="3.06512">
        <ele>472.79998779297</ele>
        <time>2020-07-25T07:26:09Z</time>
      </trkpt>
      <trkpt lat="45.83416" lon="3.06513">
        <ele>473.20001220703</ele>
        <time>2020-07-25T07:26:12Z</time>
      </trkpt>
      <trkpt lat="45.83421" lon="3.06512">
        <ele>474</ele>
        <time>2020-07-25T07:26:16Z</time>
      </trkpt>
      <trkpt lat="45.83423" lon="3.0651">
        <ele>474.39999389648</ele>
        <time>2020-07-25T07:26:18Z</time>
      </trkpt>
      <trkpt lat="45.83431" lon="3.06505">
        <ele>475.39999389648</ele>
        <time>2020-07-25T07:26:25Z</time>
      </trkpt>
      <trkpt lat="45.83438" lon="3.06498">
        <ele>476.60000610352</ele>
        <time>2020-07-25T07:26:32Z</time>
      </trkpt>
      <trkpt lat="45.8344" lon="3.06496">
        <ele>476.79998779297</ele>
        <time>2020-07-25T07:26:34Z</time>
      </trkpt>
      <trkpt lat="45.83447" lon="3.06489">
        <ele>477.60000610352</ele>
        <time>2020-07-25T07:26:41Z</time>
      </trkpt>
      <trkpt lat="45.83448" lon="3.06488">
        <ele>477.79998779297</ele>
        <time>2020-07-25T07:26:42Z</time>
      </trkpt>
      <trkpt lat="45.83454" lon="3.06483">
        <ele>478.60000610352</ele>
        <time>2020-07-25T07:26:48Z</time>
      </trkpt>
      <trkpt lat="45.83455" lon="3.06482">
        <ele>478.60000610352</ele>
        <time>2020-07-25T07:26:49Z</time>
      </trkpt>
      <trkpt lat="45.83461" lon="3.06477">
        <ele>479.60000610352</ele>
        <time>2020-07-25T07:26:55Z</time>
      </trkpt>
      <trkpt lat="45.83463" lon="3.06476">
        <ele>479.79998779297</ele>
        <time>2020-07-25T07:26:56Z</time>
      </trkpt>
      <trkpt lat="45.83471" lon="3.06469">
        <ele>480.60000610352</ele>
        <time>2020-07-25T07:27:03Z</time>
      </trkpt>
      <trkpt lat="45.83474" lon="3.06464">
        <ele>480.79998779297</ele>
        <time>2020-07-25T07:27:07Z</time>
      </trkpt>
      <trkpt lat="45.8348" lon="3.06454">
        <ele>481.60000610352</ele>
        <time>2020-07-25T07:27:14Z</time>
      </trkpt>
      <trkpt lat="45.83483" lon="3.06449">
        <ele>482</ele>
        <time>2020-07-25T07:27:18Z</time>
      </trkpt>
      <trkpt lat="45.83486" lon="3.06445">
        <ele>482.20001220703</ele>
        <time>2020-07-25T07:27:21Z</time>
      </trkpt>
      <trkpt lat="45.83493" lon="3.0644">
        <ele>483</ele>
        <time>2020-07-25T07:27:27Z</time>
      </trkpt>
      <trkpt lat="45.83495" lon="3.06439">
        <ele>483</ele>
        <time>2020-07-25T07:27:28Z</time>
      </trkpt>
      <trkpt lat="45.83498" lon="3.06437">
        <ele>483.20001220703</ele>
        <time>2020-07-25T07:27:30Z</time>
      </trkpt>
      <trkpt lat="45.83501" lon="3.06432">
        <ele>483.39999389648</ele>
        <time>2020-07-25T07:27:33Z</time>
      </trkpt>
      <trkpt lat="45.83507" lon="3.06424">
        <ele>484</ele>
        <time>2020-07-25T07:27:38Z</time>
      </trkpt>
      <trkpt lat="45.83509" lon="3.0642">
        <ele>484.20001220703</ele>
        <time>2020-07-25T07:27:40Z</time>
      </trkpt>
      <trkpt lat="45.83519" lon="3.06404">
        <ele>485</ele>
        <time>2020-07-25T07:27:49Z</time>
      </trkpt>
      <trkpt lat="45.8352" lon="3.06401">
        <ele>485</ele>
        <time>2020-07-25T07:27:50Z</time>
      </trkpt>
      <trkpt lat="45.83524" lon="3.06391">
        <ele>485.39999389648</ele>
        <time>2020-07-25T07:27:55Z</time>
      </trkpt>
      <trkpt lat="45.83526" lon="3.06388">
        <ele>485.60000610352</ele>
        <time>2020-07-25T07:27:57Z</time>
      </trkpt>
      <trkpt lat="45.83531" lon="3.06379">
        <ele>485.79998779297</ele>
        <time>2020-07-25T07:28:01Z</time>
      </trkpt>
      <trkpt lat="45.83535" lon="3.06373">
        <ele>486</ele>
        <time>2020-07-25T07:28:04Z</time>
      </trkpt>
      <trkpt lat="45.83537" lon="3.0637">
        <ele>486</ele>
        <time>2020-07-25T07:28:05Z</time>
      </trkpt>
      <trkpt lat="45.83548" lon="3.06355">
        <ele>486.60000610352</ele>
        <time>2020-07-25T07:28:13Z</time>
      </trkpt>
      <trkpt lat="45.83555" lon="3.06346">
        <ele>487.20001220703</ele>
        <time>2020-07-25T07:28:18Z</time>
      </trkpt>
      <trkpt lat="45.8356" lon="3.06339">
        <ele>487.39999389648</ele>
        <time>2020-07-25T07:28:21Z</time>
      </trkpt>
      <trkpt lat="45.83568" lon="3.06323">
        <ele>488</ele>
        <time>2020-07-25T07:28:28Z</time>
      </trkpt>
      <trkpt lat="45.8357" lon="3.06319">
        <ele>488.39999389648</ele>
        <time>2020-07-25T07:28:30Z</time>
      </trkpt>
      <trkpt lat="45.83575" lon="3.0631">
        <ele>488.79998779297</ele>
        <time>2020-07-25T07:28:34Z</time>
      </trkpt>
      <trkpt lat="45.83579" lon="3.06302">
        <ele>489.39999389648</ele>
        <time>2020-07-25T07:28:38Z</time>
      </trkpt>
      <trkpt lat="45.8358" lon="3.06297">
        <ele>489.60000610352</ele>
        <time>2020-07-25T07:28:40Z</time>
      </trkpt>
      <trkpt lat="45.83584" lon="3.06283">
        <ele>490.39999389648</ele>
        <time>2020-07-25T07:28:46Z</time>
      </trkpt>
      <trkpt lat="45.83585" lon="3.06277">
        <ele>490.60000610352</ele>
        <time>2020-07-25T07:28:48Z</time>
      </trkpt>
      <trkpt lat="45.83587" lon="3.06261">
        <ele>491.79998779297</ele>
        <time>2020-07-25T07:28:54Z</time>
      </trkpt>
      <trkpt lat="45.83587" lon="3.06259">
        <ele>492</ele>
        <time>2020-07-25T07:28:55Z</time>
      </trkpt>
      <trkpt lat="45.83586" lon="3.06236">
        <ele>492.60000610352</ele>
        <time>2020-07-25T07:29:03Z</time>
      </trkpt>
      <trkpt lat="45.83586" lon="3.06228">
        <ele>492.60000610352</ele>
        <time>2020-07-25T07:29:06Z</time>
      </trkpt>
      <trkpt lat="45.83586" lon="3.06221">
        <ele>492.60000610352</ele>
        <time>2020-07-25T07:29:08Z</time>
      </trkpt>
      <trkpt lat="45.83585" lon="3.06195">
        <ele>492.60000610352</ele>
        <time>2020-07-25T07:29:15Z</time>
      </trkpt>
      <trkpt lat="45.83588" lon="3.0618">
        <ele>492.79998779297</ele>
        <time>2020-07-25T07:29:20Z</time>
      </trkpt>
      <trkpt lat="45.83589" lon="3.06177">
        <ele>493</ele>
        <time>2020-07-25T07:29:21Z</time>
      </trkpt>
      <trkpt lat="45.83595" lon="3.06167">
        <ele>494</ele>
        <time>2020-07-25T07:29:25Z</time>
      </trkpt>
      <trkpt lat="45.83598" lon="3.06166">
        <ele>494.20001220703</ele>
        <time>2020-07-25T07:29:26Z</time>
      </trkpt>
      <trkpt lat="45.83608" lon="3.06163">
        <ele>495.60000610352</ele>
        <time>2020-07-25T07:29:30Z</time>
      </trkpt>
      <trkpt lat="45.8361" lon="3.06162">
        <ele>495.79998779297</ele>
        <time>2020-07-25T07:29:31Z</time>
      </trkpt>
      <trkpt lat="45.83622" lon="3.06157">
        <ele>496.60000610352</ele>
        <time>2020-07-25T07:29:36Z</time>
      </trkpt>
      <trkpt lat="45.83625" lon="3.06156">
        <ele>497</ele>
        <time>2020-07-25T07:29:37Z</time>
      </trkpt>
      <trkpt lat="45.83632" lon="3.06153">
        <ele>497.79998779297</ele>
        <time>2020-07-25T07:29:40Z</time>
      </trkpt>
      <trkpt lat="45.83637" lon="3.06151">
        <ele>498.39999389648</ele>
        <time>2020-07-25T07:29:42Z</time>
      </trkpt>
      <trkpt lat="45.83643" lon="3.06148">
        <ele>498.79998779297</ele>
        <time>2020-07-25T07:29:45Z</time>
      </trkpt>
      <trkpt lat="45.8365" lon="3.06145">
        <ele>499.39999389648</ele>
        <time>2020-07-25T07:29:49Z</time>
      </trkpt>
      <trkpt lat="45.83659" lon="3.06145">
        <ele>500</ele>
        <time>2020-07-25T07:29:54Z</time>
      </trkpt>
      <trkpt lat="45.83663" lon="3.06143">
        <ele>500.20001220703</ele>
        <time>2020-07-25T07:29:56Z</time>
      </trkpt>
      <trkpt lat="45.83678" lon="3.06139">
        <ele>500.79998779297</ele>
        <time>2020-07-25T07:30:04Z</time>
      </trkpt>
      <trkpt lat="45.83682" lon="3.06137">
        <ele>501</ele>
        <time>2020-07-25T07:30:06Z</time>
      </trkpt>
      <trkpt lat="45.83689" lon="3.06132">
        <ele>501</ele>
        <time>2020-07-25T07:30:11Z</time>
      </trkpt>
      <trkpt lat="45.83702" lon="3.06121">
        <ele>501.20001220703</ele>
        <time>2020-07-25T07:30:20Z</time>
      </trkpt>
      <trkpt lat="45.83716" lon="3.06106">
        <ele>501.39999389648</ele>
        <time>2020-07-25T07:30:30Z</time>
      </trkpt>
      <trkpt lat="45.83725" lon="3.06096">
        <ele>501.60000610352</ele>
        <time>2020-07-25T07:30:37Z</time>
      </trkpt>
      <trkpt lat="45.83733" lon="3.06087">
        <ele>502</ele>
        <time>2020-07-25T07:30:43Z</time>
      </trkpt>
      <trkpt lat="45.83736" lon="3.06081">
        <ele>502.39999389648</ele>
        <time>2020-07-25T07:30:46Z</time>
      </trkpt>
      <trkpt lat="45.83743" lon="3.06071">
        <ele>503.20001220703</ele>
        <time>2020-07-25T07:30:52Z</time>
      </trkpt>
      <trkpt lat="45.83746" lon="3.06068">
        <ele>503.39999389648</ele>
        <time>2020-07-25T07:30:54Z</time>
      </trkpt>
      <trkpt lat="45.83757" lon="3.06055">
        <ele>504.20001220703</ele>
        <time>2020-07-25T07:31:02Z</time>
      </trkpt>
      <trkpt lat="45.83759" lon="3.06053">
        <ele>504.20001220703</ele>
        <time>2020-07-25T07:31:03Z</time>
      </trkpt>
      <trkpt lat="45.83768" lon="3.06044">
        <ele>504.60000610352</ele>
        <time>2020-07-25T07:31:10Z</time>
      </trkpt>
      <trkpt lat="45.83782" lon="3.06031">
        <ele>505</ele>
        <time>2020-07-25T07:31:17Z</time>
      </trkpt>
      <trkpt lat="45.83795" lon="3.0601">
        <ele>504.79998779297</ele>
        <time>2020-07-25T07:31:23Z</time>
      </trkpt>
      <trkpt lat="45.83812" lon="3.0598">
        <ele>504.79998779297</ele>
        <time>2020-07-25T07:31:32Z</time>
      </trkpt>
      <trkpt lat="45.83823" lon="3.05949">
        <ele>505.20001220703</ele>
        <time>2020-07-25T07:31:40Z</time>
      </trkpt>
      <trkpt lat="45.83826" lon="3.05941">
        <ele>505.20001220703</ele>
        <time>2020-07-25T07:31:42Z</time>
      </trkpt>
      <trkpt lat="45.83835" lon="3.05928">
        <ele>505.39999389648</ele>
        <time>2020-07-25T07:31:46Z</time>
      </trkpt>
      <trkpt lat="45.83856" lon="3.05911">
        <ele>505.60000610352</ele>
        <time>2020-07-25T07:31:53Z</time>
      </trkpt>
      <trkpt lat="45.83863" lon="3.05907">
        <ele>505.60000610352</ele>
        <time>2020-07-25T07:31:55Z</time>
      </trkpt>
      <trkpt lat="45.83883" lon="3.05898">
        <ele>505.79998779297</ele>
        <time>2020-07-25T07:32:01Z</time>
      </trkpt>
      <trkpt lat="45.83901" lon="3.05897">
        <ele>505.79998779297</ele>
        <time>2020-07-25T07:32:07Z</time>
      </trkpt>
      <trkpt lat="45.83923" lon="3.059">
        <ele>506</ele>
        <time>2020-07-25T07:32:13Z</time>
      </trkpt>
      <trkpt lat="45.83939" lon="3.05904">
        <ele>506.20001220703</ele>
        <time>2020-07-25T07:32:18Z</time>
      </trkpt>
      <trkpt lat="45.8395" lon="3.05905">
        <ele>506.60000610352</ele>
        <time>2020-07-25T07:32:21Z</time>
      </trkpt>
      <trkpt lat="45.83971" lon="3.05909">
        <ele>507.39999389648</ele>
        <time>2020-07-25T07:32:28Z</time>
      </trkpt>
      <trkpt lat="45.83999" lon="3.05918">
        <ele>508</ele>
        <time>2020-07-25T07:32:37Z</time>
      </trkpt>
      <trkpt lat="45.84024" lon="3.05916">
        <ele>508.20001220703</ele>
        <time>2020-07-25T07:32:45Z</time>
      </trkpt>
      <trkpt lat="45.84038" lon="3.05913">
        <ele>508.39999389648</ele>
        <time>2020-07-25T07:32:50Z</time>
      </trkpt>
      <trkpt lat="45.84044" lon="3.05912">
        <ele>508.60000610352</ele>
        <time>2020-07-25T07:32:52Z</time>
      </trkpt>
      <trkpt lat="45.84061" lon="3.05905">
        <ele>509.39999389648</ele>
        <time>2020-07-25T07:32:58Z</time>
      </trkpt>
      <trkpt lat="45.8408" lon="3.05887">
        <ele>510</ele>
        <time>2020-07-25T07:33:04Z</time>
      </trkpt>
      <trkpt lat="45.84088" lon="3.05882">
        <ele>510.60000610352</ele>
        <time>2020-07-25T07:33:07Z</time>
      </trkpt>
      <trkpt lat="45.84099" lon="3.05874">
        <ele>511.20001220703</ele>
        <time>2020-07-25T07:33:11Z</time>
      </trkpt>
      <trkpt lat="45.84115" lon="3.05863">
        <ele>511.79998779297</ele>
        <time>2020-07-25T07:33:17Z</time>
      </trkpt>
      <trkpt lat="45.84122" lon="3.05857">
        <ele>512.20001220703</ele>
        <time>2020-07-25T07:33:20Z</time>
      </trkpt>
      <trkpt lat="45.84143" lon="3.05838">
        <ele>512.79998779297</ele>
        <time>2020-07-25T07:33:29Z</time>
      </trkpt>
      <trkpt lat="45.84161" lon="3.05818">
        <ele>513.59997558594</ele>
        <time>2020-07-25T07:33:37Z</time>
      </trkpt>
      <trkpt lat="45.84168" lon="3.05811">
        <ele>513.79998779297</ele>
        <time>2020-07-25T07:33:40Z</time>
      </trkpt>
      <trkpt lat="45.84183" lon="3.05798">
        <ele>514.20001220703</ele>
        <time>2020-07-25T07:33:46Z</time>
      </trkpt>
      <trkpt lat="45.84207" lon="3.05779">
        <ele>514.40002441406</ele>
        <time>2020-07-25T07:33:55Z</time>
      </trkpt>
      <trkpt lat="45.84228" lon="3.05759">
        <ele>514.79998779297</ele>
        <time>2020-07-25T07:34:04Z</time>
      </trkpt>
      <trkpt lat="45.84247" lon="3.05739">
        <ele>515</ele>
        <time>2020-07-25T07:34:12Z</time>
      </trkpt>
      <trkpt lat="45.84271" lon="3.05716">
        <ele>514.20001220703</ele>
        <time>2020-07-25T07:34:21Z</time>
      </trkpt>
      <trkpt lat="45.84276" lon="3.05703">
        <ele>514.20001220703</ele>
        <time>2020-07-25T07:34:25Z</time>
      </trkpt>
      <trkpt lat="45.84275" lon="3.05686">
        <ele>514.40002441406</ele>
        <time>2020-07-25T07:34:29Z</time>
      </trkpt>
      <trkpt lat="45.84264" lon="3.05652">
        <ele>514.79998779297</ele>
        <time>2020-07-25T07:34:37Z</time>
      </trkpt>
      <trkpt lat="45.8425" lon="3.05608">
        <ele>515.59997558594</ele>
        <time>2020-07-25T07:34:48Z</time>
      </trkpt>
      <trkpt lat="45.84246" lon="3.05596">
        <ele>515.79998779297</ele>
        <time>2020-07-25T07:34:51Z</time>
      </trkpt>
      <trkpt lat="45.84235" lon="3.0556">
        <ele>516.79998779297</ele>
        <time>2020-07-25T07:35:00Z</time>
      </trkpt>
      <trkpt lat="45.84232" lon="3.05552">
        <ele>516.79998779297</ele>
        <time>2020-07-25T07:35:02Z</time>
      </trkpt>
      <trkpt lat="45.84219" lon="3.05507">
        <ele>517.59997558594</ele>
        <time>2020-07-25T07:35:13Z</time>
      </trkpt>
      <trkpt lat="45.84215" lon="3.05495">
        <ele>518</ele>
        <time>2020-07-25T07:35:16Z</time>
      </trkpt>
      <trkpt lat="45.84205" lon="3.05464">
        <ele>518.79998779297</ele>
        <time>2020-07-25T07:35:24Z</time>
      </trkpt>
      <trkpt lat="45.84201" lon="3.05452">
        <ele>519</ele>
        <time>2020-07-25T07:35:27Z</time>
      </trkpt>
      <trkpt lat="45.84199" lon="3.05444">
        <ele>519</ele>
        <time>2020-07-25T07:35:29Z</time>
      </trkpt>
      <trkpt lat="45.84193" lon="3.05424">
        <ele>519.40002441406</ele>
        <time>2020-07-25T07:35:34Z</time>
      </trkpt>
      <trkpt lat="45.84182" lon="3.0539">
        <ele>520</ele>
        <time>2020-07-25T07:35:43Z</time>
      </trkpt>
      <trkpt lat="45.8418" lon="3.05381">
        <ele>520.20001220703</ele>
        <time>2020-07-25T07:35:45Z</time>
      </trkpt>
      <trkpt lat="45.84168" lon="3.05344">
        <ele>520.79998779297</ele>
        <time>2020-07-25T07:35:55Z</time>
      </trkpt>
      <trkpt lat="45.84164" lon="3.05332">
        <ele>521</ele>
        <time>2020-07-25T07:35:58Z</time>
      </trkpt>
      <trkpt lat="45.84156" lon="3.05306">
        <ele>521.59997558594</ele>
        <time>2020-07-25T07:36:05Z</time>
      </trkpt>
      <trkpt lat="45.8415" lon="3.05281">
        <ele>522.20001220703</ele>
        <time>2020-07-25T07:36:11Z</time>
      </trkpt>
      <trkpt lat="45.84144" lon="3.05262">
        <ele>522.79998779297</ele>
        <time>2020-07-25T07:36:16Z</time>
      </trkpt>
      <trkpt lat="45.84139" lon="3.05241">
        <ele>523.20001220703</ele>
        <time>2020-07-25T07:36:21Z</time>
      </trkpt>
      <trkpt lat="45.84134" lon="3.05217">
        <ele>523.40002441406</ele>
        <time>2020-07-25T07:36:27Z</time>
      </trkpt>
      <trkpt lat="45.84128" lon="3.0518">
        <ele>523.79998779297</ele>
        <time>2020-07-25T07:36:36Z</time>
      </trkpt>
      <trkpt lat="45.84125" lon="3.05163">
        <ele>524.20001220703</ele>
        <time>2020-07-25T07:36:40Z</time>
      </trkpt>
      <trkpt lat="45.84122" lon="3.05142">
        <ele>524.59997558594</ele>
        <time>2020-07-25T07:36:45Z</time>
      </trkpt>
      <trkpt lat="45.84118" lon="3.051">
        <ele>525.40002441406</ele>
        <time>2020-07-25T07:36:55Z</time>
      </trkpt>
      <trkpt lat="45.84116" lon="3.05056">
        <ele>526.20001220703</ele>
        <time>2020-07-25T07:37:05Z</time>
      </trkpt>
      <trkpt lat="45.84116" lon="3.05047">
        <ele>526.40002441406</ele>
        <time>2020-07-25T07:37:07Z</time>
      </trkpt>
      <trkpt lat="45.84117" lon="3.05012">
        <ele>527</ele>
        <time>2020-07-25T07:37:15Z</time>
      </trkpt>
      <trkpt lat="45.84118" lon="3.04995">
        <ele>527.40002441406</ele>
        <time>2020-07-25T07:37:19Z</time>
      </trkpt>
      <trkpt lat="45.8412" lon="3.04963">
        <ele>528.20001220703</ele>
        <time>2020-07-25T07:37:26Z</time>
      </trkpt>
      <trkpt lat="45.84121" lon="3.04959">
        <ele>528.20001220703</ele>
        <time>2020-07-25T07:37:27Z</time>
      </trkpt>
      <trkpt lat="45.84122" lon="3.04945">
        <ele>528.40002441406</ele>
        <time>2020-07-25T07:37:30Z</time>
      </trkpt>
      <trkpt lat="45.84125" lon="3.04916">
        <ele>528.79998779297</ele>
        <time>2020-07-25T07:37:37Z</time>
      </trkpt>
      <trkpt lat="45.8413" lon="3.04889">
        <ele>529.59997558594</ele>
        <time>2020-07-25T07:37:43Z</time>
      </trkpt>
      <trkpt lat="45.84133" lon="3.04872">
        <ele>529.79998779297</ele>
        <time>2020-07-25T07:37:47Z</time>
      </trkpt>
      <trkpt lat="45.84143" lon="3.0483">
        <ele>530.59997558594</ele>
        <time>2020-07-25T07:37:57Z</time>
      </trkpt>
      <trkpt lat="45.84144" lon="3.04825">
        <ele>530.59997558594</ele>
        <time>2020-07-25T07:37:58Z</time>
      </trkpt>
      <trkpt lat="45.84153" lon="3.04788">
        <ele>531.20001220703</ele>
        <time>2020-07-25T07:38:07Z</time>
      </trkpt>
      <trkpt lat="45.84156" lon="3.0478">
        <ele>531.59997558594</ele>
        <time>2020-07-25T07:38:09Z</time>
      </trkpt>
      <trkpt lat="45.84163" lon="3.04756">
        <ele>532.20001220703</ele>
        <time>2020-07-25T07:38:15Z</time>
      </trkpt>
      <trkpt lat="45.8417" lon="3.04741">
        <ele>532.59997558594</ele>
        <time>2020-07-25T07:38:20Z</time>
      </trkpt>
      <trkpt lat="45.84174" lon="3.04737">
        <ele>532.79998779297</ele>
        <time>2020-07-25T07:38:22Z</time>
      </trkpt>
      <trkpt lat="45.8419" lon="3.04732">
        <ele>533</ele>
        <time>2020-07-25T07:38:28Z</time>
      </trkpt>
      <trkpt lat="45.84202" lon="3.04718">
        <ele>533.20001220703</ele>
        <time>2020-07-25T07:38:34Z</time>
      </trkpt>
      <trkpt lat="45.84205" lon="3.04706">
        <ele>533.79998779297</ele>
        <time>2020-07-25T07:38:38Z</time>
      </trkpt>
      <trkpt lat="45.84206" lon="3.04696">
        <ele>534.40002441406</ele>
        <time>2020-07-25T07:38:41Z</time>
      </trkpt>
      <trkpt lat="45.84204" lon="3.04685">
        <ele>534.79998779297</ele>
        <time>2020-07-25T07:38:44Z</time>
      </trkpt>
      <trkpt lat="45.842" lon="3.04675">
        <ele>535.20001220703</ele>
        <time>2020-07-25T07:38:47Z</time>
      </trkpt>
      <trkpt lat="45.84188" lon="3.04665">
        <ele>535.40002441406</ele>
        <time>2020-07-25T07:38:52Z</time>
      </trkpt>
      <trkpt lat="45.8418" lon="3.04662">
        <ele>535.79998779297</ele>
        <time>2020-07-25T07:38:55Z</time>
      </trkpt>
      <trkpt lat="45.84169" lon="3.04653">
        <ele>535.79998779297</ele>
        <time>2020-07-25T07:38:59Z</time>
      </trkpt>
      <trkpt lat="45.84165" lon="3.04638">
        <ele>535.79998779297</ele>
        <time>2020-07-25T07:39:03Z</time>
      </trkpt>
      <trkpt lat="45.84154" lon="3.04606">
        <ele>536.20001220703</ele>
        <time>2020-07-25T07:39:12Z</time>
      </trkpt>
      <trkpt lat="45.84148" lon="3.04588">
        <ele>537</ele>
        <time>2020-07-25T07:39:18Z</time>
      </trkpt>
      <trkpt lat="45.84147" lon="3.04585">
        <ele>537.20001220703</ele>
        <time>2020-07-25T07:39:19Z</time>
      </trkpt>
      <trkpt lat="45.84145" lon="3.04574">
        <ele>538</ele>
        <time>2020-07-25T07:39:23Z</time>
      </trkpt>
      <trkpt lat="45.84144" lon="3.04562">
        <ele>538.20001220703</ele>
        <time>2020-07-25T07:39:27Z</time>
      </trkpt>
      <trkpt lat="45.84146" lon="3.04543">
        <ele>539</ele>
        <time>2020-07-25T07:39:34Z</time>
      </trkpt>
      <trkpt lat="45.84147" lon="3.04541">
        <ele>539</ele>
        <time>2020-07-25T07:39:35Z</time>
      </trkpt>
      <trkpt lat="45.84154" lon="3.04515">
        <ele>540</ele>
        <time>2020-07-25T07:39:45Z</time>
      </trkpt>
      <trkpt lat="45.84157" lon="3.045">
        <ele>540</ele>
        <time>2020-07-25T07:39:50Z</time>
      </trkpt>
      <trkpt lat="45.84161" lon="3.04489">
        <ele>540.20001220703</ele>
        <time>2020-07-25T07:39:54Z</time>
      </trkpt>
      <trkpt lat="45.84168" lon="3.04468">
        <ele>540.59997558594</ele>
        <time>2020-07-25T07:40:02Z</time>
      </trkpt>
      <trkpt lat="45.84171" lon="3.04451">
        <ele>541</ele>
        <time>2020-07-25T07:40:08Z</time>
      </trkpt>
      <trkpt lat="45.84172" lon="3.04445">
        <ele>541.20001220703</ele>
        <time>2020-07-25T07:40:10Z</time>
      </trkpt>
      <trkpt lat="45.84175" lon="3.04423">
        <ele>541.59997558594</ele>
        <time>2020-07-25T07:40:17Z</time>
      </trkpt>
      <trkpt lat="45.84175" lon="3.04402">
        <ele>542</ele>
        <time>2020-07-25T07:40:24Z</time>
      </trkpt>
      <trkpt lat="45.84174" lon="3.04377">
        <ele>543.20001220703</ele>
        <time>2020-07-25T07:40:33Z</time>
      </trkpt>
      <trkpt lat="45.84173" lon="3.04356">
        <ele>544.20001220703</ele>
        <time>2020-07-25T07:40:41Z</time>
      </trkpt>
      <trkpt lat="45.84172" lon="3.04353">
        <ele>544.20001220703</ele>
        <time>2020-07-25T07:40:42Z</time>
      </trkpt>
      <trkpt lat="45.8417" lon="3.04339">
        <ele>545</ele>
        <time>2020-07-25T07:40:48Z</time>
      </trkpt>
      <trkpt lat="45.84168" lon="3.04335">
        <ele>545.20001220703</ele>
        <time>2020-07-25T07:40:50Z</time>
      </trkpt>
      <trkpt lat="45.84164" lon="3.04327">
        <ele>546</ele>
        <time>2020-07-25T07:40:54Z</time>
      </trkpt>
      <trkpt lat="45.84163" lon="3.04324">
        <ele>546.20001220703</ele>
        <time>2020-07-25T07:40:56Z</time>
      </trkpt>
      <trkpt lat="45.84157" lon="3.04315">
        <ele>547.20001220703</ele>
        <time>2020-07-25T07:41:02Z</time>
      </trkpt>
      <trkpt lat="45.84148" lon="3.04304">
        <ele>548.40002441406</ele>
        <time>2020-07-25T07:41:10Z</time>
      </trkpt>
      <trkpt lat="45.84147" lon="3.04303">
        <ele>548.59997558594</ele>
        <time>2020-07-25T07:41:11Z</time>
      </trkpt>
      <trkpt lat="45.84138" lon="3.04294">
        <ele>549.59997558594</ele>
        <time>2020-07-25T07:41:19Z</time>
      </trkpt>
      <trkpt lat="45.84136" lon="3.04292">
        <ele>549.79998779297</ele>
        <time>2020-07-25T07:41:21Z</time>
      </trkpt>
      <trkpt lat="45.84125" lon="3.04285">
        <ele>550.59997558594</ele>
        <time>2020-07-25T07:41:30Z</time>
      </trkpt>
      <trkpt lat="45.84124" lon="3.04284">
        <ele>550.79998779297</ele>
        <time>2020-07-25T07:41:31Z</time>
      </trkpt>
      <trkpt lat="45.84115" lon="3.04282">
        <ele>551.59997558594</ele>
        <time>2020-07-25T07:41:38Z</time>
      </trkpt>
      <trkpt lat="45.84114" lon="3.04282">
        <ele>551.59997558594</ele>
        <time>2020-07-25T07:41:39Z</time>
      </trkpt>
      <trkpt lat="45.84104" lon="3.04276">
        <ele>552.79998779297</ele>
        <time>2020-07-25T07:41:47Z</time>
      </trkpt>
      <trkpt lat="45.84094" lon="3.04273">
        <ele>553.59997558594</ele>
        <time>2020-07-25T07:41:56Z</time>
      </trkpt>
      <trkpt lat="45.84092" lon="3.04273">
        <ele>553.79998779297</ele>
        <time>2020-07-25T07:41:57Z</time>
      </trkpt>
      <trkpt lat="45.84082" lon="3.04272">
        <ele>554.59997558594</ele>
        <time>2020-07-25T07:42:05Z</time>
      </trkpt>
      <trkpt lat="45.84078" lon="3.04272">
        <ele>555</ele>
        <time>2020-07-25T07:42:08Z</time>
      </trkpt>
      <trkpt lat="45.84071" lon="3.04274">
        <ele>555.40002441406</ele>
        <time>2020-07-25T07:42:13Z</time>
      </trkpt>
      <trkpt lat="45.84066" lon="3.04276">
        <ele>556</ele>
        <time>2020-07-25T07:42:17Z</time>
      </trkpt>
      <trkpt lat="45.84056" lon="3.04278">
        <ele>556.79998779297</ele>
        <time>2020-07-25T07:42:24Z</time>
      </trkpt>
      <trkpt lat="45.84055" lon="3.04278">
        <ele>557</ele>
        <time>2020-07-25T07:42:25Z</time>
      </trkpt>
      <trkpt lat="45.84049" lon="3.04271">
        <ele>557.59997558594</ele>
        <time>2020-07-25T07:42:31Z</time>
      </trkpt>
      <trkpt lat="45.84053" lon="3.04266">
        <ele>558</ele>
        <time>2020-07-25T07:42:34Z</time>
      </trkpt>
      <trkpt lat="45.84054" lon="3.04264">
        <ele>558</ele>
        <time>2020-07-25T07:42:35Z</time>
      </trkpt>
      <trkpt lat="45.84055" lon="3.04263">
        <ele>558.20001220703</ele>
        <time>2020-07-25T07:42:36Z</time>
      </trkpt>
      <trkpt lat="45.84063" lon="3.04251">
        <ele>559.20001220703</ele>
        <time>2020-07-25T07:42:45Z</time>
      </trkpt>
      <trkpt lat="45.8407" lon="3.04237">
        <ele>560.20001220703</ele>
        <time>2020-07-25T07:42:54Z</time>
      </trkpt>
      <trkpt lat="45.84071" lon="3.04236">
        <ele>560.40002441406</ele>
        <time>2020-07-25T07:42:55Z</time>
      </trkpt>
      <trkpt lat="45.84076" lon="3.04219">
        <ele>561.20001220703</ele>
        <time>2020-07-25T07:43:04Z</time>
      </trkpt>
      <trkpt lat="45.84076" lon="3.04217">
        <ele>561.40002441406</ele>
        <time>2020-07-25T07:43:05Z</time>
      </trkpt>
      <trkpt lat="45.84079" lon="3.04201">
        <ele>562.20001220703</ele>
        <time>2020-07-25T07:43:14Z</time>
      </trkpt>
      <trkpt lat="45.8408" lon="3.04199">
        <ele>562.40002441406</ele>
        <time>2020-07-25T07:43:15Z</time>
      </trkpt>
      <trkpt lat="45.84077" lon="3.04182">
        <ele>563.20001220703</ele>
        <time>2020-07-25T07:43:23Z</time>
      </trkpt>
      <trkpt lat="45.84076" lon="3.0418">
        <ele>563.20001220703</ele>
        <time>2020-07-25T07:43:24Z</time>
      </trkpt>
      <trkpt lat="45.84075" lon="3.04179">
        <ele>563.20001220703</ele>
        <time>2020-07-25T07:43:25Z</time>
      </trkpt>
      <trkpt lat="45.84071" lon="3.04173">
        <ele>563.59997558594</ele>
        <time>2020-07-25T07:43:29Z</time>
      </trkpt>
      <trkpt lat="45.8407" lon="3.04172">
        <ele>563.79998779297</ele>
        <time>2020-07-25T07:43:30Z</time>
      </trkpt>
      <trkpt lat="45.84064" lon="3.04161">
        <ele>564.40002441406</ele>
        <time>2020-07-25T07:43:37Z</time>
      </trkpt>
      <trkpt lat="45.84061" lon="3.04157">
        <ele>564.40002441406</ele>
        <time>2020-07-25T07:43:40Z</time>
      </trkpt>
      <trkpt lat="45.84051" lon="3.04149">
        <ele>565</ele>
        <time>2020-07-25T07:43:47Z</time>
      </trkpt>
      <trkpt lat="45.84046" lon="3.04144">
        <ele>565.20001220703</ele>
        <time>2020-07-25T07:43:53Z</time>
      </trkpt>
      <trkpt lat="45.84046" lon="3.04144">
        <ele>565.40002441406</ele>
        <time>2020-07-25T07:43:54Z</time>
      </trkpt>
      <trkpt lat="45.84046" lon="3.04144">
        <ele>565.59997558594</ele>
        <time>2020-07-25T07:44:00Z</time>
      </trkpt>
      <trkpt lat="45.84046" lon="3.04144">
        <ele>565.59997558594</ele>
        <time>2020-07-25T07:44:10Z</time>
      </trkpt>
      <trkpt lat="45.84046" lon="3.04144">
        <ele>565.59997558594</ele>
        <time>2020-07-25T07:44:19Z</time>
      </trkpt>
      <trkpt lat="45.84046" lon="3.04143">
        <ele>565.40002441406</ele>
        <time>2020-07-25T07:44:32Z</time>
      </trkpt>
      <trkpt lat="45.84046" lon="3.04143">
        <ele>564.79998779297</ele>
        <time>2020-07-25T07:44:40Z</time>
      </trkpt>
      <trkpt lat="45.84046" lon="3.04143">
        <ele>564.59997558594</ele>
        <time>2020-07-25T07:45:01Z</time>
      </trkpt>
      <trkpt lat="45.84045" lon="3.04143">
        <ele>564.79998779297</ele>
        <time>2020-07-25T07:45:23Z</time>
      </trkpt>
      <trkpt lat="45.84045" lon="3.04143">
        <ele>564.79998779297</ele>
        <time>2020-07-25T07:45:39Z</time>
      </trkpt>
      <trkpt lat="45.84045" lon="3.04143">
        <ele>565.40002441406</ele>
        <time>2020-07-25T07:45:51Z</time>
      </trkpt>
      <trkpt lat="45.84045" lon="3.04143">
        <ele>565.40002441406</ele>
        <time>2020-07-25T07:45:57Z</time>
      </trkpt>
      <trkpt lat="45.84044" lon="3.0414">
        <ele>565.40002441406</ele>
        <time>2020-07-25T07:46:00Z</time>
      </trkpt>
      <trkpt lat="45.84043" lon="3.04136">
        <ele>565.40002441406</ele>
        <time>2020-07-25T07:46:02Z</time>
      </trkpt>
      <trkpt lat="45.8404" lon="3.0412">
        <ele>565.40002441406</ele>
        <time>2020-07-25T07:46:08Z</time>
      </trkpt>
      <trkpt lat="45.84034" lon="3.04098">
        <ele>565.79998779297</ele>
        <time>2020-07-25T07:46:17Z</time>
      </trkpt>
      <trkpt lat="45.84028" lon="3.04078">
        <ele>565.79998779297</ele>
        <time>2020-07-25T07:46:25Z</time>
      </trkpt>
      <trkpt lat="45.84023" lon="3.04062">
        <ele>566.20001220703</ele>
        <time>2020-07-25T07:46:32Z</time>
      </trkpt>
      <trkpt lat="45.84021" lon="3.04051">
        <ele>566.40002441406</ele>
        <time>2020-07-25T07:46:36Z</time>
      </trkpt>
      <trkpt lat="45.8402" lon="3.04044">
        <ele>566.59997558594</ele>
        <time>2020-07-25T07:46:39Z</time>
      </trkpt>
      <trkpt lat="45.84016" lon="3.04028">
        <ele>567</ele>
        <time>2020-07-25T07:46:45Z</time>
      </trkpt>
      <trkpt lat="45.84014" lon="3.04013">
        <ele>567.40002441406</ele>
        <time>2020-07-25T07:46:50Z</time>
      </trkpt>
      <trkpt lat="45.84013" lon="3.04008">
        <ele>567.59997558594</ele>
        <time>2020-07-25T07:46:52Z</time>
      </trkpt>
      <trkpt lat="45.84008" lon="3.03983">
        <ele>568.20001220703</ele>
        <time>2020-07-25T07:47:01Z</time>
      </trkpt>
      <trkpt lat="45.84007" lon="3.03973">
        <ele>568.40002441406</ele>
        <time>2020-07-25T07:47:05Z</time>
      </trkpt>
      <trkpt lat="45.84006" lon="3.03956">
        <ele>568.79998779297</ele>
        <time>2020-07-25T07:47:11Z</time>
      </trkpt>
      <trkpt lat="45.84006" lon="3.03942">
        <ele>569.59997558594</ele>
        <time>2020-07-25T07:47:17Z</time>
      </trkpt>
      <trkpt lat="45.84005" lon="3.03931">
        <ele>570.20001220703</ele>
        <time>2020-07-25T07:47:22Z</time>
      </trkpt>
      <trkpt lat="45.84003" lon="3.03926">
        <ele>570.79998779297</ele>
        <time>2020-07-25T07:47:25Z</time>
      </trkpt>
      <trkpt lat="45.83999" lon="3.03921">
        <ele>571.40002441406</ele>
        <time>2020-07-25T07:47:29Z</time>
      </trkpt>
      <trkpt lat="45.83997" lon="3.03919">
        <ele>571.79998779297</ele>
        <time>2020-07-25T07:47:31Z</time>
      </trkpt>
      <trkpt lat="45.83992" lon="3.03917">
        <ele>572.20001220703</ele>
        <time>2020-07-25T07:47:34Z</time>
      </trkpt>
      <trkpt lat="45.83991" lon="3.03918">
        <ele>572.40002441406</ele>
        <time>2020-07-25T07:47:35Z</time>
      </trkpt>
      <trkpt lat="45.83988" lon="3.03916">
        <ele>572.79998779297</ele>
        <time>2020-07-25T07:47:38Z</time>
      </trkpt>
      <trkpt lat="45.83982" lon="3.03912">
        <ele>573.79998779297</ele>
        <time>2020-07-25T07:47:43Z</time>
      </trkpt>
      <trkpt lat="45.83982" lon="3.03909">
        <ele>574</ele>
        <time>2020-07-25T07:47:44Z</time>
      </trkpt>
      <trkpt lat="45.8398" lon="3.03905">
        <ele>574.59997558594</ele>
        <time>2020-07-25T07:47:47Z</time>
      </trkpt>
      <trkpt lat="45.83978" lon="3.039">
        <ele>575</ele>
        <time>2020-07-25T07:47:50Z</time>
      </trkpt>
      <trkpt lat="45.83977" lon="3.03899">
        <ele>575.20001220703</ele>
        <time>2020-07-25T07:47:51Z</time>
      </trkpt>
      <trkpt lat="45.83975" lon="3.03894">
        <ele>575.40002441406</ele>
        <time>2020-07-25T07:47:54Z</time>
      </trkpt>
      <trkpt lat="45.83974" lon="3.03885">
        <ele>576.20001220703</ele>
        <time>2020-07-25T07:48:00Z</time>
      </trkpt>
      <trkpt lat="45.83974" lon="3.03881">
        <ele>576.40002441406</ele>
        <time>2020-07-25T07:48:02Z</time>
      </trkpt>
      <trkpt lat="45.83976" lon="3.03867">
        <ele>577.20001220703</ele>
        <time>2020-07-25T07:48:09Z</time>
      </trkpt>
      <trkpt lat="45.83976" lon="3.03863">
        <ele>577.20001220703</ele>
        <time>2020-07-25T07:48:11Z</time>
      </trkpt>
      <trkpt lat="45.83977" lon="3.03859">
        <ele>577.40002441406</ele>
        <time>2020-07-25T07:48:13Z</time>
      </trkpt>
      <trkpt lat="45.83977" lon="3.03853">
        <ele>577.79998779297</ele>
        <time>2020-07-25T07:48:16Z</time>
      </trkpt>
      <trkpt lat="45.83978" lon="3.03844">
        <ele>578.20001220703</ele>
        <time>2020-07-25T07:48:20Z</time>
      </trkpt>
      <trkpt lat="45.83978" lon="3.03842">
        <ele>578.20001220703</ele>
        <time>2020-07-25T07:48:21Z</time>
      </trkpt>
      <trkpt lat="45.83978" lon="3.03834">
        <ele>578.59997558594</ele>
        <time>2020-07-25T07:48:25Z</time>
      </trkpt>
      <trkpt lat="45.83979" lon="3.03819">
        <ele>579.20001220703</ele>
        <time>2020-07-25T07:48:32Z</time>
      </trkpt>
      <trkpt lat="45.83978" lon="3.03817">
        <ele>579.40002441406</ele>
        <time>2020-07-25T07:48:33Z</time>
      </trkpt>
      <trkpt lat="45.83979" lon="3.03803">
        <ele>580.20001220703</ele>
        <time>2020-07-25T07:48:40Z</time>
      </trkpt>
      <trkpt lat="45.83979" lon="3.038">
        <ele>580.20001220703</ele>
        <time>2020-07-25T07:48:42Z</time>
      </trkpt>
      <trkpt lat="45.83983" lon="3.03789">
        <ele>581</ele>
        <time>2020-07-25T07:48:48Z</time>
      </trkpt>
      <trkpt lat="45.83986" lon="3.03781">
        <ele>581.20001220703</ele>
        <time>2020-07-25T07:48:52Z</time>
      </trkpt>
      <trkpt lat="45.83986" lon="3.03779">
        <ele>581.40002441406</ele>
        <time>2020-07-25T07:48:53Z</time>
      </trkpt>
      <trkpt lat="45.83988" lon="3.03775">
        <ele>581.40002441406</ele>
        <time>2020-07-25T07:48:55Z</time>
      </trkpt>
      <trkpt lat="45.8399" lon="3.03762">
        <ele>582.20001220703</ele>
        <time>2020-07-25T07:49:02Z</time>
      </trkpt>
      <trkpt lat="45.8399" lon="3.03759">
        <ele>582.20001220703</ele>
        <time>2020-07-25T07:49:03Z</time>
      </trkpt>
      <trkpt lat="45.83991" lon="3.03758">
        <ele>582.40002441406</ele>
        <time>2020-07-25T07:49:04Z</time>
      </trkpt>
      <trkpt lat="45.83992" lon="3.03752">
        <ele>582.59997558594</ele>
        <time>2020-07-25T07:49:07Z</time>
      </trkpt>
      <trkpt lat="45.83993" lon="3.0375">
        <ele>582.59997558594</ele>
        <time>2020-07-25T07:49:08Z</time>
      </trkpt>
      <trkpt lat="45.83999" lon="3.0374">
        <ele>583</ele>
        <time>2020-07-25T07:49:15Z</time>
      </trkpt>
      <trkpt lat="45.84003" lon="3.03732">
        <ele>583.40002441406</ele>
        <time>2020-07-25T07:49:19Z</time>
      </trkpt>
      <trkpt lat="45.84005" lon="3.03728">
        <ele>583.59997558594</ele>
        <time>2020-07-25T07:49:22Z</time>
      </trkpt>
      <trkpt lat="45.84009" lon="3.03719">
        <ele>584.20001220703</ele>
        <time>2020-07-25T07:49:27Z</time>
      </trkpt>
      <trkpt lat="45.84011" lon="3.03714">
        <ele>584.40002441406</ele>
        <time>2020-07-25T07:49:30Z</time>
      </trkpt>
      <trkpt lat="45.84012" lon="3.03712">
        <ele>584.40002441406</ele>
        <time>2020-07-25T07:49:31Z</time>
      </trkpt>
      <trkpt lat="45.84017" lon="3.03704">
        <ele>585.20001220703</ele>
        <time>2020-07-25T07:49:37Z</time>
      </trkpt>
      <trkpt lat="45.8402" lon="3.03699">
        <ele>585.59997558594</ele>
        <time>2020-07-25T07:49:40Z</time>
      </trkpt>
      <trkpt lat="45.84029" lon="3.03684">
        <ele>586.40002441406</ele>
        <time>2020-07-25T07:49:49Z</time>
      </trkpt>
      <trkpt lat="45.8403" lon="3.0368">
        <ele>586.59997558594</ele>
        <time>2020-07-25T07:49:51Z</time>
      </trkpt>
      <trkpt lat="45.84032" lon="3.03673">
        <ele>587</ele>
        <time>2020-07-25T07:49:55Z</time>
      </trkpt>
      <trkpt lat="45.84033" lon="3.0367">
        <ele>587.20001220703</ele>
        <time>2020-07-25T07:49:56Z</time>
      </trkpt>
      <trkpt lat="45.84034" lon="3.03665">
        <ele>587.40002441406</ele>
        <time>2020-07-25T07:49:59Z</time>
      </trkpt>
      <trkpt lat="45.84036" lon="3.03661">
        <ele>587.79998779297</ele>
        <time>2020-07-25T07:50:01Z</time>
      </trkpt>
      <trkpt lat="45.84037" lon="3.03658">
        <ele>588</ele>
        <time>2020-07-25T07:50:03Z</time>
      </trkpt>
      <trkpt lat="45.84039" lon="3.03652">
        <ele>588.40002441406</ele>
        <time>2020-07-25T07:50:06Z</time>
      </trkpt>
      <trkpt lat="45.8404" lon="3.03648">
        <ele>588.79998779297</ele>
        <time>2020-07-25T07:50:08Z</time>
      </trkpt>
      <trkpt lat="45.84044" lon="3.03641">
        <ele>589.20001220703</ele>
        <time>2020-07-25T07:50:12Z</time>
      </trkpt>
      <trkpt lat="45.84048" lon="3.03632">
        <ele>589.79998779297</ele>
        <time>2020-07-25T07:50:17Z</time>
      </trkpt>
      <trkpt lat="45.84049" lon="3.0363">
        <ele>590</ele>
        <time>2020-07-25T07:50:18Z</time>
      </trkpt>
      <trkpt lat="45.84055" lon="3.03615">
        <ele>590.79998779297</ele>
        <time>2020-07-25T07:50:26Z</time>
      </trkpt>
      <trkpt lat="45.84056" lon="3.03613">
        <ele>591</ele>
        <time>2020-07-25T07:50:27Z</time>
      </trkpt>
      <trkpt lat="45.84061" lon="3.03602">
        <ele>591.79998779297</ele>
        <time>2020-07-25T07:50:33Z</time>
      </trkpt>
      <trkpt lat="45.84061" lon="3.036">
        <ele>592</ele>
        <time>2020-07-25T07:50:34Z</time>
      </trkpt>
      <trkpt lat="45.84065" lon="3.0359">
        <ele>592.79998779297</ele>
        <time>2020-07-25T07:50:40Z</time>
      </trkpt>
      <trkpt lat="45.84066" lon="3.03587">
        <ele>593</ele>
        <time>2020-07-25T07:50:42Z</time>
      </trkpt>
      <trkpt lat="45.84069" lon="3.03572">
        <ele>593.79998779297</ele>
        <time>2020-07-25T07:50:48Z</time>
      </trkpt>
      <trkpt lat="45.84071" lon="3.03566">
        <ele>594.20001220703</ele>
        <time>2020-07-25T07:50:51Z</time>
      </trkpt>
      <trkpt lat="45.84073" lon="3.03556">
        <ele>595.40002441406</ele>
        <time>2020-07-25T07:50:56Z</time>
      </trkpt>
      <trkpt lat="45.84078" lon="3.03545">
        <ele>596.59997558594</ele>
        <time>2020-07-25T07:51:03Z</time>
      </trkpt>
      <trkpt lat="45.84078" lon="3.03543">
        <ele>596.59997558594</ele>
        <time>2020-07-25T07:51:04Z</time>
      </trkpt>
      <trkpt lat="45.84084" lon="3.03533">
        <ele>597.20001220703</ele>
        <time>2020-07-25T07:51:11Z</time>
      </trkpt>
      <trkpt lat="45.84087" lon="3.0353">
        <ele>597.59997558594</ele>
        <time>2020-07-25T07:51:14Z</time>
      </trkpt>
      <trkpt lat="45.8409" lon="3.03523">
        <ele>597.79998779297</ele>
        <time>2020-07-25T07:51:18Z</time>
      </trkpt>
      <trkpt lat="45.84095" lon="3.03515">
        <ele>598.59997558594</ele>
        <time>2020-07-25T07:51:23Z</time>
      </trkpt>
      <trkpt lat="45.84097" lon="3.03512">
        <ele>598.79998779297</ele>
        <time>2020-07-25T07:51:25Z</time>
      </trkpt>
      <trkpt lat="45.84099" lon="3.03509">
        <ele>599.20001220703</ele>
        <time>2020-07-25T07:51:30Z</time>
      </trkpt>
      <trkpt lat="45.84099" lon="3.03509">
        <ele>599.40002441406</ele>
        <time>2020-07-25T07:51:42Z</time>
      </trkpt>
      <trkpt lat="45.84099" lon="3.03509">
        <ele>599.40002441406</ele>
        <time>2020-07-25T07:52:00Z</time>
      </trkpt>
      <trkpt lat="45.84098" lon="3.03509">
        <ele>599.40002441406</ele>
        <time>2020-07-25T07:52:21Z</time>
      </trkpt>
      <trkpt lat="45.84098" lon="3.03509">
        <ele>599.20001220703</ele>
        <time>2020-07-25T07:52:42Z</time>
      </trkpt>
      <trkpt lat="45.84098" lon="3.03507">
        <ele>599.20001220703</ele>
        <time>2020-07-25T07:52:57Z</time>
      </trkpt>
      <trkpt lat="45.84098" lon="3.03507">
        <ele>599.20001220703</ele>
        <time>2020-07-25T07:53:08Z</time>
      </trkpt>
      <trkpt lat="45.84099" lon="3.03506">
        <ele>599.20001220703</ele>
        <time>2020-07-25T07:53:18Z</time>
      </trkpt>
      <trkpt lat="45.841" lon="3.03504">
        <ele>599.20001220703</ele>
        <time>2020-07-25T07:53:19Z</time>
      </trkpt>
      <trkpt lat="45.84103" lon="3.03493">
        <ele>599</ele>
        <time>2020-07-25T07:53:23Z</time>
      </trkpt>
      <trkpt lat="45.84107" lon="3.03473">
        <ele>599.40002441406</ele>
        <time>2020-07-25T07:53:31Z</time>
      </trkpt>
      <trkpt lat="45.84108" lon="3.03459">
        <ele>599.79998779297</ele>
        <time>2020-07-25T07:53:37Z</time>
      </trkpt>
      <trkpt lat="45.84108" lon="3.03454">
        <ele>600</ele>
        <time>2020-07-25T07:53:39Z</time>
      </trkpt>
      <trkpt lat="45.84108" lon="3.03437">
        <ele>600.79998779297</ele>
        <time>2020-07-25T07:53:46Z</time>
      </trkpt>
      <trkpt lat="45.84107" lon="3.03419">
        <ele>602</ele>
        <time>2020-07-25T07:53:53Z</time>
      </trkpt>
      <trkpt lat="45.84107" lon="3.03417">
        <ele>602</ele>
        <time>2020-07-25T07:53:54Z</time>
      </trkpt>
      <trkpt lat="45.84107" lon="3.03403">
        <ele>603</ele>
        <time>2020-07-25T07:54:01Z</time>
      </trkpt>
      <trkpt lat="45.84107" lon="3.03385">
        <ele>603.79998779297</ele>
        <time>2020-07-25T07:54:10Z</time>
      </trkpt>
      <trkpt lat="45.84108" lon="3.03371">
        <ele>604</ele>
        <time>2020-07-25T07:54:17Z</time>
      </trkpt>
      <trkpt lat="45.8411" lon="3.03356">
        <ele>604.59997558594</ele>
        <time>2020-07-25T07:54:24Z</time>
      </trkpt>
      <trkpt lat="45.84112" lon="3.03349">
        <ele>605.20001220703</ele>
        <time>2020-07-25T07:54:28Z</time>
      </trkpt>
      <trkpt lat="45.84114" lon="3.03341">
        <ele>606</ele>
        <time>2020-07-25T07:54:32Z</time>
      </trkpt>
      <trkpt lat="45.84117" lon="3.03334">
        <ele>606.20001220703</ele>
        <time>2020-07-25T07:54:36Z</time>
      </trkpt>
      <trkpt lat="45.84121" lon="3.03325">
        <ele>606.59997558594</ele>
        <time>2020-07-25T07:54:41Z</time>
      </trkpt>
      <trkpt lat="45.84126" lon="3.03313">
        <ele>607.20001220703</ele>
        <time>2020-07-25T07:54:47Z</time>
      </trkpt>
      <trkpt lat="45.84128" lon="3.03306">
        <ele>607.59997558594</ele>
        <time>2020-07-25T07:54:50Z</time>
      </trkpt>
      <trkpt lat="45.84134" lon="3.03296">
        <ele>608.40002441406</ele>
        <time>2020-07-25T07:54:56Z</time>
      </trkpt>
      <trkpt lat="45.84135" lon="3.03292">
        <ele>608.59997558594</ele>
        <time>2020-07-25T07:54:58Z</time>
      </trkpt>
      <trkpt lat="45.84139" lon="3.0328">
        <ele>609.40002441406</ele>
        <time>2020-07-25T07:55:05Z</time>
      </trkpt>
      <trkpt lat="45.8414" lon="3.03273">
        <ele>609.79998779297</ele>
        <time>2020-07-25T07:55:08Z</time>
      </trkpt>
      <trkpt lat="45.84144" lon="3.03262">
        <ele>610.40002441406</ele>
        <time>2020-07-25T07:55:15Z</time>
      </trkpt>
      <trkpt lat="45.8415" lon="3.0325">
        <ele>611.20001220703</ele>
        <time>2020-07-25T07:55:23Z</time>
      </trkpt>
      <trkpt lat="45.84151" lon="3.03246">
        <ele>611.59997558594</ele>
        <time>2020-07-25T07:55:26Z</time>
      </trkpt>
      <trkpt lat="45.84155" lon="3.03237">
        <ele>612.20001220703</ele>
        <time>2020-07-25T07:55:31Z</time>
      </trkpt>
      <trkpt lat="45.84155" lon="3.03235">
        <ele>612.20001220703</ele>
        <time>2020-07-25T07:55:32Z</time>
      </trkpt>
      <trkpt lat="45.84156" lon="3.0323">
        <ele>612.79998779297</ele>
        <time>2020-07-25T07:55:35Z</time>
      </trkpt>
      <trkpt lat="45.84157" lon="3.03225">
        <ele>613.20001220703</ele>
        <time>2020-07-25T07:55:38Z</time>
      </trkpt>
      <trkpt lat="45.84157" lon="3.03221">
        <ele>613.40002441406</ele>
        <time>2020-07-25T07:55:40Z</time>
      </trkpt>
      <trkpt lat="45.84158" lon="3.03216">
        <ele>613.79998779297</ele>
        <time>2020-07-25T07:55:43Z</time>
      </trkpt>
      <trkpt lat="45.84157" lon="3.03205">
        <ele>615</ele>
        <time>2020-07-25T07:55:49Z</time>
      </trkpt>
      <trkpt lat="45.84157" lon="3.03203">
        <ele>615</ele>
        <time>2020-07-25T07:55:50Z</time>
      </trkpt>
      <trkpt lat="45.84157" lon="3.03192">
        <ele>616</ele>
        <time>2020-07-25T07:55:55Z</time>
      </trkpt>
      <trkpt lat="45.84157" lon="3.03186">
        <ele>616.59997558594</ele>
        <time>2020-07-25T07:55:58Z</time>
      </trkpt>
      <trkpt lat="45.84154" lon="3.03176">
        <ele>617.20001220703</ele>
        <time>2020-07-25T07:56:03Z</time>
      </trkpt>
      <trkpt lat="45.84154" lon="3.03172">
        <ele>617.20001220703</ele>
        <time>2020-07-25T07:56:05Z</time>
      </trkpt>
      <trkpt lat="45.84154" lon="3.03167">
        <ele>617.20001220703</ele>
        <time>2020-07-25T07:56:11Z</time>
      </trkpt>
      <trkpt lat="45.84154" lon="3.03167">
        <ele>617.40002441406</ele>
        <time>2020-07-25T07:56:21Z</time>
      </trkpt>
      <trkpt lat="45.84154" lon="3.03158">
        <ele>617.20001220703</ele>
        <time>2020-07-25T07:56:27Z</time>
      </trkpt>
      <trkpt lat="45.84156" lon="3.03139">
        <ele>617</ele>
        <time>2020-07-25T07:56:33Z</time>
      </trkpt>
      <trkpt lat="45.84159" lon="3.03116">
        <ele>616.79998779297</ele>
        <time>2020-07-25T07:56:40Z</time>
      </trkpt>
      <trkpt lat="45.84161" lon="3.03097">
        <ele>617</ele>
        <time>2020-07-25T07:56:47Z</time>
      </trkpt>
      <trkpt lat="45.84164" lon="3.0307">
        <ele>617.20001220703</ele>
        <time>2020-07-25T07:56:55Z</time>
      </trkpt>
      <trkpt lat="45.84168" lon="3.03042">
        <ele>617.40002441406</ele>
        <time>2020-07-25T07:57:03Z</time>
      </trkpt>
      <trkpt lat="45.84169" lon="3.03016">
        <ele>617.59997558594</ele>
        <time>2020-07-25T07:57:10Z</time>
      </trkpt>
      <trkpt lat="45.84172" lon="3.02994">
        <ele>617.79998779297</ele>
        <time>2020-07-25T07:57:17Z</time>
      </trkpt>
      <trkpt lat="45.84174" lon="3.02972">
        <ele>618.20001220703</ele>
        <time>2020-07-25T07:57:24Z</time>
      </trkpt>
      <trkpt lat="45.84174" lon="3.02969">
        <ele>618.20001220703</ele>
        <time>2020-07-25T07:57:25Z</time>
      </trkpt>
      <trkpt lat="45.84175" lon="3.0294">
        <ele>618.79998779297</ele>
        <time>2020-07-25T07:57:34Z</time>
      </trkpt>
      <trkpt lat="45.84176" lon="3.02925">
        <ele>619.20001220703</ele>
        <time>2020-07-25T07:57:39Z</time>
      </trkpt>
      <trkpt lat="45.84176" lon="3.02919">
        <ele>619.40002441406</ele>
        <time>2020-07-25T07:57:41Z</time>
      </trkpt>
      <trkpt lat="45.84177" lon="3.02892">
        <ele>620</ele>
        <time>2020-07-25T07:57:50Z</time>
      </trkpt>
      <trkpt lat="45.84177" lon="3.02886">
        <ele>620.20001220703</ele>
        <time>2020-07-25T07:57:52Z</time>
      </trkpt>
      <trkpt lat="45.84179" lon="3.02867">
        <ele>620.40002441406</ele>
        <time>2020-07-25T07:57:58Z</time>
      </trkpt>
      <trkpt lat="45.84188" lon="3.02845">
        <ele>620.79998779297</ele>
        <time>2020-07-25T07:58:06Z</time>
      </trkpt>
      <trkpt lat="45.84193" lon="3.02831">
        <ele>621.20001220703</ele>
        <time>2020-07-25T07:58:11Z</time>
      </trkpt>
      <trkpt lat="45.84197" lon="3.02818">
        <ele>621.20001220703</ele>
        <time>2020-07-25T07:58:16Z</time>
      </trkpt>
      <trkpt lat="45.84201" lon="3.02794">
        <ele>621.79998779297</ele>
        <time>2020-07-25T07:58:24Z</time>
      </trkpt>
      <trkpt lat="45.84203" lon="3.02774">
        <ele>622.20001220703</ele>
        <time>2020-07-25T07:58:31Z</time>
      </trkpt>
      <trkpt lat="45.84204" lon="3.02755">
        <ele>623.20001220703</ele>
        <time>2020-07-25T07:58:37Z</time>
      </trkpt>
      <trkpt lat="45.84204" lon="3.02751">
        <ele>623.20001220703</ele>
        <time>2020-07-25T07:58:38Z</time>
      </trkpt>
      <trkpt lat="45.84207" lon="3.02735">
        <ele>623.79998779297</ele>
        <time>2020-07-25T07:58:43Z</time>
      </trkpt>
      <trkpt lat="45.8421" lon="3.02719">
        <ele>624</ele>
        <time>2020-07-25T07:58:48Z</time>
      </trkpt>
      <trkpt lat="45.84211" lon="3.02713">
        <ele>624</ele>
        <time>2020-07-25T07:58:50Z</time>
      </trkpt>
      <trkpt lat="45.84212" lon="3.02703">
        <ele>624.20001220703</ele>
        <time>2020-07-25T07:58:53Z</time>
      </trkpt>
      <trkpt lat="45.84216" lon="3.02686">
        <ele>624.59997558594</ele>
        <time>2020-07-25T07:58:58Z</time>
      </trkpt>
      <trkpt lat="45.84221" lon="3.02661">
        <ele>625</ele>
        <time>2020-07-25T07:59:06Z</time>
      </trkpt>
      <trkpt lat="45.84223" lon="3.02656">
        <ele>625.40002441406</ele>
        <time>2020-07-25T07:59:08Z</time>
      </trkpt>
      <trkpt lat="45.8423" lon="3.02642">
        <ele>626</ele>
        <time>2020-07-25T07:59:14Z</time>
      </trkpt>
      <trkpt lat="45.84234" lon="3.02634">
        <ele>626.40002441406</ele>
        <time>2020-07-25T07:59:18Z</time>
      </trkpt>
      <trkpt lat="45.84235" lon="3.02629">
        <ele>626.79998779297</ele>
        <time>2020-07-25T07:59:20Z</time>
      </trkpt>
      <trkpt lat="45.84242" lon="3.02607">
        <ele>627.40002441406</ele>
        <time>2020-07-25T07:59:28Z</time>
      </trkpt>
      <trkpt lat="45.84243" lon="3.02604">
        <ele>627.40002441406</ele>
        <time>2020-07-25T07:59:29Z</time>
      </trkpt>
      <trkpt lat="45.84251" lon="3.02585">
        <ele>627.59997558594</ele>
        <time>2020-07-25T07:59:36Z</time>
      </trkpt>
      <trkpt lat="45.84256" lon="3.02571">
        <ele>628</ele>
        <time>2020-07-25T07:59:41Z</time>
      </trkpt>
      <trkpt lat="45.84266" lon="3.02542">
        <ele>628.40002441406</ele>
        <time>2020-07-25T07:59:51Z</time>
      </trkpt>
      <trkpt lat="45.84268" lon="3.02536">
        <ele>628.59997558594</ele>
        <time>2020-07-25T07:59:53Z</time>
      </trkpt>
      <trkpt lat="45.84275" lon="3.02512">
        <ele>629.40002441406</ele>
        <time>2020-07-25T08:00:02Z</time>
      </trkpt>
      <trkpt lat="45.84276" lon="3.02507">
        <ele>629.59997558594</ele>
        <time>2020-07-25T08:00:04Z</time>
      </trkpt>
      <trkpt lat="45.84277" lon="3.02501">
        <ele>629.79998779297</ele>
        <time>2020-07-25T08:00:06Z</time>
      </trkpt>
      <trkpt lat="45.84274" lon="3.02499">
        <ele>630.20001220703</ele>
        <time>2020-07-25T08:00:08Z</time>
      </trkpt>
      <trkpt lat="45.84272" lon="3.02505">
        <ele>630.20001220703</ele>
        <time>2020-07-25T08:00:12Z</time>
      </trkpt>
      <trkpt lat="45.84276" lon="3.02512">
        <ele>630.20001220703</ele>
        <time>2020-07-25T08:00:15Z</time>
      </trkpt>
      <trkpt lat="45.84278" lon="3.02514">
        <ele>630.20001220703</ele>
        <time>2020-07-25T08:00:16Z</time>
      </trkpt>
      <trkpt lat="45.84293" lon="3.02532">
        <ele>629.59997558594</ele>
        <time>2020-07-25T08:00:24Z</time>
      </trkpt>
      <trkpt lat="45.84307" lon="3.02547">
        <ele>630.40002441406</ele>
        <time>2020-07-25T08:00:31Z</time>
      </trkpt>
      <trkpt lat="45.84315" lon="3.02553">
        <ele>630.59997558594</ele>
        <time>2020-07-25T08:00:35Z</time>
      </trkpt>
      <trkpt lat="45.84323" lon="3.02559">
        <ele>631.40002441406</ele>
        <time>2020-07-25T08:00:39Z</time>
      </trkpt>
      <trkpt lat="45.84329" lon="3.02564">
        <ele>631.59997558594</ele>
        <time>2020-07-25T08:00:42Z</time>
      </trkpt>
      <trkpt lat="45.84338" lon="3.0257">
        <ele>632</ele>
        <time>2020-07-25T08:00:47Z</time>
      </trkpt>
      <trkpt lat="45.84348" lon="3.02581">
        <ele>632.59997558594</ele>
        <time>2020-07-25T08:00:53Z</time>
      </trkpt>
      <trkpt lat="45.84351" lon="3.02586">
        <ele>632.79998779297</ele>
        <time>2020-07-25T08:00:55Z</time>
      </trkpt>
      <trkpt lat="45.84359" lon="3.02597">
        <ele>633.20001220703</ele>
        <time>2020-07-25T08:01:00Z</time>
      </trkpt>
      <trkpt lat="45.8437" lon="3.02615">
        <ele>633.20001220703</ele>
        <time>2020-07-25T08:01:07Z</time>
      </trkpt>
      <trkpt lat="45.84384" lon="3.02633">
        <ele>633.20001220703</ele>
        <time>2020-07-25T08:01:14Z</time>
      </trkpt>
      <trkpt lat="45.84402" lon="3.02644">
        <ele>633</ele>
        <time>2020-07-25T08:01:21Z</time>
      </trkpt>
      <trkpt lat="45.84423" lon="3.02656">
        <ele>633.40002441406</ele>
        <time>2020-07-25T08:01:29Z</time>
      </trkpt>
      <trkpt lat="45.84444" lon="3.02669">
        <ele>633.79998779297</ele>
        <time>2020-07-25T08:01:38Z</time>
      </trkpt>
      <trkpt lat="45.84446" lon="3.02671">
        <ele>634</ele>
        <time>2020-07-25T08:01:39Z</time>
      </trkpt>
      <trkpt lat="45.84465" lon="3.02682">
        <ele>635</ele>
        <time>2020-07-25T08:01:47Z</time>
      </trkpt>
      <trkpt lat="45.84468" lon="3.02684">
        <ele>635.20001220703</ele>
        <time>2020-07-25T08:01:49Z</time>
      </trkpt>
      <trkpt lat="45.84478" lon="3.02685">
        <ele>635.59997558594</ele>
        <time>2020-07-25T08:01:54Z</time>
      </trkpt>
      <trkpt lat="45.84479" lon="3.02683">
        <ele>635.59997558594</ele>
        <time>2020-07-25T08:01:55Z</time>
      </trkpt>
      <trkpt lat="45.84479" lon="3.02675">
        <ele>636</ele>
        <time>2020-07-25T08:01:58Z</time>
      </trkpt>
      <trkpt lat="45.84478" lon="3.02672">
        <ele>636.20001220703</ele>
        <time>2020-07-25T08:01:59Z</time>
      </trkpt>
      <trkpt lat="45.84467" lon="3.0265">
        <ele>636.79998779297</ele>
        <time>2020-07-25T08:02:07Z</time>
      </trkpt>
      <trkpt lat="45.84463" lon="3.02642">
        <ele>637</ele>
        <time>2020-07-25T08:02:10Z</time>
      </trkpt>
      <trkpt lat="45.84454" lon="3.02623">
        <ele>637.40002441406</ele>
        <time>2020-07-25T08:02:16Z</time>
      </trkpt>
      <trkpt lat="45.8444" lon="3.02598">
        <ele>637.79998779297</ele>
        <time>2020-07-25T08:02:24Z</time>
      </trkpt>
      <trkpt lat="45.84428" lon="3.02577">
        <ele>638</ele>
        <time>2020-07-25T08:02:31Z</time>
      </trkpt>
      <trkpt lat="45.84423" lon="3.02568">
        <ele>638.40002441406</ele>
        <time>2020-07-25T08:02:34Z</time>
      </trkpt>
      <trkpt lat="45.84415" lon="3.02551">
        <ele>639.20001220703</ele>
        <time>2020-07-25T08:02:41Z</time>
      </trkpt>
      <trkpt lat="45.84414" lon="3.02548">
        <ele>639.40002441406</ele>
        <time>2020-07-25T08:02:42Z</time>
      </trkpt>
      <trkpt lat="45.84412" lon="3.0253">
        <ele>640.40002441406</ele>
        <time>2020-07-25T08:02:48Z</time>
      </trkpt>
      <trkpt lat="45.84412" lon="3.02528">
        <ele>640.59997558594</ele>
        <time>2020-07-25T08:02:49Z</time>
      </trkpt>
      <trkpt lat="45.84415" lon="3.02506">
        <ele>641.79998779297</ele>
        <time>2020-07-25T08:02:57Z</time>
      </trkpt>
      <trkpt lat="45.84416" lon="3.02501">
        <ele>642</ele>
        <time>2020-07-25T08:02:59Z</time>
      </trkpt>
      <trkpt lat="45.84422" lon="3.02488">
        <ele>642.79998779297</ele>
        <time>2020-07-25T08:03:05Z</time>
      </trkpt>
      <trkpt lat="45.84425" lon="3.0248">
        <ele>643.20001220703</ele>
        <time>2020-07-25T08:03:09Z</time>
      </trkpt>
      <trkpt lat="45.84427" lon="3.0247">
        <ele>643.79998779297</ele>
        <time>2020-07-25T08:03:13Z</time>
      </trkpt>
      <trkpt lat="45.84431" lon="3.02453">
        <ele>644.59997558594</ele>
        <time>2020-07-25T08:03:21Z</time>
      </trkpt>
      <trkpt lat="45.84432" lon="3.02451">
        <ele>644.79998779297</ele>
        <time>2020-07-25T08:03:22Z</time>
      </trkpt>
      <trkpt lat="45.84434" lon="3.02432">
        <ele>645.59997558594</ele>
        <time>2020-07-25T08:03:30Z</time>
      </trkpt>
      <trkpt lat="45.84433" lon="3.02426">
        <ele>645.79998779297</ele>
        <time>2020-07-25T08:03:33Z</time>
      </trkpt>
      <trkpt lat="45.84432" lon="3.02409">
        <ele>646.40002441406</ele>
        <time>2020-07-25T08:03:40Z</time>
      </trkpt>
      <trkpt lat="45.84431" lon="3.02398">
        <ele>647</ele>
        <time>2020-07-25T08:03:45Z</time>
      </trkpt>
      <trkpt lat="45.8443" lon="3.02393">
        <ele>647.20001220703</ele>
        <time>2020-07-25T08:03:47Z</time>
      </trkpt>
      <trkpt lat="45.84428" lon="3.02377">
        <ele>648</ele>
        <time>2020-07-25T08:03:54Z</time>
      </trkpt>
      <trkpt lat="45.84427" lon="3.02363">
        <ele>648.79998779297</ele>
        <time>2020-07-25T08:04:00Z</time>
      </trkpt>
      <trkpt lat="45.84426" lon="3.02356">
        <ele>649.20001220703</ele>
        <time>2020-07-25T08:04:03Z</time>
      </trkpt>
      <trkpt lat="45.84424" lon="3.02335">
        <ele>650.20001220703</ele>
        <time>2020-07-25T08:04:12Z</time>
      </trkpt>
      <trkpt lat="45.8442" lon="3.02312">
        <ele>651</ele>
        <time>2020-07-25T08:04:21Z</time>
      </trkpt>
      <trkpt lat="45.8442" lon="3.02307">
        <ele>651.20001220703</ele>
        <time>2020-07-25T08:04:23Z</time>
      </trkpt>
      <trkpt lat="45.84418" lon="3.02287">
        <ele>651.79998779297</ele>
        <time>2020-07-25T08:04:31Z</time>
      </trkpt>
      <trkpt lat="45.84417" lon="3.02271">
        <ele>652.20001220703</ele>
        <time>2020-07-25T08:04:37Z</time>
      </trkpt>
      <trkpt lat="45.84418" lon="3.02264">
        <ele>652.59997558594</ele>
        <time>2020-07-25T08:04:40Z</time>
      </trkpt>
      <trkpt lat="45.8442" lon="3.02245">
        <ele>653.20001220703</ele>
        <time>2020-07-25T08:04:48Z</time>
      </trkpt>
      <trkpt lat="45.8442" lon="3.02239">
        <ele>653.59997558594</ele>
        <time>2020-07-25T08:04:50Z</time>
      </trkpt>
      <trkpt lat="45.84417" lon="3.02223">
        <ele>653.79998779297</ele>
        <time>2020-07-25T08:04:54Z</time>
      </trkpt>
      <trkpt lat="45.84418" lon="3.02212">
        <ele>654.40002441406</ele>
        <time>2020-07-25T08:04:58Z</time>
      </trkpt>
      <trkpt lat="45.8442" lon="3.0221">
        <ele>654.59997558594</ele>
        <time>2020-07-25T08:04:59Z</time>
      </trkpt>
      <trkpt lat="45.84425" lon="3.02207">
        <ele>655</ele>
        <time>2020-07-25T08:05:02Z</time>
      </trkpt>
      <trkpt lat="45.8443" lon="3.02205">
        <ele>655.20001220703</ele>
        <time>2020-07-25T08:05:05Z</time>
      </trkpt>
      <trkpt lat="45.8443" lon="3.02205">
        <ele>655.40002441406</ele>
        <time>2020-07-25T08:05:07Z</time>
      </trkpt>
      <trkpt lat="45.8443" lon="3.02205">
        <ele>655.59997558594</ele>
        <time>2020-07-25T08:05:09Z</time>
      </trkpt>
      <trkpt lat="45.8443" lon="3.02205">
        <ele>656.20001220703</ele>
        <time>2020-07-25T08:05:16Z</time>
      </trkpt>
      <trkpt lat="45.84429" lon="3.02206">
        <ele>656.20001220703</ele>
        <time>2020-07-25T08:05:17Z</time>
      </trkpt>
      <trkpt lat="45.84424" lon="3.02212">
        <ele>656.20001220703</ele>
        <time>2020-07-25T08:05:20Z</time>
      </trkpt>
      <trkpt lat="45.84422" lon="3.02217">
        <ele>655.40002441406</ele>
        <time>2020-07-25T08:05:24Z</time>
      </trkpt>
      <trkpt lat="45.84422" lon="3.02217">
        <ele>655.20001220703</ele>
        <time>2020-07-25T08:05:34Z</time>
      </trkpt>
      <trkpt lat="45.84422" lon="3.02217">
        <ele>655.20001220703</ele>
        <time>2020-07-25T08:05:38Z</time>
      </trkpt>
      <trkpt lat="45.84422" lon="3.02217">
        <ele>655.20001220703</ele>
        <time>2020-07-25T08:05:51Z</time>
      </trkpt>
      <trkpt lat="45.84422" lon="3.02217">
        <ele>655.20001220703</ele>
        <time>2020-07-25T08:06:01Z</time>
      </trkpt>
      <trkpt lat="45.84421" lon="3.02217">
        <ele>655.20001220703</ele>
        <time>2020-07-25T08:06:06Z</time>
      </trkpt>
      <trkpt lat="45.84419" lon="3.02219">
        <ele>655.20001220703</ele>
        <time>2020-07-25T08:06:08Z</time>
      </trkpt>
      <trkpt lat="45.84416" lon="3.02213">
        <ele>655</ele>
        <time>2020-07-25T08:06:12Z</time>
      </trkpt>
      <trkpt lat="45.8442" lon="3.0221">
        <ele>655</ele>
        <time>2020-07-25T08:06:17Z</time>
      </trkpt>
      <trkpt lat="45.8442" lon="3.0221">
        <ele>655.40002441406</ele>
        <time>2020-07-25T08:06:28Z</time>
      </trkpt>
      <trkpt lat="45.84421" lon="3.02209">
        <ele>655.40002441406</ele>
        <time>2020-07-25T08:06:30Z</time>
      </trkpt>
      <trkpt lat="45.84424" lon="3.02208">
        <ele>655.20001220703</ele>
        <time>2020-07-25T08:06:32Z</time>
      </trkpt>
      <trkpt lat="45.84429" lon="3.02206">
        <ele>655.20001220703</ele>
        <time>2020-07-25T08:06:35Z</time>
      </trkpt>
      <trkpt lat="45.84435" lon="3.02205">
        <ele>655.79998779297</ele>
        <time>2020-07-25T08:06:39Z</time>
      </trkpt>
      <trkpt lat="45.84442" lon="3.02203">
        <ele>656.59997558594</ele>
        <time>2020-07-25T08:06:44Z</time>
      </trkpt>
      <trkpt lat="45.84445" lon="3.02202">
        <ele>657.20001220703</ele>
        <time>2020-07-25T08:06:47Z</time>
      </trkpt>
      <trkpt lat="45.84449" lon="3.022">
        <ele>657.79998779297</ele>
        <time>2020-07-25T08:06:50Z</time>
      </trkpt>
      <trkpt lat="45.84455" lon="3.02198">
        <ele>658.59997558594</ele>
        <time>2020-07-25T08:06:55Z</time>
      </trkpt>
      <trkpt lat="45.84457" lon="3.02198">
        <ele>658.79998779297</ele>
        <time>2020-07-25T08:06:56Z</time>
      </trkpt>
      <trkpt lat="45.84464" lon="3.02194">
        <ele>659.79998779297</ele>
        <time>2020-07-25T08:07:02Z</time>
      </trkpt>
      <trkpt lat="45.84465" lon="3.02194">
        <ele>660</ele>
        <time>2020-07-25T08:07:03Z</time>
      </trkpt>
      <trkpt lat="45.84475" lon="3.02188">
        <ele>660.40002441406</ele>
        <time>2020-07-25T08:07:10Z</time>
      </trkpt>
      <trkpt lat="45.84482" lon="3.02182">
        <ele>660.40002441406</ele>
        <time>2020-07-25T08:07:16Z</time>
      </trkpt>
      <trkpt lat="45.84487" lon="3.02178">
        <ele>660.59997558594</ele>
        <time>2020-07-25T08:07:20Z</time>
      </trkpt>
      <trkpt lat="45.84489" lon="3.02175">
        <ele>660.79998779297</ele>
        <time>2020-07-25T08:07:22Z</time>
      </trkpt>
      <trkpt lat="45.8449" lon="3.02173">
        <ele>661</ele>
        <time>2020-07-25T08:07:23Z</time>
      </trkpt>
      <trkpt lat="45.84498" lon="3.02161">
        <ele>661.79998779297</ele>
        <time>2020-07-25T08:07:31Z</time>
      </trkpt>
      <trkpt lat="45.845" lon="3.02158">
        <ele>662</ele>
        <time>2020-07-25T08:07:33Z</time>
      </trkpt>
      <trkpt lat="45.84504" lon="3.02151">
        <ele>662.79998779297</ele>
        <time>2020-07-25T08:07:39Z</time>
      </trkpt>
      <trkpt lat="45.84506" lon="3.02149">
        <ele>663.20001220703</ele>
        <time>2020-07-25T08:07:41Z</time>
      </trkpt>
      <trkpt lat="45.84509" lon="3.02144">
        <ele>663.79998779297</ele>
        <time>2020-07-25T08:07:45Z</time>
      </trkpt>
      <trkpt lat="45.8451" lon="3.02143">
        <ele>664.20001220703</ele>
        <time>2020-07-25T08:07:46Z</time>
      </trkpt>
      <trkpt lat="45.84517" lon="3.02133">
        <ele>665.20001220703</ele>
        <time>2020-07-25T08:07:53Z</time>
      </trkpt>
      <trkpt lat="45.84524" lon="3.02124">
        <ele>666.40002441406</ele>
        <time>2020-07-25T08:08:01Z</time>
      </trkpt>
      <trkpt lat="45.84525" lon="3.02123">
        <ele>666.59997558594</ele>
        <time>2020-07-25T08:08:02Z</time>
      </trkpt>
      <trkpt lat="45.8453" lon="3.02115">
        <ele>667.40002441406</ele>
        <time>2020-07-25T08:08:08Z</time>
      </trkpt>
      <trkpt lat="45.84533" lon="3.02111">
        <ele>668.20001220703</ele>
        <time>2020-07-25T08:08:12Z</time>
      </trkpt>
      <trkpt lat="45.84535" lon="3.02109">
        <ele>668.59997558594</ele>
        <time>2020-07-25T08:08:14Z</time>
      </trkpt>
      <trkpt lat="45.84539" lon="3.02099">
        <ele>669.59997558594</ele>
        <time>2020-07-25T08:08:21Z</time>
      </trkpt>
      <trkpt lat="45.84541" lon="3.02088">
        <ele>670.79998779297</ele>
        <time>2020-07-25T08:08:28Z</time>
      </trkpt>
      <trkpt lat="45.84541" lon="3.02087">
        <ele>671</ele>
        <time>2020-07-25T08:08:29Z</time>
      </trkpt>
      <trkpt lat="45.84543" lon="3.02079">
        <ele>671.79998779297</ele>
        <time>2020-07-25T08:08:35Z</time>
      </trkpt>
      <trkpt lat="45.84543" lon="3.02078">
        <ele>672</ele>
        <time>2020-07-25T08:08:36Z</time>
      </trkpt>
      <trkpt lat="45.84545" lon="3.02065">
        <ele>672.79998779297</ele>
        <time>2020-07-25T08:08:45Z</time>
      </trkpt>
      <trkpt lat="45.84546" lon="3.02063">
        <ele>673</ele>
        <time>2020-07-25T08:08:46Z</time>
      </trkpt>
      <trkpt lat="45.84546" lon="3.02051">
        <ele>673.79998779297</ele>
        <time>2020-07-25T08:08:53Z</time>
      </trkpt>
      <trkpt lat="45.84546" lon="3.0205">
        <ele>674</ele>
        <time>2020-07-25T08:08:54Z</time>
      </trkpt>
      <trkpt lat="45.84547" lon="3.02041">
        <ele>675</ele>
        <time>2020-07-25T08:09:00Z</time>
      </trkpt>
      <trkpt lat="45.84547" lon="3.0204">
        <ele>675</ele>
        <time>2020-07-25T08:09:01Z</time>
      </trkpt>
      <trkpt lat="45.8455" lon="3.02029">
        <ele>676</ele>
        <time>2020-07-25T08:09:08Z</time>
      </trkpt>
      <trkpt lat="45.8455" lon="3.02028">
        <ele>676</ele>
        <time>2020-07-25T08:09:09Z</time>
      </trkpt>
      <trkpt lat="45.84553" lon="3.02019">
        <ele>676.79998779297</ele>
        <time>2020-07-25T08:09:16Z</time>
      </trkpt>
      <trkpt lat="45.84554" lon="3.02014">
        <ele>677.20001220703</ele>
        <time>2020-07-25T08:09:19Z</time>
      </trkpt>
      <trkpt lat="45.84558" lon="3.02005">
        <ele>678</ele>
        <time>2020-07-25T08:09:26Z</time>
      </trkpt>
      <trkpt lat="45.8456" lon="3.02002">
        <ele>678.20001220703</ele>
        <time>2020-07-25T08:09:28Z</time>
      </trkpt>
      <trkpt lat="45.84564" lon="3.01995">
        <ele>678.79998779297</ele>
        <time>2020-07-25T08:09:33Z</time>
      </trkpt>
      <trkpt lat="45.84566" lon="3.0199">
        <ele>679.20001220703</ele>
        <time>2020-07-25T08:09:36Z</time>
      </trkpt>
      <trkpt lat="45.84567" lon="3.01982">
        <ele>680</ele>
        <time>2020-07-25T08:09:41Z</time>
      </trkpt>
      <trkpt lat="45.84569" lon="3.0198">
        <ele>680.40002441406</ele>
        <time>2020-07-25T08:09:43Z</time>
      </trkpt>
      <trkpt lat="45.8457" lon="3.01978">
        <ele>680.79998779297</ele>
        <time>2020-07-25T08:09:45Z</time>
      </trkpt>
      <trkpt lat="45.84572" lon="3.01974">
        <ele>681</ele>
        <time>2020-07-25T08:09:48Z</time>
      </trkpt>
      <trkpt lat="45.84574" lon="3.01971">
        <ele>681.40002441406</ele>
        <time>2020-07-25T08:09:50Z</time>
      </trkpt>
      <trkpt lat="45.84576" lon="3.0196">
        <ele>682.20001220703</ele>
        <time>2020-07-25T08:09:57Z</time>
      </trkpt>
      <trkpt lat="45.84576" lon="3.01957">
        <ele>682.40002441406</ele>
        <time>2020-07-25T08:09:59Z</time>
      </trkpt>
      <trkpt lat="45.84577" lon="3.01946">
        <ele>683.20001220703</ele>
        <time>2020-07-25T08:10:06Z</time>
      </trkpt>
      <trkpt lat="45.84577" lon="3.01941">
        <ele>683.40002441406</ele>
        <time>2020-07-25T08:10:09Z</time>
      </trkpt>
      <trkpt lat="45.84578" lon="3.01932">
        <ele>684.20001220703</ele>
        <time>2020-07-25T08:10:14Z</time>
      </trkpt>
      <trkpt lat="45.84579" lon="3.01927">
        <ele>684.40002441406</ele>
        <time>2020-07-25T08:10:17Z</time>
      </trkpt>
      <trkpt lat="45.84579" lon="3.01925">
        <ele>684.59997558594</ele>
        <time>2020-07-25T08:10:18Z</time>
      </trkpt>
      <trkpt lat="45.84579" lon="3.01921">
        <ele>685.20001220703</ele>
        <time>2020-07-25T08:10:21Z</time>
      </trkpt>
      <trkpt lat="45.84579" lon="3.01914">
        <ele>685.59997558594</ele>
        <time>2020-07-25T08:10:25Z</time>
      </trkpt>
      <trkpt lat="45.84579" lon="3.01905">
        <ele>686.20001220703</ele>
        <time>2020-07-25T08:10:30Z</time>
      </trkpt>
      <trkpt lat="45.84579" lon="3.019">
        <ele>686.79998779297</ele>
        <time>2020-07-25T08:10:33Z</time>
      </trkpt>
      <trkpt lat="45.8458" lon="3.01892">
        <ele>687.20001220703</ele>
        <time>2020-07-25T08:10:37Z</time>
      </trkpt>
      <trkpt lat="45.84581" lon="3.01882">
        <ele>687.79998779297</ele>
        <time>2020-07-25T08:10:42Z</time>
      </trkpt>
      <trkpt lat="45.84582" lon="3.01874">
        <ele>688.59997558594</ele>
        <time>2020-07-25T08:10:46Z</time>
      </trkpt>
      <trkpt lat="45.84581" lon="3.01868">
        <ele>689</ele>
        <time>2020-07-25T08:10:49Z</time>
      </trkpt>
      <trkpt lat="45.84579" lon="3.01857">
        <ele>689.79998779297</ele>
        <time>2020-07-25T08:10:56Z</time>
      </trkpt>
      <trkpt lat="45.84579" lon="3.01855">
        <ele>690</ele>
        <time>2020-07-25T08:10:57Z</time>
      </trkpt>
      <trkpt lat="45.84578" lon="3.01847">
        <ele>690.40002441406</ele>
        <time>2020-07-25T08:11:01Z</time>
      </trkpt>
      <trkpt lat="45.84578" lon="3.01842">
        <ele>690.79998779297</ele>
        <time>2020-07-25T08:11:04Z</time>
      </trkpt>
      <trkpt lat="45.84577" lon="3.01839">
        <ele>691</ele>
        <time>2020-07-25T08:11:06Z</time>
      </trkpt>
      <trkpt lat="45.84576" lon="3.01832">
        <ele>691.59997558594</ele>
        <time>2020-07-25T08:11:10Z</time>
      </trkpt>
      <trkpt lat="45.84577" lon="3.01828">
        <ele>692</ele>
        <time>2020-07-25T08:11:13Z</time>
      </trkpt>
      <trkpt lat="45.84575" lon="3.01818">
        <ele>693</ele>
        <time>2020-07-25T08:11:20Z</time>
      </trkpt>
      <trkpt lat="45.84576" lon="3.01816">
        <ele>693.20001220703</ele>
        <time>2020-07-25T08:11:21Z</time>
      </trkpt>
      <trkpt lat="45.84576" lon="3.01815">
        <ele>693.59997558594</ele>
        <time>2020-07-25T08:11:22Z</time>
      </trkpt>
      <trkpt lat="45.84575" lon="3.01809">
        <ele>694.20001220703</ele>
        <time>2020-07-25T08:11:26Z</time>
      </trkpt>
      <trkpt lat="45.84575" lon="3.01808">
        <ele>694.20001220703</ele>
        <time>2020-07-25T08:11:27Z</time>
      </trkpt>
      <trkpt lat="45.84574" lon="3.01795">
        <ele>695.20001220703</ele>
        <time>2020-07-25T08:11:35Z</time>
      </trkpt>
      <trkpt lat="45.84571" lon="3.01779">
        <ele>696.20001220703</ele>
        <time>2020-07-25T08:11:43Z</time>
      </trkpt>
      <trkpt lat="45.8457" lon="3.01777">
        <ele>696.40002441406</ele>
        <time>2020-07-25T08:11:44Z</time>
      </trkpt>
      <trkpt lat="45.84567" lon="3.01763">
        <ele>697.40002441406</ele>
        <time>2020-07-25T08:11:52Z</time>
      </trkpt>
      <trkpt lat="45.84567" lon="3.01761">
        <ele>697.40002441406</ele>
        <time>2020-07-25T08:11:53Z</time>
      </trkpt>
      <trkpt lat="45.84566" lon="3.01746">
        <ele>698.40002441406</ele>
        <time>2020-07-25T08:12:01Z</time>
      </trkpt>
      <trkpt lat="45.84567" lon="3.01741">
        <ele>698.59997558594</ele>
        <time>2020-07-25T08:12:04Z</time>
      </trkpt>
      <trkpt lat="45.84567" lon="3.01729">
        <ele>699.40002441406</ele>
        <time>2020-07-25T08:12:10Z</time>
      </trkpt>
      <trkpt lat="45.84567" lon="3.01725">
        <ele>699.79998779297</ele>
        <time>2020-07-25T08:12:12Z</time>
      </trkpt>
      <trkpt lat="45.84565" lon="3.01712">
        <ele>700.59997558594</ele>
        <time>2020-07-25T08:12:20Z</time>
      </trkpt>
      <trkpt lat="45.84562" lon="3.01707">
        <ele>700.79998779297</ele>
        <time>2020-07-25T08:12:23Z</time>
      </trkpt>
      <trkpt lat="45.84559" lon="3.017">
        <ele>701.20001220703</ele>
        <time>2020-07-25T08:12:30Z</time>
      </trkpt>
      <trkpt lat="45.84559" lon="3.017">
        <ele>701.59997558594</ele>
        <time>2020-07-25T08:12:38Z</time>
      </trkpt>
      <trkpt lat="45.84559" lon="3.017">
        <ele>701.59997558594</ele>
        <time>2020-07-25T08:12:49Z</time>
      </trkpt>
      <trkpt lat="45.84559" lon="3.017">
        <ele>701.59997558594</ele>
        <time>2020-07-25T08:12:54Z</time>
      </trkpt>
      <trkpt lat="45.84559" lon="3.017">
        <ele>701.59997558594</ele>
        <time>2020-07-25T08:13:06Z</time>
      </trkpt>
      <trkpt lat="45.84559" lon="3.01699">
        <ele>701.59997558594</ele>
        <time>2020-07-25T08:13:22Z</time>
      </trkpt>
      <trkpt lat="45.84559" lon="3.01699">
        <ele>701.59997558594</ele>
        <time>2020-07-25T08:13:36Z</time>
      </trkpt>
      <trkpt lat="45.84559" lon="3.01699">
        <ele>701.79998779297</ele>
        <time>2020-07-25T08:13:47Z</time>
      </trkpt>
      <trkpt lat="45.84559" lon="3.01698">
        <ele>701.79998779297</ele>
        <time>2020-07-25T08:14:04Z</time>
      </trkpt>
      <trkpt lat="45.84559" lon="3.01698">
        <ele>701.59997558594</ele>
        <time>2020-07-25T08:14:19Z</time>
      </trkpt>
      <trkpt lat="45.84559" lon="3.01698">
        <ele>701.79998779297</ele>
        <time>2020-07-25T08:14:29Z</time>
      </trkpt>
      <trkpt lat="45.84558" lon="3.01694">
        <ele>701.79998779297</ele>
        <time>2020-07-25T08:14:38Z</time>
      </trkpt>
      <trkpt lat="45.84554" lon="3.01676">
        <ele>702.20001220703</ele>
        <time>2020-07-25T08:14:46Z</time>
      </trkpt>
      <trkpt lat="45.84552" lon="3.01663">
        <ele>702.59997558594</ele>
        <time>2020-07-25T08:14:52Z</time>
      </trkpt>
      <trkpt lat="45.84552" lon="3.01661">
        <ele>702.59997558594</ele>
        <time>2020-07-25T08:14:53Z</time>
      </trkpt>
      <trkpt lat="45.8455" lon="3.01654">
        <ele>703</ele>
        <time>2020-07-25T08:14:57Z</time>
      </trkpt>
      <trkpt lat="45.84547" lon="3.01639">
        <ele>703.59997558594</ele>
        <time>2020-07-25T08:15:05Z</time>
      </trkpt>
      <trkpt lat="45.84545" lon="3.01625">
        <ele>704.40002441406</ele>
        <time>2020-07-25T08:15:12Z</time>
      </trkpt>
      <trkpt lat="45.84544" lon="3.01619">
        <ele>704.79998779297</ele>
        <time>2020-07-25T08:15:15Z</time>
      </trkpt>
      <trkpt lat="45.84543" lon="3.01612">
        <ele>705</ele>
        <time>2020-07-25T08:15:18Z</time>
      </trkpt>
      <trkpt lat="45.84541" lon="3.01602">
        <ele>705.40002441406</ele>
        <time>2020-07-25T08:15:24Z</time>
      </trkpt>
      <trkpt lat="45.84536" lon="3.01592">
        <ele>705.79998779297</ele>
        <time>2020-07-25T08:15:29Z</time>
      </trkpt>
      <trkpt lat="45.84534" lon="3.01588">
        <ele>706</ele>
        <time>2020-07-25T08:15:31Z</time>
      </trkpt>
      <trkpt lat="45.84523" lon="3.01579">
        <ele>706.40002441406</ele>
        <time>2020-07-25T08:15:39Z</time>
      </trkpt>
      <trkpt lat="45.8451" lon="3.01573">
        <ele>706.59997558594</ele>
        <time>2020-07-25T08:15:46Z</time>
      </trkpt>
      <trkpt lat="45.84499" lon="3.01567">
        <ele>706.79998779297</ele>
        <time>2020-07-25T08:15:52Z</time>
      </trkpt>
      <trkpt lat="45.84496" lon="3.01564">
        <ele>707</ele>
        <time>2020-07-25T08:15:54Z</time>
      </trkpt>
      <trkpt lat="45.84494" lon="3.01561">
        <ele>707.20001220703</ele>
        <time>2020-07-25T08:15:56Z</time>
      </trkpt>
      <trkpt lat="45.84493" lon="3.01555">
        <ele>707.20001220703</ele>
        <time>2020-07-25T08:15:59Z</time>
      </trkpt>
      <trkpt lat="45.84487" lon="3.01536">
        <ele>707.59997558594</ele>
        <time>2020-07-25T08:16:06Z</time>
      </trkpt>
      <trkpt lat="45.84489" lon="3.01525">
        <ele>707.79998779297</ele>
        <time>2020-07-25T08:16:11Z</time>
      </trkpt>
      <trkpt lat="45.8449" lon="3.01523">
        <ele>708</ele>
        <time>2020-07-25T08:16:12Z</time>
      </trkpt>
      <trkpt lat="45.84491" lon="3.01522">
        <ele>708</ele>
        <time>2020-07-25T08:16:15Z</time>
      </trkpt>
      <trkpt lat="45.84491" lon="3.01522">
        <ele>708.40002441406</ele>
        <time>2020-07-25T08:16:33Z</time>
      </trkpt>
      <trkpt lat="45.84491" lon="3.01522">
        <ele>708.40002441406</ele>
        <time>2020-07-25T08:16:48Z</time>
      </trkpt>
      <trkpt lat="45.84492" lon="3.01521">
        <ele>708.40002441406</ele>
        <time>2020-07-25T08:17:04Z</time>
      </trkpt>
      <trkpt lat="45.845" lon="3.01516">
        <ele>708.59997558594</ele>
        <time>2020-07-25T08:17:11Z</time>
      </trkpt>
      <trkpt lat="45.84504" lon="3.01513">
        <ele>708.79998779297</ele>
        <time>2020-07-25T08:17:14Z</time>
      </trkpt>
      <trkpt lat="45.84506" lon="3.01508">
        <ele>709.40002441406</ele>
        <time>2020-07-25T08:17:17Z</time>
      </trkpt>
      <trkpt lat="45.8451" lon="3.01504">
        <ele>709.79998779297</ele>
        <time>2020-07-25T08:17:21Z</time>
      </trkpt>
      <trkpt lat="45.8451" lon="3.01503">
        <ele>710</ele>
        <time>2020-07-25T08:17:22Z</time>
      </trkpt>
      <trkpt lat="45.8451" lon="3.01495">
        <ele>710.59997558594</ele>
        <time>2020-07-25T08:17:28Z</time>
      </trkpt>
      <trkpt lat="45.8451" lon="3.01493">
        <ele>710.79998779297</ele>
        <time>2020-07-25T08:17:34Z</time>
      </trkpt>
      <trkpt lat="45.8451" lon="3.01493">
        <ele>711</ele>
        <time>2020-07-25T08:17:41Z</time>
      </trkpt>
      <trkpt lat="45.8451" lon="3.01493">
        <ele>711</ele>
        <time>2020-07-25T08:17:46Z</time>
      </trkpt>
      <trkpt lat="45.8451" lon="3.01493">
        <ele>711.20001220703</ele>
        <time>2020-07-25T08:18:03Z</time>
      </trkpt>
      <trkpt lat="45.8451" lon="3.01492">
        <ele>711.20001220703</ele>
        <time>2020-07-25T08:18:19Z</time>
      </trkpt>
      <trkpt lat="45.8451" lon="3.01492">
        <ele>711</ele>
        <time>2020-07-25T08:18:36Z</time>
      </trkpt>
      <trkpt lat="45.8451" lon="3.01492">
        <ele>711.20001220703</ele>
        <time>2020-07-25T08:18:57Z</time>
      </trkpt>
      <trkpt lat="45.8451" lon="3.01492">
        <ele>711.20001220703</ele>
        <time>2020-07-25T08:19:04Z</time>
      </trkpt>
      <trkpt lat="45.84511" lon="3.01487">
        <ele>711.40002441406</ele>
        <time>2020-07-25T08:19:11Z</time>
      </trkpt>
      <trkpt lat="45.84509" lon="3.01472">
        <ele>711.79998779297</ele>
        <time>2020-07-25T08:19:17Z</time>
      </trkpt>
      <trkpt lat="45.84508" lon="3.0147">
        <ele>712</ele>
        <time>2020-07-25T08:19:18Z</time>
      </trkpt>
      <trkpt lat="45.84507" lon="3.0146">
        <ele>713.40002441406</ele>
        <time>2020-07-25T08:19:22Z</time>
      </trkpt>
      <trkpt lat="45.84507" lon="3.01456">
        <ele>714</ele>
        <time>2020-07-25T08:19:24Z</time>
      </trkpt>
      <trkpt lat="45.84506" lon="3.01453">
        <ele>714.40002441406</ele>
        <time>2020-07-25T08:19:26Z</time>
      </trkpt>
      <trkpt lat="45.84505" lon="3.01446">
        <ele>714.79998779297</ele>
        <time>2020-07-25T08:19:30Z</time>
      </trkpt>
      <trkpt lat="45.84503" lon="3.01438">
        <ele>715.40002441406</ele>
        <time>2020-07-25T08:19:36Z</time>
      </trkpt>
      <trkpt lat="45.84502" lon="3.01435">
        <ele>715.59997558594</ele>
        <time>2020-07-25T08:19:37Z</time>
      </trkpt>
      <trkpt lat="45.84496" lon="3.01419">
        <ele>716.40002441406</ele>
        <time>2020-07-25T08:19:44Z</time>
      </trkpt>
      <trkpt lat="45.84496" lon="3.01417">
        <ele>716.59997558594</ele>
        <time>2020-07-25T08:19:45Z</time>
      </trkpt>
      <trkpt lat="45.84495" lon="3.01413">
        <ele>717.20001220703</ele>
        <time>2020-07-25T08:19:49Z</time>
      </trkpt>
      <trkpt lat="45.84496" lon="3.01398">
        <ele>717.59997558594</ele>
        <time>2020-07-25T08:19:55Z</time>
      </trkpt>
      <trkpt lat="45.84496" lon="3.01396">
        <ele>717.59997558594</ele>
        <time>2020-07-25T08:19:56Z</time>
      </trkpt>
      <trkpt lat="45.84495" lon="3.01393">
        <ele>717.79998779297</ele>
        <time>2020-07-25T08:19:57Z</time>
      </trkpt>
      <trkpt lat="45.84494" lon="3.01379">
        <ele>718.40002441406</ele>
        <time>2020-07-25T08:20:04Z</time>
      </trkpt>
      <trkpt lat="45.84493" lon="3.01373">
        <ele>718.79998779297</ele>
        <time>2020-07-25T08:20:07Z</time>
      </trkpt>
      <trkpt lat="45.84494" lon="3.01362">
        <ele>719.20001220703</ele>
        <time>2020-07-25T08:20:13Z</time>
      </trkpt>
      <trkpt lat="45.84495" lon="3.01349">
        <ele>719.79998779297</ele>
        <time>2020-07-25T08:20:19Z</time>
      </trkpt>
      <trkpt lat="45.84495" lon="3.01347">
        <ele>720</ele>
        <time>2020-07-25T08:20:20Z</time>
      </trkpt>
      <trkpt lat="45.84495" lon="3.01341">
        <ele>720.79998779297</ele>
        <time>2020-07-25T08:20:24Z</time>
      </trkpt>
      <trkpt lat="45.84495" lon="3.01339">
        <ele>721</ele>
        <time>2020-07-25T08:20:25Z</time>
      </trkpt>
      <trkpt lat="45.84496" lon="3.01331">
        <ele>722</ele>
        <time>2020-07-25T08:20:30Z</time>
      </trkpt>
      <trkpt lat="45.84497" lon="3.01328">
        <ele>722.20001220703</ele>
        <time>2020-07-25T08:20:31Z</time>
      </trkpt>
      <trkpt lat="45.84497" lon="3.01324">
        <ele>722.59997558594</ele>
        <time>2020-07-25T08:20:33Z</time>
      </trkpt>
      <trkpt lat="45.84497" lon="3.01317">
        <ele>723.20001220703</ele>
        <time>2020-07-25T08:20:37Z</time>
      </trkpt>
      <trkpt lat="45.84496" lon="3.01313">
        <ele>723.40002441406</ele>
        <time>2020-07-25T08:20:39Z</time>
      </trkpt>
      <trkpt lat="45.84495" lon="3.01305">
        <ele>724.40002441406</ele>
        <time>2020-07-25T08:20:44Z</time>
      </trkpt>
      <trkpt lat="45.84494" lon="3.01303">
        <ele>724.40002441406</ele>
        <time>2020-07-25T08:20:45Z</time>
      </trkpt>
      <trkpt lat="45.84492" lon="3.01291">
        <ele>725.40002441406</ele>
        <time>2020-07-25T08:20:52Z</time>
      </trkpt>
      <trkpt lat="45.84489" lon="3.0128">
        <ele>726.20001220703</ele>
        <time>2020-07-25T08:20:59Z</time>
      </trkpt>
      <trkpt lat="45.84489" lon="3.01278">
        <ele>726.40002441406</ele>
        <time>2020-07-25T08:21:02Z</time>
      </trkpt>
      <trkpt lat="45.84489" lon="3.01278">
        <ele>726.59997558594</ele>
        <time>2020-07-25T08:21:07Z</time>
      </trkpt>
      <trkpt lat="45.84489" lon="3.01278">
        <ele>726.40002441406</ele>
        <time>2020-07-25T08:21:20Z</time>
      </trkpt>
      <trkpt lat="45.84489" lon="3.01278">
        <ele>726.59997558594</ele>
        <time>2020-07-25T08:21:40Z</time>
      </trkpt>
      <trkpt lat="45.84489" lon="3.01278">
        <ele>726.59997558594</ele>
        <time>2020-07-25T08:21:57Z</time>
      </trkpt>
      <trkpt lat="45.84489" lon="3.01278">
        <ele>726.59997558594</ele>
        <time>2020-07-25T08:22:07Z</time>
      </trkpt>
      <trkpt lat="45.84489" lon="3.01269">
        <ele>726.79998779297</ele>
        <time>2020-07-25T08:22:13Z</time>
      </trkpt>
      <trkpt lat="45.84484" lon="3.01254">
        <ele>726.79998779297</ele>
        <time>2020-07-25T08:22:18Z</time>
      </trkpt>
      <trkpt lat="45.84483" lon="3.01252">
        <ele>726.79998779297</ele>
        <time>2020-07-25T08:22:19Z</time>
      </trkpt>
      <trkpt lat="45.84476" lon="3.01239">
        <ele>727.20001220703</ele>
        <time>2020-07-25T08:22:24Z</time>
      </trkpt>
      <trkpt lat="45.84473" lon="3.01235">
        <ele>727.40002441406</ele>
        <time>2020-07-25T08:22:26Z</time>
      </trkpt>
      <trkpt lat="45.84471" lon="3.01234">
        <ele>727.20001220703</ele>
        <time>2020-07-25T08:22:27Z</time>
      </trkpt>
      <trkpt lat="45.84467" lon="3.0123">
        <ele>727</ele>
        <time>2020-07-25T08:22:29Z</time>
      </trkpt>
      <trkpt lat="45.84465" lon="3.01216">
        <ele>726.20001220703</ele>
        <time>2020-07-25T08:22:35Z</time>
      </trkpt>
      <trkpt lat="45.84466" lon="3.01208">
        <ele>727</ele>
        <time>2020-07-25T08:22:40Z</time>
      </trkpt>
      <trkpt lat="45.84466" lon="3.01202">
        <ele>727.40002441406</ele>
        <time>2020-07-25T08:22:42Z</time>
      </trkpt>
      <trkpt lat="45.84467" lon="3.01199">
        <ele>727.59997558594</ele>
        <time>2020-07-25T08:22:43Z</time>
      </trkpt>
      <trkpt lat="45.84468" lon="3.01193">
        <ele>728.40002441406</ele>
        <time>2020-07-25T08:22:46Z</time>
      </trkpt>
      <trkpt lat="45.84469" lon="3.01191">
        <ele>728.59997558594</ele>
        <time>2020-07-25T08:22:47Z</time>
      </trkpt>
      <trkpt lat="45.84472" lon="3.01188">
        <ele>729</ele>
        <time>2020-07-25T08:22:50Z</time>
      </trkpt>
      <trkpt lat="45.84478" lon="3.01176">
        <ele>729.59997558594</ele>
        <time>2020-07-25T08:22:57Z</time>
      </trkpt>
      <trkpt lat="45.8448" lon="3.01161">
        <ele>730.59997558594</ele>
        <time>2020-07-25T08:23:04Z</time>
      </trkpt>
      <trkpt lat="45.8448" lon="3.01159">
        <ele>730.79998779297</ele>
        <time>2020-07-25T08:23:05Z</time>
      </trkpt>
      <trkpt lat="45.84478" lon="3.01153">
        <ele>731.79998779297</ele>
        <time>2020-07-25T08:23:11Z</time>
      </trkpt>
      <trkpt lat="45.84478" lon="3.01153">
        <ele>732.20001220703</ele>
        <time>2020-07-25T08:23:23Z</time>
      </trkpt>
      <trkpt lat="45.84478" lon="3.01153">
        <ele>732.59997558594</ele>
        <time>2020-07-25T08:23:30Z</time>
      </trkpt>
      <trkpt lat="45.84478" lon="3.01153">
        <ele>732.79998779297</ele>
        <time>2020-07-25T08:23:32Z</time>
      </trkpt>
      <trkpt lat="45.84478" lon="3.01153">
        <ele>732.79998779297</ele>
        <time>2020-07-25T08:23:36Z</time>
      </trkpt>
      <trkpt lat="45.84478" lon="3.01152">
        <ele>733.59997558594</ele>
        <time>2020-07-25T08:23:44Z</time>
      </trkpt>
      <trkpt lat="45.84477" lon="3.01148">
        <ele>734</ele>
        <time>2020-07-25T08:23:48Z</time>
      </trkpt>
      <trkpt lat="45.84475" lon="3.01145">
        <ele>734.40002441406</ele>
        <time>2020-07-25T08:23:52Z</time>
      </trkpt>
      <trkpt lat="45.84474" lon="3.01143">
        <ele>735</ele>
        <time>2020-07-25T08:23:58Z</time>
      </trkpt>
      <trkpt lat="45.84474" lon="3.01142">
        <ele>735.20001220703</ele>
        <time>2020-07-25T08:24:00Z</time>
      </trkpt>
      <trkpt lat="45.84472" lon="3.01136">
        <ele>736</ele>
        <time>2020-07-25T08:24:07Z</time>
      </trkpt>
      <trkpt lat="45.84472" lon="3.01136">
        <ele>736</ele>
        <time>2020-07-25T08:24:08Z</time>
      </trkpt>
      <trkpt lat="45.84467" lon="3.01126">
        <ele>736.79998779297</ele>
        <time>2020-07-25T08:24:15Z</time>
      </trkpt>
      <trkpt lat="45.84467" lon="3.01126">
        <ele>737</ele>
        <time>2020-07-25T08:24:19Z</time>
      </trkpt>
      <trkpt lat="45.84467" lon="3.01126">
        <ele>736.40002441406</ele>
        <time>2020-07-25T08:24:29Z</time>
      </trkpt>
      <trkpt lat="45.84467" lon="3.01126">
        <ele>737</ele>
        <time>2020-07-25T08:24:46Z</time>
      </trkpt>
      <trkpt lat="45.84466" lon="3.01126">
        <ele>737</ele>
        <time>2020-07-25T08:24:56Z</time>
      </trkpt>
      <trkpt lat="45.84466" lon="3.01126">
        <ele>737</ele>
        <time>2020-07-25T08:25:02Z</time>
      </trkpt>
      <trkpt lat="45.84461" lon="3.01118">
        <ele>737</ele>
        <time>2020-07-25T08:25:09Z</time>
      </trkpt>
      <trkpt lat="45.8446" lon="3.01115">
        <ele>737</ele>
        <time>2020-07-25T08:25:10Z</time>
      </trkpt>
      <trkpt lat="45.84452" lon="3.01106">
        <ele>737.59997558594</ele>
        <time>2020-07-25T08:25:14Z</time>
      </trkpt>
      <trkpt lat="45.84448" lon="3.01098">
        <ele>738.20001220703</ele>
        <time>2020-07-25T08:25:18Z</time>
      </trkpt>
      <trkpt lat="45.84447" lon="3.01093">
        <ele>738.59997558594</ele>
        <time>2020-07-25T08:25:21Z</time>
      </trkpt>
      <trkpt lat="45.84435" lon="3.01074">
        <ele>739.20001220703</ele>
        <time>2020-07-25T08:25:28Z</time>
      </trkpt>
      <trkpt lat="45.84434" lon="3.01072">
        <ele>739.40002441406</ele>
        <time>2020-07-25T08:25:29Z</time>
      </trkpt>
      <trkpt lat="45.84429" lon="3.01065">
        <ele>739.79998779297</ele>
        <time>2020-07-25T08:25:33Z</time>
      </trkpt>
      <trkpt lat="45.84426" lon="3.01061">
        <ele>740.20001220703</ele>
        <time>2020-07-25T08:25:35Z</time>
      </trkpt>
      <trkpt lat="45.84424" lon="3.01058">
        <ele>740.40002441406</ele>
        <time>2020-07-25T08:25:36Z</time>
      </trkpt>
      <trkpt lat="45.84419" lon="3.01051">
        <ele>740.79998779297</ele>
        <time>2020-07-25T08:25:40Z</time>
      </trkpt>
      <trkpt lat="45.84415" lon="3.01043">
        <ele>741</ele>
        <time>2020-07-25T08:25:45Z</time>
      </trkpt>
      <trkpt lat="45.84413" lon="3.01041">
        <ele>741</ele>
        <time>2020-07-25T08:25:47Z</time>
      </trkpt>
      <trkpt lat="45.84411" lon="3.01036">
        <ele>741.40002441406</ele>
        <time>2020-07-25T08:25:50Z</time>
      </trkpt>
      <trkpt lat="45.84409" lon="3.01031">
        <ele>741.79998779297</ele>
        <time>2020-07-25T08:25:54Z</time>
      </trkpt>
      <trkpt lat="45.84408" lon="3.01027">
        <ele>742</ele>
        <time>2020-07-25T08:25:56Z</time>
      </trkpt>
      <trkpt lat="45.84405" lon="3.01022">
        <ele>742.20001220703</ele>
        <time>2020-07-25T08:25:59Z</time>
      </trkpt>
      <trkpt lat="45.84404" lon="3.01018">
        <ele>742.40002441406</ele>
        <time>2020-07-25T08:26:03Z</time>
      </trkpt>
      <trkpt lat="45.84403" lon="3.01016">
        <ele>742.40002441406</ele>
        <time>2020-07-25T08:26:04Z</time>
      </trkpt>
      <trkpt lat="45.844" lon="3.01005">
        <ele>743.20001220703</ele>
        <time>2020-07-25T08:26:11Z</time>
      </trkpt>
      <trkpt lat="45.84398" lon="3.00999">
        <ele>743.40002441406</ele>
        <time>2020-07-25T08:26:14Z</time>
      </trkpt>
      <trkpt lat="45.84394" lon="3.00991">
        <ele>743.79998779297</ele>
        <time>2020-07-25T08:26:18Z</time>
      </trkpt>
      <trkpt lat="45.84392" lon="3.00984">
        <ele>744.20001220703</ele>
        <time>2020-07-25T08:26:23Z</time>
      </trkpt>
      <trkpt lat="45.84388" lon="3.00974">
        <ele>744.59997558594</ele>
        <time>2020-07-25T08:26:28Z</time>
      </trkpt>
      <trkpt lat="45.84387" lon="3.0097">
        <ele>744.79998779297</ele>
        <time>2020-07-25T08:26:30Z</time>
      </trkpt>
      <trkpt lat="45.84383" lon="3.00955">
        <ele>745.59997558594</ele>
        <time>2020-07-25T08:26:38Z</time>
      </trkpt>
      <trkpt lat="45.8438" lon="3.00944">
        <ele>746.40002441406</ele>
        <time>2020-07-25T08:26:45Z</time>
      </trkpt>
      <trkpt lat="45.84379" lon="3.00939">
        <ele>746.59997558594</ele>
        <time>2020-07-25T08:26:47Z</time>
      </trkpt>
      <trkpt lat="45.84377" lon="3.00932">
        <ele>747.20001220703</ele>
        <time>2020-07-25T08:26:51Z</time>
      </trkpt>
      <trkpt lat="45.84374" lon="3.00925">
        <ele>747.79998779297</ele>
        <time>2020-07-25T08:26:54Z</time>
      </trkpt>
      <trkpt lat="45.84368" lon="3.00915">
        <ele>748.59997558594</ele>
        <time>2020-07-25T08:27:00Z</time>
      </trkpt>
      <trkpt lat="45.84368" lon="3.00914">
        <ele>748.79998779297</ele>
        <time>2020-07-25T08:27:01Z</time>
      </trkpt>
      <trkpt lat="45.84366" lon="3.00908">
        <ele>750</ele>
        <time>2020-07-25T08:27:06Z</time>
      </trkpt>
      <trkpt lat="45.84366" lon="3.00908">
        <ele>750.20001220703</ele>
        <time>2020-07-25T08:27:07Z</time>
      </trkpt>
      <trkpt lat="45.84366" lon="3.00908">
        <ele>750.59997558594</ele>
        <time>2020-07-25T08:27:19Z</time>
      </trkpt>
      <trkpt lat="45.84366" lon="3.00908">
        <ele>750.40002441406</ele>
        <time>2020-07-25T08:27:32Z</time>
      </trkpt>
      <trkpt lat="45.84365" lon="3.00906">
        <ele>750.79998779297</ele>
        <time>2020-07-25T08:27:39Z</time>
      </trkpt>
      <trkpt lat="45.84365" lon="3.00906">
        <ele>751</ele>
        <time>2020-07-25T08:27:41Z</time>
      </trkpt>
      <trkpt lat="45.84362" lon="3.00899">
        <ele>751.79998779297</ele>
        <time>2020-07-25T08:27:46Z</time>
      </trkpt>
      <trkpt lat="45.8436" lon="3.00896">
        <ele>752.40002441406</ele>
        <time>2020-07-25T08:27:48Z</time>
      </trkpt>
      <trkpt lat="45.84356" lon="3.00898">
        <ele>753.40002441406</ele>
        <time>2020-07-25T08:27:54Z</time>
      </trkpt>
      <trkpt lat="45.84354" lon="3.00901">
        <ele>754.40002441406</ele>
        <time>2020-07-25T08:28:00Z</time>
      </trkpt>
      <trkpt lat="45.84353" lon="3.00902">
        <ele>754.59997558594</ele>
        <time>2020-07-25T08:28:01Z</time>
      </trkpt>
      <trkpt lat="45.84352" lon="3.00902">
        <ele>755.40002441406</ele>
        <time>2020-07-25T08:28:07Z</time>
      </trkpt>
      <trkpt lat="45.84352" lon="3.00902">
        <ele>755.59997558594</ele>
        <time>2020-07-25T08:28:15Z</time>
      </trkpt>
      <trkpt lat="45.84352" lon="3.00902">
        <ele>755.59997558594</ele>
        <time>2020-07-25T08:28:16Z</time>
      </trkpt>
      <trkpt lat="45.84352" lon="3.00902">
        <ele>755.59997558594</ele>
        <time>2020-07-25T08:28:18Z</time>
      </trkpt>
      <trkpt lat="45.84352" lon="3.00902">
        <ele>755.40002441406</ele>
        <time>2020-07-25T08:28:34Z</time>
      </trkpt>
      <trkpt lat="45.84352" lon="3.00902">
        <ele>755.59997558594</ele>
        <time>2020-07-25T08:28:43Z</time>
      </trkpt>
      <trkpt lat="45.84352" lon="3.00901">
        <ele>755.40002441406</ele>
        <time>2020-07-25T08:28:58Z</time>
      </trkpt>
      <trkpt lat="45.84351" lon="3.00899">
        <ele>755.79998779297</ele>
        <time>2020-07-25T08:29:06Z</time>
      </trkpt>
      <trkpt lat="45.84349" lon="3.00889">
        <ele>756.40002441406</ele>
        <time>2020-07-25T08:29:13Z</time>
      </trkpt>
      <trkpt lat="45.84348" lon="3.00885">
        <ele>756.59997558594</ele>
        <time>2020-07-25T08:29:15Z</time>
      </trkpt>
      <trkpt lat="45.84347" lon="3.00882">
        <ele>757.40002441406</ele>
        <time>2020-07-25T08:29:21Z</time>
      </trkpt>
      <trkpt lat="45.84347" lon="3.00882">
        <ele>757.59997558594</ele>
        <time>2020-07-25T08:29:29Z</time>
      </trkpt>
      <trkpt lat="45.84347" lon="3.00882">
        <ele>757.59997558594</ele>
        <time>2020-07-25T08:29:36Z</time>
      </trkpt>
      <trkpt lat="45.84347" lon="3.00882">
        <ele>757.59997558594</ele>
        <time>2020-07-25T08:29:46Z</time>
      </trkpt>
      <trkpt lat="45.84346" lon="3.00881">
        <ele>757.59997558594</ele>
        <time>2020-07-25T08:29:55Z</time>
      </trkpt>
      <trkpt lat="45.84347" lon="3.00879">
        <ele>757.59997558594</ele>
        <time>2020-07-25T08:29:56Z</time>
      </trkpt>
      <trkpt lat="45.84348" lon="3.0087">
        <ele>758</ele>
        <time>2020-07-25T08:30:01Z</time>
      </trkpt>
      <trkpt lat="45.84345" lon="3.00854">
        <ele>758.79998779297</ele>
        <time>2020-07-25T08:30:07Z</time>
      </trkpt>
      <trkpt lat="45.84343" lon="3.00842">
        <ele>760</ele>
        <time>2020-07-25T08:30:13Z</time>
      </trkpt>
      <trkpt lat="45.84343" lon="3.00839">
        <ele>760.20001220703</ele>
        <time>2020-07-25T08:30:14Z</time>
      </trkpt>
      <trkpt lat="45.84341" lon="3.00831">
        <ele>761</ele>
        <time>2020-07-25T08:30:18Z</time>
      </trkpt>
      <trkpt lat="45.84338" lon="3.00822">
        <ele>762</ele>
        <time>2020-07-25T08:30:23Z</time>
      </trkpt>
      <trkpt lat="45.84337" lon="3.00818">
        <ele>762.20001220703</ele>
        <time>2020-07-25T08:30:25Z</time>
      </trkpt>
      <trkpt lat="45.84332" lon="3.00807">
        <ele>762.79998779297</ele>
        <time>2020-07-25T08:30:31Z</time>
      </trkpt>
      <trkpt lat="45.84331" lon="3.00806">
        <ele>763</ele>
        <time>2020-07-25T08:30:32Z</time>
      </trkpt>
      <trkpt lat="45.8433" lon="3.00803">
        <ele>763.20001220703</ele>
        <time>2020-07-25T08:30:34Z</time>
      </trkpt>
      <trkpt lat="45.84328" lon="3.00795">
        <ele>763.59997558594</ele>
        <time>2020-07-25T08:30:38Z</time>
      </trkpt>
      <trkpt lat="45.84322" lon="3.00785">
        <ele>764</ele>
        <time>2020-07-25T08:30:45Z</time>
      </trkpt>
      <trkpt lat="45.84321" lon="3.00782">
        <ele>764.20001220703</ele>
        <time>2020-07-25T08:30:47Z</time>
      </trkpt>
      <trkpt lat="45.84317" lon="3.00774">
        <ele>764.79998779297</ele>
        <time>2020-07-25T08:30:52Z</time>
      </trkpt>
      <trkpt lat="45.84315" lon="3.0077">
        <ele>765.20001220703</ele>
        <time>2020-07-25T08:30:55Z</time>
      </trkpt>
      <trkpt lat="45.84312" lon="3.00766">
        <ele>765.59997558594</ele>
        <time>2020-07-25T08:30:58Z</time>
      </trkpt>
      <trkpt lat="45.84304" lon="3.00756">
        <ele>766.40002441406</ele>
        <time>2020-07-25T08:31:05Z</time>
      </trkpt>
      <trkpt lat="45.84303" lon="3.00755">
        <ele>766.40002441406</ele>
        <time>2020-07-25T08:31:06Z</time>
      </trkpt>
      <trkpt lat="45.843" lon="3.00752">
        <ele>766.79998779297</ele>
        <time>2020-07-25T08:31:09Z</time>
      </trkpt>
      <trkpt lat="45.84296" lon="3.00748">
        <ele>767.20001220703</ele>
        <time>2020-07-25T08:31:12Z</time>
      </trkpt>
      <trkpt lat="45.84293" lon="3.00746">
        <ele>767.40002441406</ele>
        <time>2020-07-25T08:31:15Z</time>
      </trkpt>
      <trkpt lat="45.84292" lon="3.00746">
        <ele>767.59997558594</ele>
        <time>2020-07-25T08:31:19Z</time>
      </trkpt>
      <trkpt lat="45.8429" lon="3.00745">
        <ele>767.79998779297</ele>
        <time>2020-07-25T08:31:29Z</time>
      </trkpt>
      <trkpt lat="45.84282" lon="3.00738">
        <ele>767.59997558594</ele>
        <time>2020-07-25T08:31:35Z</time>
      </trkpt>
      <trkpt lat="45.84272" lon="3.00731">
        <ele>767.79998779297</ele>
        <time>2020-07-25T08:31:42Z</time>
      </trkpt>
      <trkpt lat="45.84264" lon="3.00726">
        <ele>768</ele>
        <time>2020-07-25T08:31:48Z</time>
      </trkpt>
      <trkpt lat="45.84261" lon="3.00726">
        <ele>768.20001220703</ele>
        <time>2020-07-25T08:31:50Z</time>
      </trkpt>
      <trkpt lat="45.84255" lon="3.00723">
        <ele>768.40002441406</ele>
        <time>2020-07-25T08:31:54Z</time>
      </trkpt>
      <trkpt lat="45.84254" lon="3.00722">
        <ele>768.40002441406</ele>
        <time>2020-07-25T08:31:55Z</time>
      </trkpt>
      <trkpt lat="45.84246" lon="3.00719">
        <ele>769</ele>
        <time>2020-07-25T08:32:00Z</time>
      </trkpt>
      <trkpt lat="45.84235" lon="3.00715">
        <ele>769.20001220703</ele>
        <time>2020-07-25T08:32:08Z</time>
      </trkpt>
      <trkpt lat="45.8423" lon="3.00714">
        <ele>769.59997558594</ele>
        <time>2020-07-25T08:32:12Z</time>
      </trkpt>
      <trkpt lat="45.84227" lon="3.00714">
        <ele>769.59997558594</ele>
        <time>2020-07-25T08:32:14Z</time>
      </trkpt>
      <trkpt lat="45.84216" lon="3.00712">
        <ele>770.20001220703</ele>
        <time>2020-07-25T08:32:21Z</time>
      </trkpt>
      <trkpt lat="45.84204" lon="3.00707">
        <ele>770.40002441406</ele>
        <time>2020-07-25T08:32:28Z</time>
      </trkpt>
      <trkpt lat="45.84199" lon="3.00708">
        <ele>770.40002441406</ele>
        <time>2020-07-25T08:32:31Z</time>
      </trkpt>
      <trkpt lat="45.84193" lon="3.00706">
        <ele>770.40002441406</ele>
        <time>2020-07-25T08:32:34Z</time>
      </trkpt>
      <trkpt lat="45.84182" lon="3.00703">
        <ele>770.20001220703</ele>
        <time>2020-07-25T08:32:40Z</time>
      </trkpt>
      <trkpt lat="45.84171" lon="3.00697">
        <ele>770.20001220703</ele>
        <time>2020-07-25T08:32:46Z</time>
      </trkpt>
      <trkpt lat="45.84162" lon="3.00688">
        <ele>770.20001220703</ele>
        <time>2020-07-25T08:32:52Z</time>
      </trkpt>
      <trkpt lat="45.8416" lon="3.00687">
        <ele>770.20001220703</ele>
        <time>2020-07-25T08:32:53Z</time>
      </trkpt>
      <trkpt lat="45.84153" lon="3.00683">
        <ele>770.40002441406</ele>
        <time>2020-07-25T08:32:57Z</time>
      </trkpt>
      <trkpt lat="45.84148" lon="3.00678">
        <ele>770.59997558594</ele>
        <time>2020-07-25T08:33:00Z</time>
      </trkpt>
      <trkpt lat="45.84141" lon="3.0067">
        <ele>771</ele>
        <time>2020-07-25T08:33:05Z</time>
      </trkpt>
      <trkpt lat="45.84136" lon="3.00668">
        <ele>771.79998779297</ele>
        <time>2020-07-25T08:33:08Z</time>
      </trkpt>
      <trkpt lat="45.84132" lon="3.00671">
        <ele>772.40002441406</ele>
        <time>2020-07-25T08:33:11Z</time>
      </trkpt>
      <trkpt lat="45.84131" lon="3.00671">
        <ele>772.79998779297</ele>
        <time>2020-07-25T08:33:14Z</time>
      </trkpt>
      <trkpt lat="45.84131" lon="3.00671">
        <ele>773</ele>
        <time>2020-07-25T08:33:17Z</time>
      </trkpt>
      <trkpt lat="45.84131" lon="3.00671">
        <ele>773.20001220703</ele>
        <time>2020-07-25T08:33:29Z</time>
      </trkpt>
      <trkpt lat="45.84131" lon="3.00671">
        <ele>773.20001220703</ele>
        <time>2020-07-25T08:33:44Z</time>
      </trkpt>
      <trkpt lat="45.84131" lon="3.00671">
        <ele>773.20001220703</ele>
        <time>2020-07-25T08:33:54Z</time>
      </trkpt>
      <trkpt lat="45.84128" lon="3.00674">
        <ele>773</ele>
        <time>2020-07-25T08:34:06Z</time>
      </trkpt>
      <trkpt lat="45.8412" lon="3.0068">
        <ele>773</ele>
        <time>2020-07-25T08:34:13Z</time>
      </trkpt>
      <trkpt lat="45.84116" lon="3.00682">
        <ele>773</ele>
        <time>2020-07-25T08:34:16Z</time>
      </trkpt>
      <trkpt lat="45.84111" lon="3.00684">
        <ele>773.40002441406</ele>
        <time>2020-07-25T08:34:20Z</time>
      </trkpt>
      <trkpt lat="45.84108" lon="3.00687">
        <ele>773.59997558594</ele>
        <time>2020-07-25T08:34:22Z</time>
      </trkpt>
      <trkpt lat="45.84102" lon="3.0069">
        <ele>773.79998779297</ele>
        <time>2020-07-25T08:34:26Z</time>
      </trkpt>
      <trkpt lat="45.84098" lon="3.00692">
        <ele>773.79998779297</ele>
        <time>2020-07-25T08:34:28Z</time>
      </trkpt>
      <trkpt lat="45.84089" lon="3.00696">
        <ele>773.79998779297</ele>
        <time>2020-07-25T08:34:33Z</time>
      </trkpt>
      <trkpt lat="45.84087" lon="3.00696">
        <ele>773.79998779297</ele>
        <time>2020-07-25T08:34:34Z</time>
      </trkpt>
      <trkpt lat="45.84075" lon="3.00702">
        <ele>774.59997558594</ele>
        <time>2020-07-25T08:34:42Z</time>
      </trkpt>
      <trkpt lat="45.84067" lon="3.00705">
        <ele>774.79998779297</ele>
        <time>2020-07-25T08:34:47Z</time>
      </trkpt>
      <trkpt lat="45.84064" lon="3.00707">
        <ele>775</ele>
        <time>2020-07-25T08:34:49Z</time>
      </trkpt>
      <trkpt lat="45.84052" lon="3.00712">
        <ele>775.59997558594</ele>
        <time>2020-07-25T08:34:56Z</time>
      </trkpt>
      <trkpt lat="45.84044" lon="3.00714">
        <ele>776</ele>
        <time>2020-07-25T08:35:01Z</time>
      </trkpt>
      <trkpt lat="45.84032" lon="3.0072">
        <ele>777</ele>
        <time>2020-07-25T08:35:09Z</time>
      </trkpt>
      <trkpt lat="45.8403" lon="3.0072">
        <ele>777</ele>
        <time>2020-07-25T08:35:10Z</time>
      </trkpt>
      <trkpt lat="45.84023" lon="3.00723">
        <ele>777.79998779297</ele>
        <time>2020-07-25T08:35:16Z</time>
      </trkpt>
      <trkpt lat="45.84014" lon="3.00725">
        <ele>778.20001220703</ele>
        <time>2020-07-25T08:35:22Z</time>
      </trkpt>
      <trkpt lat="45.84007" lon="3.00727">
        <ele>778.20001220703</ele>
        <time>2020-07-25T08:35:26Z</time>
      </trkpt>
      <trkpt lat="45.83992" lon="3.00732">
        <ele>778.79998779297</ele>
        <time>2020-07-25T08:35:35Z</time>
      </trkpt>
      <trkpt lat="45.83988" lon="3.00734">
        <ele>779.20001220703</ele>
        <time>2020-07-25T08:35:38Z</time>
      </trkpt>
      <trkpt lat="45.83979" lon="3.0074">
        <ele>779.59997558594</ele>
        <time>2020-07-25T08:35:44Z</time>
      </trkpt>
      <trkpt lat="45.83969" lon="3.00745">
        <ele>780.20001220703</ele>
        <time>2020-07-25T08:35:51Z</time>
      </trkpt>
      <trkpt lat="45.83957" lon="3.00754">
        <ele>780.79998779297</ele>
        <time>2020-07-25T08:35:59Z</time>
      </trkpt>
      <trkpt lat="45.8395" lon="3.00758">
        <ele>781.20001220703</ele>
        <time>2020-07-25T08:36:04Z</time>
      </trkpt>
      <trkpt lat="45.83947" lon="3.0076">
        <ele>781.59997558594</ele>
        <time>2020-07-25T08:36:07Z</time>
      </trkpt>
      <trkpt lat="45.83939" lon="3.00764">
        <ele>782</ele>
        <time>2020-07-25T08:36:14Z</time>
      </trkpt>
      <trkpt lat="45.83935" lon="3.00766">
        <ele>782.20001220703</ele>
        <time>2020-07-25T08:36:19Z</time>
      </trkpt>
      <trkpt lat="45.83932" lon="3.00767">
        <ele>782.40002441406</ele>
        <time>2020-07-25T08:36:21Z</time>
      </trkpt>
      <trkpt lat="45.83922" lon="3.00773">
        <ele>782.59997558594</ele>
        <time>2020-07-25T08:36:29Z</time>
      </trkpt>
      <trkpt lat="45.83906" lon="3.00785">
        <ele>783</ele>
        <time>2020-07-25T08:36:37Z</time>
      </trkpt>
      <trkpt lat="45.83896" lon="3.0079">
        <ele>783.20001220703</ele>
        <time>2020-07-25T08:36:43Z</time>
      </trkpt>
      <trkpt lat="45.83888" lon="3.00798">
        <ele>783.20001220703</ele>
        <time>2020-07-25T08:36:48Z</time>
      </trkpt>
      <trkpt lat="45.83885" lon="3.00801">
        <ele>783.20001220703</ele>
        <time>2020-07-25T08:36:50Z</time>
      </trkpt>
      <trkpt lat="45.83878" lon="3.00805">
        <ele>783.20001220703</ele>
        <time>2020-07-25T08:36:54Z</time>
      </trkpt>
      <trkpt lat="45.83873" lon="3.0081">
        <ele>783.20001220703</ele>
        <time>2020-07-25T08:36:57Z</time>
      </trkpt>
      <trkpt lat="45.83859" lon="3.00821">
        <ele>783.20001220703</ele>
        <time>2020-07-25T08:37:04Z</time>
      </trkpt>
      <trkpt lat="45.83857" lon="3.00823">
        <ele>783.20001220703</ele>
        <time>2020-07-25T08:37:05Z</time>
      </trkpt>
      <trkpt lat="45.83849" lon="3.00829">
        <ele>783.59997558594</ele>
        <time>2020-07-25T08:37:10Z</time>
      </trkpt>
      <trkpt lat="45.83833" lon="3.0084">
        <ele>784</ele>
        <time>2020-07-25T08:37:18Z</time>
      </trkpt>
      <trkpt lat="45.83821" lon="3.0085">
        <ele>784.40002441406</ele>
        <time>2020-07-25T08:37:25Z</time>
      </trkpt>
      <trkpt lat="45.83818" lon="3.00852">
        <ele>784.59997558594</ele>
        <time>2020-07-25T08:37:27Z</time>
      </trkpt>
      <trkpt lat="45.83806" lon="3.00861">
        <ele>785</ele>
        <time>2020-07-25T08:37:34Z</time>
      </trkpt>
      <trkpt lat="45.83794" lon="3.0087">
        <ele>785.40002441406</ele>
        <time>2020-07-25T08:37:41Z</time>
      </trkpt>
      <trkpt lat="45.83792" lon="3.00871">
        <ele>785.40002441406</ele>
        <time>2020-07-25T08:37:42Z</time>
      </trkpt>
      <trkpt lat="45.83781" lon="3.0088">
        <ele>785.59997558594</ele>
        <time>2020-07-25T08:37:49Z</time>
      </trkpt>
      <trkpt lat="45.83773" lon="3.00885">
        <ele>785.59997558594</ele>
        <time>2020-07-25T08:37:55Z</time>
      </trkpt>
      <trkpt lat="45.83766" lon="3.0089">
        <ele>785.79998779297</ele>
        <time>2020-07-25T08:37:59Z</time>
      </trkpt>
      <trkpt lat="45.83764" lon="3.00892">
        <ele>785.79998779297</ele>
        <time>2020-07-25T08:38:00Z</time>
      </trkpt>
      <trkpt lat="45.83752" lon="3.00903">
        <ele>786.20001220703</ele>
        <time>2020-07-25T08:38:07Z</time>
      </trkpt>
      <trkpt lat="45.8375" lon="3.00904">
        <ele>786.40002441406</ele>
        <time>2020-07-25T08:38:08Z</time>
      </trkpt>
      <trkpt lat="45.83741" lon="3.00912">
        <ele>787.40002441406</ele>
        <time>2020-07-25T08:38:14Z</time>
      </trkpt>
      <trkpt lat="45.83732" lon="3.00917">
        <ele>788</ele>
        <time>2020-07-25T08:38:20Z</time>
      </trkpt>
      <trkpt lat="45.83727" lon="3.0092">
        <ele>788.59997558594</ele>
        <time>2020-07-25T08:38:23Z</time>
      </trkpt>
      <trkpt lat="45.83719" lon="3.00926">
        <ele>789.20001220703</ele>
        <time>2020-07-25T08:38:29Z</time>
      </trkpt>
      <trkpt lat="45.83717" lon="3.00928">
        <ele>789.59997558594</ele>
        <time>2020-07-25T08:38:31Z</time>
      </trkpt>
      <trkpt lat="45.83711" lon="3.00933">
        <ele>790.20001220703</ele>
        <time>2020-07-25T08:38:36Z</time>
      </trkpt>
      <trkpt lat="45.83707" lon="3.00936">
        <ele>790.79998779297</ele>
        <time>2020-07-25T08:38:39Z</time>
      </trkpt>
      <trkpt lat="45.837" lon="3.00943">
        <ele>791.79998779297</ele>
        <time>2020-07-25T08:38:46Z</time>
      </trkpt>
      <trkpt lat="45.83697" lon="3.00944">
        <ele>792</ele>
        <time>2020-07-25T08:38:48Z</time>
      </trkpt>
      <trkpt lat="45.83691" lon="3.00946">
        <ele>792.79998779297</ele>
        <time>2020-07-25T08:38:53Z</time>
      </trkpt>
      <trkpt lat="45.83688" lon="3.0095">
        <ele>793.20001220703</ele>
        <time>2020-07-25T08:38:56Z</time>
      </trkpt>
      <trkpt lat="45.83686" lon="3.00952">
        <ele>793.59997558594</ele>
        <time>2020-07-25T08:38:58Z</time>
      </trkpt>
      <trkpt lat="45.83682" lon="3.00953">
        <ele>794</ele>
        <time>2020-07-25T08:39:01Z</time>
      </trkpt>
      <trkpt lat="45.83681" lon="3.00954">
        <ele>794.20001220703</ele>
        <time>2020-07-25T08:39:02Z</time>
      </trkpt>
      <trkpt lat="45.83674" lon="3.00962">
        <ele>795</ele>
        <time>2020-07-25T08:39:09Z</time>
      </trkpt>
      <trkpt lat="45.83673" lon="3.00963">
        <ele>795.20001220703</ele>
        <time>2020-07-25T08:39:10Z</time>
      </trkpt>
      <trkpt lat="45.83672" lon="3.00964">
        <ele>795.40002441406</ele>
        <time>2020-07-25T08:39:11Z</time>
      </trkpt>
      <trkpt lat="45.83667" lon="3.00969">
        <ele>796.20001220703</ele>
        <time>2020-07-25T08:39:18Z</time>
      </trkpt>
      <trkpt lat="45.83666" lon="3.00969">
        <ele>796.40002441406</ele>
        <time>2020-07-25T08:39:19Z</time>
      </trkpt>
      <trkpt lat="45.8366" lon="3.00974">
        <ele>797.20001220703</ele>
        <time>2020-07-25T08:39:26Z</time>
      </trkpt>
      <trkpt lat="45.83659" lon="3.00975">
        <ele>797.40002441406</ele>
        <time>2020-07-25T08:39:27Z</time>
      </trkpt>
      <trkpt lat="45.83652" lon="3.00982">
        <ele>797.79998779297</ele>
        <time>2020-07-25T08:39:34Z</time>
      </trkpt>
      <trkpt lat="45.83648" lon="3.00989">
        <ele>798.20001220703</ele>
        <time>2020-07-25T08:39:39Z</time>
      </trkpt>
      <trkpt lat="45.83647" lon="3.00996">
        <ele>798.59997558594</ele>
        <time>2020-07-25T08:39:43Z</time>
      </trkpt>
      <trkpt lat="45.83644" lon="3.01006">
        <ele>799.20001220703</ele>
        <time>2020-07-25T08:39:51Z</time>
      </trkpt>
      <trkpt lat="45.83644" lon="3.01007">
        <ele>799.20001220703</ele>
        <time>2020-07-25T08:40:00Z</time>
      </trkpt>
      <trkpt lat="45.83644" lon="3.01007">
        <ele>799.20001220703</ele>
        <time>2020-07-25T08:40:11Z</time>
      </trkpt>
      <trkpt lat="45.83644" lon="3.01007">
        <ele>799.20001220703</ele>
        <time>2020-07-25T08:40:15Z</time>
      </trkpt>
      <trkpt lat="45.83644" lon="3.01007">
        <ele>799.20001220703</ele>
        <time>2020-07-25T08:40:25Z</time>
      </trkpt>
      <trkpt lat="45.83644" lon="3.01007">
        <ele>799.20001220703</ele>
        <time>2020-07-25T08:40:32Z</time>
      </trkpt>
      <trkpt lat="45.83644" lon="3.01007">
        <ele>799.20001220703</ele>
        <time>2020-07-25T08:40:47Z</time>
      </trkpt>
      <trkpt lat="45.83644" lon="3.01007">
        <ele>799.20001220703</ele>
        <time>2020-07-25T08:41:00Z</time>
      </trkpt>
      <trkpt lat="45.83643" lon="3.01007">
        <ele>799.40002441406</ele>
        <time>2020-07-25T08:41:13Z</time>
      </trkpt>
      <trkpt lat="45.83643" lon="3.01007">
        <ele>799.59997558594</ele>
        <time>2020-07-25T08:41:27Z</time>
      </trkpt>
      <trkpt lat="45.83643" lon="3.01007">
        <ele>799.59997558594</ele>
        <time>2020-07-25T08:41:39Z</time>
      </trkpt>
      <trkpt lat="45.83643" lon="3.01007">
        <ele>799.59997558594</ele>
        <time>2020-07-25T08:41:54Z</time>
      </trkpt>
      <trkpt lat="45.83642" lon="3.01007">
        <ele>799.59997558594</ele>
        <time>2020-07-25T08:41:55Z</time>
      </trkpt>
      <trkpt lat="45.8364" lon="3.01013">
        <ele>799.59997558594</ele>
        <time>2020-07-25T08:41:59Z</time>
      </trkpt>
      <trkpt lat="45.83631" lon="3.01029">
        <ele>799.79998779297</ele>
        <time>2020-07-25T08:42:09Z</time>
      </trkpt>
      <trkpt lat="45.83624" lon="3.0104">
        <ele>800</ele>
        <time>2020-07-25T08:42:15Z</time>
      </trkpt>
      <trkpt lat="45.83622" lon="3.01043">
        <ele>800.20001220703</ele>
        <time>2020-07-25T08:42:17Z</time>
      </trkpt>
      <trkpt lat="45.83613" lon="3.01055">
        <ele>800.79998779297</ele>
        <time>2020-07-25T08:42:24Z</time>
      </trkpt>
      <trkpt lat="45.83602" lon="3.0107">
        <ele>801.20001220703</ele>
        <time>2020-07-25T08:42:30Z</time>
      </trkpt>
      <trkpt lat="45.83593" lon="3.01091">
        <ele>801</ele>
        <time>2020-07-25T08:42:36Z</time>
      </trkpt>
      <trkpt lat="45.83576" lon="3.01119">
        <ele>800.40002441406</ele>
        <time>2020-07-25T08:42:43Z</time>
      </trkpt>
      <trkpt lat="45.83555" lon="3.01145">
        <ele>799.59997558594</ele>
        <time>2020-07-25T08:42:49Z</time>
      </trkpt>
      <trkpt lat="45.83544" lon="3.01158">
        <ele>799.20001220703</ele>
        <time>2020-07-25T08:42:52Z</time>
      </trkpt>
      <trkpt lat="45.83529" lon="3.01175">
        <ele>798.40002441406</ele>
        <time>2020-07-25T08:42:56Z</time>
      </trkpt>
      <trkpt lat="45.83522" lon="3.01184">
        <ele>798</ele>
        <time>2020-07-25T08:42:58Z</time>
      </trkpt>
      <trkpt lat="45.83516" lon="3.01194">
        <ele>797.79998779297</ele>
        <time>2020-07-25T08:43:00Z</time>
      </trkpt>
      <trkpt lat="45.83514" lon="3.01198">
        <ele>797.79998779297</ele>
        <time>2020-07-25T08:43:01Z</time>
      </trkpt>
      <trkpt lat="45.835" lon="3.01232">
        <ele>797</ele>
        <time>2020-07-25T08:43:07Z</time>
      </trkpt>
      <trkpt lat="45.83492" lon="3.01251">
        <ele>796.79998779297</ele>
        <time>2020-07-25T08:43:10Z</time>
      </trkpt>
      <trkpt lat="45.83484" lon="3.01261">
        <ele>796.59997558594</ele>
        <time>2020-07-25T08:43:12Z</time>
      </trkpt>
      <trkpt lat="45.83471" lon="3.01271">
        <ele>796.20001220703</ele>
        <time>2020-07-25T08:43:15Z</time>
      </trkpt>
      <trkpt lat="45.83462" lon="3.01276">
        <ele>796</ele>
        <time>2020-07-25T08:43:17Z</time>
      </trkpt>
      <trkpt lat="45.83435" lon="3.01285">
        <ele>795.40002441406</ele>
        <time>2020-07-25T08:43:22Z</time>
      </trkpt>
      <trkpt lat="45.8343" lon="3.01286">
        <ele>795.20001220703</ele>
        <time>2020-07-25T08:43:23Z</time>
      </trkpt>
      <trkpt lat="45.83424" lon="3.01286">
        <ele>795</ele>
        <time>2020-07-25T08:43:24Z</time>
      </trkpt>
      <trkpt lat="45.83419" lon="3.01285">
        <ele>794.79998779297</ele>
        <time>2020-07-25T08:43:25Z</time>
      </trkpt>
      <trkpt lat="45.83407" lon="3.01286">
        <ele>794.40002441406</ele>
        <time>2020-07-25T08:43:27Z</time>
      </trkpt>
      <trkpt lat="45.83372" lon="3.0129">
        <ele>793.79998779297</ele>
        <time>2020-07-25T08:43:33Z</time>
      </trkpt>
      <trkpt lat="45.83354" lon="3.01293">
        <ele>793.20001220703</ele>
        <time>2020-07-25T08:43:36Z</time>
      </trkpt>
      <trkpt lat="45.83313" lon="3.01306">
        <ele>792.79998779297</ele>
        <time>2020-07-25T08:43:43Z</time>
      </trkpt>
      <trkpt lat="45.83271" lon="3.01331">
        <ele>792.79998779297</ele>
        <time>2020-07-25T08:43:51Z</time>
      </trkpt>
      <trkpt lat="45.83225" lon="3.01359">
        <ele>793</ele>
        <time>2020-07-25T08:44:00Z</time>
      </trkpt>
      <trkpt lat="45.8319" lon="3.01369">
        <ele>794</ele>
        <time>2020-07-25T08:44:07Z</time>
      </trkpt>
      <trkpt lat="45.83174" lon="3.01372">
        <ele>795</ele>
        <time>2020-07-25T08:44:10Z</time>
      </trkpt>
      <trkpt lat="45.83154" lon="3.01375">
        <ele>796.40002441406</ele>
        <time>2020-07-25T08:44:14Z</time>
      </trkpt>
      <trkpt lat="45.83144" lon="3.01376">
        <ele>797</ele>
        <time>2020-07-25T08:44:16Z</time>
      </trkpt>
      <trkpt lat="45.8314" lon="3.01376">
        <ele>797.20001220703</ele>
        <time>2020-07-25T08:44:17Z</time>
      </trkpt>
      <trkpt lat="45.83136" lon="3.01376">
        <ele>797.59997558594</ele>
        <time>2020-07-25T08:44:18Z</time>
      </trkpt>
      <trkpt lat="45.83129" lon="3.01375">
        <ele>798</ele>
        <time>2020-07-25T08:44:20Z</time>
      </trkpt>
      <trkpt lat="45.83124" lon="3.01376">
        <ele>798.59997558594</ele>
        <time>2020-07-25T08:44:22Z</time>
      </trkpt>
      <trkpt lat="45.83114" lon="3.01379">
        <ele>799.79998779297</ele>
        <time>2020-07-25T08:44:26Z</time>
      </trkpt>
      <trkpt lat="45.83098" lon="3.0139">
        <ele>800</ele>
        <time>2020-07-25T08:44:34Z</time>
      </trkpt>
      <trkpt lat="45.83097" lon="3.01392">
        <ele>800</ele>
        <time>2020-07-25T08:44:35Z</time>
      </trkpt>
      <trkpt lat="45.83093" lon="3.01397">
        <ele>799.20001220703</ele>
        <time>2020-07-25T08:44:39Z</time>
      </trkpt>
      <trkpt lat="45.83093" lon="3.01397">
        <ele>798.79998779297</ele>
        <time>2020-07-25T08:44:42Z</time>
      </trkpt>
      <trkpt lat="45.83093" lon="3.01397">
        <ele>798.59997558594</ele>
        <time>2020-07-25T08:44:46Z</time>
      </trkpt>
      <trkpt lat="45.83089" lon="3.01402">
        <ele>798.59997558594</ele>
        <time>2020-07-25T08:44:49Z</time>
      </trkpt>
      <trkpt lat="45.83086" lon="3.01405">
        <ele>798.40002441406</ele>
        <time>2020-07-25T08:44:50Z</time>
      </trkpt>
      <trkpt lat="45.83069" lon="3.01413">
        <ele>798</ele>
        <time>2020-07-25T08:44:53Z</time>
      </trkpt>
      <trkpt lat="45.83063" lon="3.01416">
        <ele>797.59997558594</ele>
        <time>2020-07-25T08:44:54Z</time>
      </trkpt>
      <trkpt lat="45.83055" lon="3.0143">
        <ele>796.40002441406</ele>
        <time>2020-07-25T08:44:56Z</time>
      </trkpt>
      <trkpt lat="45.83046" lon="3.01441">
        <ele>795.20001220703</ele>
        <time>2020-07-25T08:44:58Z</time>
      </trkpt>
      <trkpt lat="45.8304" lon="3.01444">
        <ele>794.59997558594</ele>
        <time>2020-07-25T08:44:59Z</time>
      </trkpt>
      <trkpt lat="45.83034" lon="3.01445">
        <ele>794</ele>
        <time>2020-07-25T08:45:00Z</time>
      </trkpt>
      <trkpt lat="45.83019" lon="3.01445">
        <ele>791.79998779297</ele>
        <time>2020-07-25T08:45:02Z</time>
      </trkpt>
      <trkpt lat="45.83006" lon="3.01444">
        <ele>790.40002441406</ele>
        <time>2020-07-25T08:45:04Z</time>
      </trkpt>
      <trkpt lat="45.83" lon="3.01445">
        <ele>789.79998779297</ele>
        <time>2020-07-25T08:45:05Z</time>
      </trkpt>
      <trkpt lat="45.82994" lon="3.01449">
        <ele>789.20001220703</ele>
        <time>2020-07-25T08:45:06Z</time>
      </trkpt>
      <trkpt lat="45.82982" lon="3.01459">
        <ele>788.20001220703</ele>
        <time>2020-07-25T08:45:08Z</time>
      </trkpt>
      <trkpt lat="45.82977" lon="3.01464">
        <ele>787.59997558594</ele>
        <time>2020-07-25T08:45:09Z</time>
      </trkpt>
      <trkpt lat="45.82972" lon="3.01468">
        <ele>787.20001220703</ele>
        <time>2020-07-25T08:45:10Z</time>
      </trkpt>
      <trkpt lat="45.82964" lon="3.01476">
        <ele>785.79998779297</ele>
        <time>2020-07-25T08:45:12Z</time>
      </trkpt>
      <trkpt lat="45.82962" lon="3.01483">
        <ele>785.20001220703</ele>
        <time>2020-07-25T08:45:13Z</time>
      </trkpt>
      <trkpt lat="45.82962" lon="3.01491">
        <ele>784.59997558594</ele>
        <time>2020-07-25T08:45:14Z</time>
      </trkpt>
      <trkpt lat="45.82964" lon="3.01508">
        <ele>783.40002441406</ele>
        <time>2020-07-25T08:45:16Z</time>
      </trkpt>
      <trkpt lat="45.82967" lon="3.01524">
        <ele>782.20001220703</ele>
        <time>2020-07-25T08:45:18Z</time>
      </trkpt>
      <trkpt lat="45.82973" lon="3.01542">
        <ele>781.20001220703</ele>
        <time>2020-07-25T08:45:20Z</time>
      </trkpt>
      <trkpt lat="45.82977" lon="3.0155">
        <ele>780.79998779297</ele>
        <time>2020-07-25T08:45:21Z</time>
      </trkpt>
      <trkpt lat="45.82988" lon="3.01562">
        <ele>779.79998779297</ele>
        <time>2020-07-25T08:45:23Z</time>
      </trkpt>
      <trkpt lat="45.83002" lon="3.01571">
        <ele>778.59997558594</ele>
        <time>2020-07-25T08:45:25Z</time>
      </trkpt>
      <trkpt lat="45.83009" lon="3.01575">
        <ele>777.40002441406</ele>
        <time>2020-07-25T08:45:26Z</time>
      </trkpt>
      <trkpt lat="45.83015" lon="3.0158">
        <ele>776.59997558594</ele>
        <time>2020-07-25T08:45:27Z</time>
      </trkpt>
      <trkpt lat="45.83022" lon="3.01586">
        <ele>776</ele>
        <time>2020-07-25T08:45:28Z</time>
      </trkpt>
      <trkpt lat="45.83042" lon="3.01603">
        <ele>774.79998779297</ele>
        <time>2020-07-25T08:45:31Z</time>
      </trkpt>
      <trkpt lat="45.83055" lon="3.01614">
        <ele>773.79998779297</ele>
        <time>2020-07-25T08:45:33Z</time>
      </trkpt>
      <trkpt lat="45.83062" lon="3.01619">
        <ele>773.20001220703</ele>
        <time>2020-07-25T08:45:34Z</time>
      </trkpt>
      <trkpt lat="45.83069" lon="3.01625">
        <ele>772.79998779297</ele>
        <time>2020-07-25T08:45:35Z</time>
      </trkpt>
      <trkpt lat="45.83075" lon="3.01631">
        <ele>772.40002441406</ele>
        <time>2020-07-25T08:45:36Z</time>
      </trkpt>
      <trkpt lat="45.83084" lon="3.01646">
        <ele>771.79998779297</ele>
        <time>2020-07-25T08:45:38Z</time>
      </trkpt>
      <trkpt lat="45.83086" lon="3.01655">
        <ele>771.40002441406</ele>
        <time>2020-07-25T08:45:39Z</time>
      </trkpt>
      <trkpt lat="45.83087" lon="3.01675">
        <ele>771</ele>
        <time>2020-07-25T08:45:41Z</time>
      </trkpt>
      <trkpt lat="45.83084" lon="3.01695">
        <ele>770.79998779297</ele>
        <time>2020-07-25T08:45:43Z</time>
      </trkpt>
      <trkpt lat="45.83081" lon="3.01727">
        <ele>770.40002441406</ele>
        <time>2020-07-25T08:45:46Z</time>
      </trkpt>
      <trkpt lat="45.83077" lon="3.01772">
        <ele>768.20001220703</ele>
        <time>2020-07-25T08:45:50Z</time>
      </trkpt>
      <trkpt lat="45.83074" lon="3.01795">
        <ele>767.20001220703</ele>
        <time>2020-07-25T08:45:52Z</time>
      </trkpt>
      <trkpt lat="45.83072" lon="3.01807">
        <ele>766.79998779297</ele>
        <time>2020-07-25T08:45:53Z</time>
      </trkpt>
      <trkpt lat="45.83069" lon="3.01831">
        <ele>766</ele>
        <time>2020-07-25T08:45:55Z</time>
      </trkpt>
      <trkpt lat="45.83067" lon="3.01854">
        <ele>764.79998779297</ele>
        <time>2020-07-25T08:45:57Z</time>
      </trkpt>
      <trkpt lat="45.83068" lon="3.01877">
        <ele>763.59997558594</ele>
        <time>2020-07-25T08:45:59Z</time>
      </trkpt>
      <trkpt lat="45.83069" lon="3.01888">
        <ele>763.40002441406</ele>
        <time>2020-07-25T08:46:00Z</time>
      </trkpt>
      <trkpt lat="45.83074" lon="3.0191">
        <ele>763.20001220703</ele>
        <time>2020-07-25T08:46:02Z</time>
      </trkpt>
      <trkpt lat="45.83095" lon="3.01943">
        <ele>763</ele>
        <time>2020-07-25T08:46:06Z</time>
      </trkpt>
      <trkpt lat="45.83099" lon="3.01951">
        <ele>763</ele>
        <time>2020-07-25T08:46:07Z</time>
      </trkpt>
      <trkpt lat="45.83102" lon="3.01972">
        <ele>762.59997558594</ele>
        <time>2020-07-25T08:46:09Z</time>
      </trkpt>
      <trkpt lat="45.83093" lon="3.0199">
        <ele>762.40002441406</ele>
        <time>2020-07-25T08:46:11Z</time>
      </trkpt>
      <trkpt lat="45.83078" lon="3.01995">
        <ele>761.79998779297</ele>
        <time>2020-07-25T08:46:13Z</time>
      </trkpt>
      <trkpt lat="45.83069" lon="3.01994">
        <ele>760.20001220703</ele>
        <time>2020-07-25T08:46:14Z</time>
      </trkpt>
      <trkpt lat="45.83052" lon="3.01988">
        <ele>758.40002441406</ele>
        <time>2020-07-25T08:46:16Z</time>
      </trkpt>
      <trkpt lat="45.83042" lon="3.01985">
        <ele>757.79998779297</ele>
        <time>2020-07-25T08:46:17Z</time>
      </trkpt>
      <trkpt lat="45.83033" lon="3.01981">
        <ele>757.20001220703</ele>
        <time>2020-07-25T08:46:18Z</time>
      </trkpt>
      <trkpt lat="45.83016" lon="3.01969">
        <ele>756</ele>
        <time>2020-07-25T08:46:20Z</time>
      </trkpt>
      <trkpt lat="45.83007" lon="3.01961">
        <ele>755.20001220703</ele>
        <time>2020-07-25T08:46:21Z</time>
      </trkpt>
      <trkpt lat="45.82999" lon="3.01954">
        <ele>754.40002441406</ele>
        <time>2020-07-25T08:46:22Z</time>
      </trkpt>
      <trkpt lat="45.82992" lon="3.01948">
        <ele>753.79998779297</ele>
        <time>2020-07-25T08:46:23Z</time>
      </trkpt>
      <trkpt lat="45.82984" lon="3.01946">
        <ele>753</ele>
        <time>2020-07-25T08:46:24Z</time>
      </trkpt>
      <trkpt lat="45.82969" lon="3.01952">
        <ele>752.20001220703</ele>
        <time>2020-07-25T08:46:26Z</time>
      </trkpt>
      <trkpt lat="45.82964" lon="3.0196">
        <ele>752</ele>
        <time>2020-07-25T08:46:27Z</time>
      </trkpt>
      <trkpt lat="45.8296" lon="3.0197">
        <ele>751.79998779297</ele>
        <time>2020-07-25T08:46:28Z</time>
      </trkpt>
      <trkpt lat="45.82954" lon="3.01993">
        <ele>751</ele>
        <time>2020-07-25T08:46:30Z</time>
      </trkpt>
      <trkpt lat="45.82948" lon="3.02018">
        <ele>749.79998779297</ele>
        <time>2020-07-25T08:46:32Z</time>
      </trkpt>
      <trkpt lat="45.82944" lon="3.0203">
        <ele>749</ele>
        <time>2020-07-25T08:46:33Z</time>
      </trkpt>
      <trkpt lat="45.8294" lon="3.02043">
        <ele>748.40002441406</ele>
        <time>2020-07-25T08:46:34Z</time>
      </trkpt>
      <trkpt lat="45.8293" lon="3.02069">
        <ele>746.79998779297</ele>
        <time>2020-07-25T08:46:36Z</time>
      </trkpt>
      <trkpt lat="45.82921" lon="3.02095">
        <ele>743.79998779297</ele>
        <time>2020-07-25T08:46:38Z</time>
      </trkpt>
      <trkpt lat="45.82915" lon="3.02108">
        <ele>742.59997558594</ele>
        <time>2020-07-25T08:46:39Z</time>
      </trkpt>
      <trkpt lat="45.82908" lon="3.02119">
        <ele>741.20001220703</ele>
        <time>2020-07-25T08:46:40Z</time>
      </trkpt>
      <trkpt lat="45.82899" lon="3.02129">
        <ele>739.79998779297</ele>
        <time>2020-07-25T08:46:41Z</time>
      </trkpt>
      <trkpt lat="45.8289" lon="3.02137">
        <ele>738.40002441406</ele>
        <time>2020-07-25T08:46:42Z</time>
      </trkpt>
      <trkpt lat="45.8287" lon="3.02148">
        <ele>737</ele>
        <time>2020-07-25T08:46:44Z</time>
      </trkpt>
      <trkpt lat="45.8285" lon="3.02154">
        <ele>736</ele>
        <time>2020-07-25T08:46:46Z</time>
      </trkpt>
      <trkpt lat="45.8283" lon="3.02155">
        <ele>735.20001220703</ele>
        <time>2020-07-25T08:46:48Z</time>
      </trkpt>
      <trkpt lat="45.8282" lon="3.02155">
        <ele>735</ele>
        <time>2020-07-25T08:46:49Z</time>
      </trkpt>
      <trkpt lat="45.82811" lon="3.02154">
        <ele>734.79998779297</ele>
        <time>2020-07-25T08:46:50Z</time>
      </trkpt>
      <trkpt lat="45.82775" lon="3.02152">
        <ele>734.79998779297</ele>
        <time>2020-07-25T08:46:54Z</time>
      </trkpt>
      <trkpt lat="45.82715" lon="3.02146">
        <ele>735</ele>
        <time>2020-07-25T08:47:01Z</time>
      </trkpt>
      <trkpt lat="45.82698" lon="3.02143">
        <ele>734.40002441406</ele>
        <time>2020-07-25T08:47:03Z</time>
      </trkpt>
      <trkpt lat="45.82656" lon="3.02139">
        <ele>733.59997558594</ele>
        <time>2020-07-25T08:47:08Z</time>
      </trkpt>
      <trkpt lat="45.82648" lon="3.02138">
        <ele>733.20001220703</ele>
        <time>2020-07-25T08:47:09Z</time>
      </trkpt>
      <trkpt lat="45.82626" lon="3.0214">
        <ele>732.59997558594</ele>
        <time>2020-07-25T08:47:12Z</time>
      </trkpt>
      <trkpt lat="45.82619" lon="3.02143">
        <ele>732.59997558594</ele>
        <time>2020-07-25T08:47:13Z</time>
      </trkpt>
      <trkpt lat="45.82594" lon="3.02159">
        <ele>733.40002441406</ele>
        <time>2020-07-25T08:47:17Z</time>
      </trkpt>
      <trkpt lat="45.82571" lon="3.0218">
        <ele>734.79998779297</ele>
        <time>2020-07-25T08:47:21Z</time>
      </trkpt>
      <trkpt lat="45.82549" lon="3.02199">
        <ele>735</ele>
        <time>2020-07-25T08:47:25Z</time>
      </trkpt>
      <trkpt lat="45.82499" lon="3.0224">
        <ele>735.59997558594</ele>
        <time>2020-07-25T08:47:34Z</time>
      </trkpt>
      <trkpt lat="45.82494" lon="3.02244">
        <ele>735.59997558594</ele>
        <time>2020-07-25T08:47:35Z</time>
      </trkpt>
      <trkpt lat="45.82449" lon="3.02282">
        <ele>735.59997558594</ele>
        <time>2020-07-25T08:47:44Z</time>
      </trkpt>
      <trkpt lat="45.82417" lon="3.02309">
        <ele>735</ele>
        <time>2020-07-25T08:47:50Z</time>
      </trkpt>
      <trkpt lat="45.82403" lon="3.02315">
        <ele>734.79998779297</ele>
        <time>2020-07-25T08:47:52Z</time>
      </trkpt>
      <trkpt lat="45.82389" lon="3.02319">
        <ele>734</ele>
        <time>2020-07-25T08:47:54Z</time>
      </trkpt>
      <trkpt lat="45.82376" lon="3.0232">
        <ele>733.40002441406</ele>
        <time>2020-07-25T08:47:56Z</time>
      </trkpt>
      <trkpt lat="45.8235" lon="3.02319">
        <ele>732.40002441406</ele>
        <time>2020-07-25T08:48:00Z</time>
      </trkpt>
      <trkpt lat="45.82313" lon="3.02309">
        <ele>731.40002441406</ele>
        <time>2020-07-25T08:48:06Z</time>
      </trkpt>
      <trkpt lat="45.82307" lon="3.02305">
        <ele>731.20001220703</ele>
        <time>2020-07-25T08:48:07Z</time>
      </trkpt>
      <trkpt lat="45.82272" lon="3.02285">
        <ele>730.59997558594</ele>
        <time>2020-07-25T08:48:13Z</time>
      </trkpt>
      <trkpt lat="45.82252" lon="3.02287">
        <ele>730.40002441406</ele>
        <time>2020-07-25T08:48:16Z</time>
      </trkpt>
      <trkpt lat="45.8224" lon="3.02297">
        <ele>730.20001220703</ele>
        <time>2020-07-25T08:48:18Z</time>
      </trkpt>
      <trkpt lat="45.82236" lon="3.02303">
        <ele>730</ele>
        <time>2020-07-25T08:48:19Z</time>
      </trkpt>
      <trkpt lat="45.82226" lon="3.02335">
        <ele>729.79998779297</ele>
        <time>2020-07-25T08:48:23Z</time>
      </trkpt>
      <trkpt lat="45.82226" lon="3.02369">
        <ele>729.40002441406</ele>
        <time>2020-07-25T08:48:27Z</time>
      </trkpt>
      <trkpt lat="45.82227" lon="3.02386">
        <ele>729.20001220703</ele>
        <time>2020-07-25T08:48:29Z</time>
      </trkpt>
      <trkpt lat="45.82225" lon="3.02406">
        <ele>728.59997558594</ele>
        <time>2020-07-25T08:48:31Z</time>
      </trkpt>
      <trkpt lat="45.82224" lon="3.02416">
        <ele>728.40002441406</ele>
        <time>2020-07-25T08:48:32Z</time>
      </trkpt>
      <trkpt lat="45.82222" lon="3.02426">
        <ele>728</ele>
        <time>2020-07-25T08:48:33Z</time>
      </trkpt>
      <trkpt lat="45.82219" lon="3.02447">
        <ele>726.79998779297</ele>
        <time>2020-07-25T08:48:35Z</time>
      </trkpt>
      <trkpt lat="45.82213" lon="3.0248">
        <ele>725</ele>
        <time>2020-07-25T08:48:38Z</time>
      </trkpt>
      <trkpt lat="45.82211" lon="3.02491">
        <ele>724.40002441406</ele>
        <time>2020-07-25T08:48:39Z</time>
      </trkpt>
      <trkpt lat="45.82209" lon="3.02503">
        <ele>723.79998779297</ele>
        <time>2020-07-25T08:48:40Z</time>
      </trkpt>
      <trkpt lat="45.82204" lon="3.02528">
        <ele>722.40002441406</ele>
        <time>2020-07-25T08:48:42Z</time>
      </trkpt>
      <trkpt lat="45.82199" lon="3.02555">
        <ele>720.79998779297</ele>
        <time>2020-07-25T08:48:44Z</time>
      </trkpt>
      <trkpt lat="45.82196" lon="3.02568">
        <ele>720</ele>
        <time>2020-07-25T08:48:45Z</time>
      </trkpt>
      <trkpt lat="45.82193" lon="3.02582">
        <ele>719.40002441406</ele>
        <time>2020-07-25T08:48:46Z</time>
      </trkpt>
      <trkpt lat="45.82188" lon="3.0261">
        <ele>717.79998779297</ele>
        <time>2020-07-25T08:48:48Z</time>
      </trkpt>
      <trkpt lat="45.82183" lon="3.02638">
        <ele>716.20001220703</ele>
        <time>2020-07-25T08:48:50Z</time>
      </trkpt>
      <trkpt lat="45.82179" lon="3.02653">
        <ele>715.59997558594</ele>
        <time>2020-07-25T08:48:51Z</time>
      </trkpt>
      <trkpt lat="45.82175" lon="3.02668">
        <ele>714.79998779297</ele>
        <time>2020-07-25T08:48:52Z</time>
      </trkpt>
      <trkpt lat="45.82166" lon="3.02697">
        <ele>713.20001220703</ele>
        <time>2020-07-25T08:48:54Z</time>
      </trkpt>
      <trkpt lat="45.82154" lon="3.02725">
        <ele>711.59997558594</ele>
        <time>2020-07-25T08:48:56Z</time>
      </trkpt>
      <trkpt lat="45.8214" lon="3.02751">
        <ele>710.40002441406</ele>
        <time>2020-07-25T08:48:58Z</time>
      </trkpt>
      <trkpt lat="45.82127" lon="3.02776">
        <ele>709.40002441406</ele>
        <time>2020-07-25T08:49:00Z</time>
      </trkpt>
      <trkpt lat="45.82114" lon="3.028">
        <ele>708.40002441406</ele>
        <time>2020-07-25T08:49:02Z</time>
      </trkpt>
      <trkpt lat="45.82107" lon="3.02811">
        <ele>708.20001220703</ele>
        <time>2020-07-25T08:49:03Z</time>
      </trkpt>
      <trkpt lat="45.821" lon="3.02821">
        <ele>708</ele>
        <time>2020-07-25T08:49:04Z</time>
      </trkpt>
      <trkpt lat="45.82084" lon="3.02835">
        <ele>707.59997558594</ele>
        <time>2020-07-25T08:49:06Z</time>
      </trkpt>
      <trkpt lat="45.82075" lon="3.02839">
        <ele>707.20001220703</ele>
        <time>2020-07-25T08:49:07Z</time>
      </trkpt>
      <trkpt lat="45.82056" lon="3.02837">
        <ele>706.59997558594</ele>
        <time>2020-07-25T08:49:09Z</time>
      </trkpt>
      <trkpt lat="45.82038" lon="3.02825">
        <ele>705.79998779297</ele>
        <time>2020-07-25T08:49:11Z</time>
      </trkpt>
      <trkpt lat="45.8203" lon="3.02816">
        <ele>705.40002441406</ele>
        <time>2020-07-25T08:49:12Z</time>
      </trkpt>
      <trkpt lat="45.82023" lon="3.02806">
        <ele>704.79998779297</ele>
        <time>2020-07-25T08:49:13Z</time>
      </trkpt>
      <trkpt lat="45.82016" lon="3.02795">
        <ele>704.20001220703</ele>
        <time>2020-07-25T08:49:14Z</time>
      </trkpt>
      <trkpt lat="45.82008" lon="3.02785">
        <ele>703.59997558594</ele>
        <time>2020-07-25T08:49:15Z</time>
      </trkpt>
      <trkpt lat="45.82" lon="3.02776">
        <ele>702.79998779297</ele>
        <time>2020-07-25T08:49:16Z</time>
      </trkpt>
      <trkpt lat="45.81992" lon="3.02769">
        <ele>702.20001220703</ele>
        <time>2020-07-25T08:49:17Z</time>
      </trkpt>
      <trkpt lat="45.81975" lon="3.02761">
        <ele>700.79998779297</ele>
        <time>2020-07-25T08:49:19Z</time>
      </trkpt>
      <trkpt lat="45.81959" lon="3.02764">
        <ele>699.40002441406</ele>
        <time>2020-07-25T08:49:21Z</time>
      </trkpt>
      <trkpt lat="45.81951" lon="3.02771">
        <ele>698.79998779297</ele>
        <time>2020-07-25T08:49:22Z</time>
      </trkpt>
      <trkpt lat="45.81943" lon="3.02779">
        <ele>698</ele>
        <time>2020-07-25T08:49:23Z</time>
      </trkpt>
      <trkpt lat="45.81926" lon="3.02796">
        <ele>696.59997558594</ele>
        <time>2020-07-25T08:49:25Z</time>
      </trkpt>
      <trkpt lat="45.81917" lon="3.02805">
        <ele>695.20001220703</ele>
        <time>2020-07-25T08:49:26Z</time>
      </trkpt>
      <trkpt lat="45.81909" lon="3.02813">
        <ele>694.59997558594</ele>
        <time>2020-07-25T08:49:27Z</time>
      </trkpt>
      <trkpt lat="45.81899" lon="3.02822">
        <ele>694</ele>
        <time>2020-07-25T08:49:28Z</time>
      </trkpt>
      <trkpt lat="45.8188" lon="3.02838">
        <ele>692.59997558594</ele>
        <time>2020-07-25T08:49:30Z</time>
      </trkpt>
      <trkpt lat="45.81871" lon="3.02843">
        <ele>691.79998779297</ele>
        <time>2020-07-25T08:49:31Z</time>
      </trkpt>
      <trkpt lat="45.8186" lon="3.02847">
        <ele>691.20001220703</ele>
        <time>2020-07-25T08:49:32Z</time>
      </trkpt>
      <trkpt lat="45.81842" lon="3.02857">
        <ele>689.59997558594</ele>
        <time>2020-07-25T08:49:34Z</time>
      </trkpt>
      <trkpt lat="45.81835" lon="3.02865">
        <ele>688.79998779297</ele>
        <time>2020-07-25T08:49:35Z</time>
      </trkpt>
      <trkpt lat="45.8183" lon="3.02875">
        <ele>688.20001220703</ele>
        <time>2020-07-25T08:49:36Z</time>
      </trkpt>
      <trkpt lat="45.81823" lon="3.02902">
        <ele>687.20001220703</ele>
        <time>2020-07-25T08:49:38Z</time>
      </trkpt>
      <trkpt lat="45.81825" lon="3.02928">
        <ele>686.40002441406</ele>
        <time>2020-07-25T08:49:40Z</time>
      </trkpt>
      <trkpt lat="45.81826" lon="3.02941">
        <ele>685.79998779297</ele>
        <time>2020-07-25T08:49:41Z</time>
      </trkpt>
      <trkpt lat="45.8183" lon="3.02967">
        <ele>684.79998779297</ele>
        <time>2020-07-25T08:49:43Z</time>
      </trkpt>
      <trkpt lat="45.81833" lon="3.02994">
        <ele>683.40002441406</ele>
        <time>2020-07-25T08:49:45Z</time>
      </trkpt>
      <trkpt lat="45.81833" lon="3.03008">
        <ele>682.59997558594</ele>
        <time>2020-07-25T08:49:46Z</time>
      </trkpt>
      <trkpt lat="45.81832" lon="3.03022">
        <ele>681.79998779297</ele>
        <time>2020-07-25T08:49:47Z</time>
      </trkpt>
      <trkpt lat="45.81827" lon="3.03047">
        <ele>680.20001220703</ele>
        <time>2020-07-25T08:49:49Z</time>
      </trkpt>
      <trkpt lat="45.81824" lon="3.03058">
        <ele>679</ele>
        <time>2020-07-25T08:49:50Z</time>
      </trkpt>
      <trkpt lat="45.81815" lon="3.03079">
        <ele>678.59997558594</ele>
        <time>2020-07-25T08:49:52Z</time>
      </trkpt>
      <trkpt lat="45.81806" lon="3.03099">
        <ele>678.40002441406</ele>
        <time>2020-07-25T08:49:54Z</time>
      </trkpt>
      <trkpt lat="45.81792" lon="3.03126">
        <ele>679.40002441406</ele>
        <time>2020-07-25T08:49:57Z</time>
      </trkpt>
      <trkpt lat="45.8178" lon="3.03139">
        <ele>680</ele>
        <time>2020-07-25T08:49:59Z</time>
      </trkpt>
      <trkpt lat="45.81756" lon="3.03155">
        <ele>681</ele>
        <time>2020-07-25T08:50:03Z</time>
      </trkpt>
      <trkpt lat="45.8174" lon="3.03161">
        <ele>681.20001220703</ele>
        <time>2020-07-25T08:50:06Z</time>
      </trkpt>
      <trkpt lat="45.81724" lon="3.03166">
        <ele>682.20001220703</ele>
        <time>2020-07-25T08:50:09Z</time>
      </trkpt>
      <trkpt lat="45.81708" lon="3.03172">
        <ele>683.20001220703</ele>
        <time>2020-07-25T08:50:12Z</time>
      </trkpt>
      <trkpt lat="45.81685" lon="3.03182">
        <ele>683.59997558594</ele>
        <time>2020-07-25T08:50:17Z</time>
      </trkpt>
      <trkpt lat="45.81668" lon="3.0319">
        <ele>684.40002441406</ele>
        <time>2020-07-25T08:50:21Z</time>
      </trkpt>
      <trkpt lat="45.81653" lon="3.03198">
        <ele>685</ele>
        <time>2020-07-25T08:50:25Z</time>
      </trkpt>
      <trkpt lat="45.81642" lon="3.03204">
        <ele>685.40002441406</ele>
        <time>2020-07-25T08:50:28Z</time>
      </trkpt>
      <trkpt lat="45.81624" lon="3.03214">
        <ele>686</ele>
        <time>2020-07-25T08:50:33Z</time>
      </trkpt>
      <trkpt lat="45.81607" lon="3.03226">
        <ele>686.59997558594</ele>
        <time>2020-07-25T08:50:38Z</time>
      </trkpt>
      <trkpt lat="45.81601" lon="3.03233">
        <ele>686.79998779297</ele>
        <time>2020-07-25T08:50:40Z</time>
      </trkpt>
      <trkpt lat="45.81584" lon="3.03257">
        <ele>687.20001220703</ele>
        <time>2020-07-25T08:50:46Z</time>
      </trkpt>
      <trkpt lat="45.8157" lon="3.03291">
        <ele>687.59997558594</ele>
        <time>2020-07-25T08:50:53Z</time>
      </trkpt>
      <trkpt lat="45.81568" lon="3.03296">
        <ele>687.59997558594</ele>
        <time>2020-07-25T08:50:54Z</time>
      </trkpt>
      <trkpt lat="45.81553" lon="3.03328">
        <ele>687.20001220703</ele>
        <time>2020-07-25T08:51:01Z</time>
      </trkpt>
      <trkpt lat="45.81531" lon="3.03367">
        <ele>687.20001220703</ele>
        <time>2020-07-25T08:51:10Z</time>
      </trkpt>
      <trkpt lat="45.81508" lon="3.03406">
        <ele>688.20001220703</ele>
        <time>2020-07-25T08:51:19Z</time>
      </trkpt>
      <trkpt lat="45.81504" lon="3.03412">
        <ele>688.59997558594</ele>
        <time>2020-07-25T08:51:22Z</time>
      </trkpt>
      <trkpt lat="45.81504" lon="3.03412">
        <ele>688.59997558594</ele>
        <time>2020-07-25T08:51:23Z</time>
      </trkpt>
      <trkpt lat="45.81504" lon="3.03412">
        <ele>689</ele>
        <time>2020-07-25T08:51:26Z</time>
      </trkpt>
      <trkpt lat="45.81504" lon="3.03412">
        <ele>689.20001220703</ele>
        <time>2020-07-25T08:51:33Z</time>
      </trkpt>
      <trkpt lat="45.81504" lon="3.03412">
        <ele>689.40002441406</ele>
        <time>2020-07-25T08:51:47Z</time>
      </trkpt>
      <trkpt lat="45.81504" lon="3.03412">
        <ele>689.40002441406</ele>
        <time>2020-07-25T08:51:59Z</time>
      </trkpt>
      <trkpt lat="45.81504" lon="3.03412">
        <ele>689.59997558594</ele>
        <time>2020-07-25T08:52:13Z</time>
      </trkpt>
      <trkpt lat="45.81504" lon="3.03412">
        <ele>689.59997558594</ele>
        <time>2020-07-25T08:52:16Z</time>
      </trkpt>
      <trkpt lat="45.81504" lon="3.03412">
        <ele>689.59997558594</ele>
        <time>2020-07-25T08:52:25Z</time>
      </trkpt>
      <trkpt lat="45.81501" lon="3.03418">
        <ele>689.59997558594</ele>
        <time>2020-07-25T08:52:29Z</time>
      </trkpt>
      <trkpt lat="45.8149" lon="3.03433">
        <ele>689.20001220703</ele>
        <time>2020-07-25T08:52:34Z</time>
      </trkpt>
      <trkpt lat="45.81481" lon="3.03441">
        <ele>688.20001220703</ele>
        <time>2020-07-25T08:52:37Z</time>
      </trkpt>
      <trkpt lat="45.81474" lon="3.03446">
        <ele>687.40002441406</ele>
        <time>2020-07-25T08:52:39Z</time>
      </trkpt>
      <trkpt lat="45.81463" lon="3.03453">
        <ele>687.20001220703</ele>
        <time>2020-07-25T08:52:42Z</time>
      </trkpt>
      <trkpt lat="45.81451" lon="3.03462">
        <ele>686.79998779297</ele>
        <time>2020-07-25T08:52:45Z</time>
      </trkpt>
      <trkpt lat="45.81442" lon="3.03471">
        <ele>686</ele>
        <time>2020-07-25T08:52:47Z</time>
      </trkpt>
      <trkpt lat="45.81438" lon="3.03476">
        <ele>685.79998779297</ele>
        <time>2020-07-25T08:52:48Z</time>
      </trkpt>
      <trkpt lat="45.8143" lon="3.03488">
        <ele>685.40002441406</ele>
        <time>2020-07-25T08:52:50Z</time>
      </trkpt>
      <trkpt lat="45.81422" lon="3.03501">
        <ele>685.20001220703</ele>
        <time>2020-07-25T08:52:52Z</time>
      </trkpt>
      <trkpt lat="45.81418" lon="3.03509">
        <ele>685</ele>
        <time>2020-07-25T08:52:53Z</time>
      </trkpt>
      <trkpt lat="45.8141" lon="3.03527">
        <ele>684</ele>
        <time>2020-07-25T08:52:55Z</time>
      </trkpt>
      <trkpt lat="45.81405" lon="3.03536">
        <ele>683.59997558594</ele>
        <time>2020-07-25T08:52:56Z</time>
      </trkpt>
      <trkpt lat="45.81399" lon="3.03544">
        <ele>683</ele>
        <time>2020-07-25T08:52:57Z</time>
      </trkpt>
      <trkpt lat="45.81392" lon="3.03552">
        <ele>682.40002441406</ele>
        <time>2020-07-25T08:52:58Z</time>
      </trkpt>
      <trkpt lat="45.81384" lon="3.03558">
        <ele>681.79998779297</ele>
        <time>2020-07-25T08:52:59Z</time>
      </trkpt>
      <trkpt lat="45.81377" lon="3.03564">
        <ele>681</ele>
        <time>2020-07-25T08:53:00Z</time>
      </trkpt>
      <trkpt lat="45.8137" lon="3.03571">
        <ele>680.20001220703</ele>
        <time>2020-07-25T08:53:01Z</time>
      </trkpt>
      <trkpt lat="45.81365" lon="3.03581">
        <ele>679.20001220703</ele>
        <time>2020-07-25T08:53:02Z</time>
      </trkpt>
      <trkpt lat="45.81362" lon="3.03594">
        <ele>677</ele>
        <time>2020-07-25T08:53:03Z</time>
      </trkpt>
      <trkpt lat="45.81362" lon="3.0362">
        <ele>675.40002441406</ele>
        <time>2020-07-25T08:53:05Z</time>
      </trkpt>
      <trkpt lat="45.81369" lon="3.03646">
        <ele>673.79998779297</ele>
        <time>2020-07-25T08:53:07Z</time>
      </trkpt>
      <trkpt lat="45.81373" lon="3.03658">
        <ele>672.79998779297</ele>
        <time>2020-07-25T08:53:08Z</time>
      </trkpt>
      <trkpt lat="45.81378" lon="3.03671">
        <ele>672</ele>
        <time>2020-07-25T08:53:09Z</time>
      </trkpt>
      <trkpt lat="45.81385" lon="3.03683">
        <ele>671.40002441406</ele>
        <time>2020-07-25T08:53:10Z</time>
      </trkpt>
      <trkpt lat="45.81392" lon="3.03694">
        <ele>670.79998779297</ele>
        <time>2020-07-25T08:53:11Z</time>
      </trkpt>
      <trkpt lat="45.814" lon="3.03703">
        <ele>670</ele>
        <time>2020-07-25T08:53:12Z</time>
      </trkpt>
      <trkpt lat="45.81408" lon="3.03711">
        <ele>669.20001220703</ele>
        <time>2020-07-25T08:53:13Z</time>
      </trkpt>
      <trkpt lat="45.81423" lon="3.03727">
        <ele>667.40002441406</ele>
        <time>2020-07-25T08:53:15Z</time>
      </trkpt>
      <trkpt lat="45.8143" lon="3.03736">
        <ele>666.40002441406</ele>
        <time>2020-07-25T08:53:16Z</time>
      </trkpt>
      <trkpt lat="45.81436" lon="3.03747">
        <ele>665.79998779297</ele>
        <time>2020-07-25T08:53:17Z</time>
      </trkpt>
      <trkpt lat="45.81443" lon="3.03771">
        <ele>664.59997558594</ele>
        <time>2020-07-25T08:53:19Z</time>
      </trkpt>
      <trkpt lat="45.81435" lon="3.03798">
        <ele>663.59997558594</ele>
        <time>2020-07-25T08:53:21Z</time>
      </trkpt>
      <trkpt lat="45.81419" lon="3.03822">
        <ele>662</ele>
        <time>2020-07-25T08:53:23Z</time>
      </trkpt>
      <trkpt lat="45.81411" lon="3.03833">
        <ele>661.20001220703</ele>
        <time>2020-07-25T08:53:24Z</time>
      </trkpt>
      <trkpt lat="45.81403" lon="3.03842">
        <ele>660.40002441406</ele>
        <time>2020-07-25T08:53:25Z</time>
      </trkpt>
      <trkpt lat="45.81395" lon="3.0385">
        <ele>659.40002441406</ele>
        <time>2020-07-25T08:53:26Z</time>
      </trkpt>
      <trkpt lat="45.81386" lon="3.03855">
        <ele>657.59997558594</ele>
        <time>2020-07-25T08:53:27Z</time>
      </trkpt>
      <trkpt lat="45.81358" lon="3.03851">
        <ele>656.40002441406</ele>
        <time>2020-07-25T08:53:30Z</time>
      </trkpt>
      <trkpt lat="45.81335" lon="3.03824">
        <ele>655.40002441406</ele>
        <time>2020-07-25T08:53:33Z</time>
      </trkpt>
      <trkpt lat="45.81322" lon="3.03802">
        <ele>653.59997558594</ele>
        <time>2020-07-25T08:53:35Z</time>
      </trkpt>
      <trkpt lat="45.81315" lon="3.0379">
        <ele>652.59997558594</ele>
        <time>2020-07-25T08:53:36Z</time>
      </trkpt>
      <trkpt lat="45.81303" lon="3.03765">
        <ele>650.79998779297</ele>
        <time>2020-07-25T08:53:38Z</time>
      </trkpt>
      <trkpt lat="45.81289" lon="3.03742">
        <ele>649.79998779297</ele>
        <time>2020-07-25T08:53:40Z</time>
      </trkpt>
      <trkpt lat="45.81279" lon="3.03735">
        <ele>649.20001220703</ele>
        <time>2020-07-25T08:53:41Z</time>
      </trkpt>
      <trkpt lat="45.81269" lon="3.0373">
        <ele>648.40002441406</ele>
        <time>2020-07-25T08:53:42Z</time>
      </trkpt>
      <trkpt lat="45.81249" lon="3.03725">
        <ele>646.59997558594</ele>
        <time>2020-07-25T08:53:44Z</time>
      </trkpt>
      <trkpt lat="45.81239" lon="3.03726">
        <ele>645.79998779297</ele>
        <time>2020-07-25T08:53:45Z</time>
      </trkpt>
      <trkpt lat="45.81231" lon="3.03731">
        <ele>644.79998779297</ele>
        <time>2020-07-25T08:53:46Z</time>
      </trkpt>
      <trkpt lat="45.81218" lon="3.03751">
        <ele>643</ele>
        <time>2020-07-25T08:53:48Z</time>
      </trkpt>
      <trkpt lat="45.81209" lon="3.03776">
        <ele>642.20001220703</ele>
        <time>2020-07-25T08:53:50Z</time>
      </trkpt>
      <trkpt lat="45.81205" lon="3.03789">
        <ele>640.79998779297</ele>
        <time>2020-07-25T08:53:51Z</time>
      </trkpt>
      <trkpt lat="45.812" lon="3.03802">
        <ele>640</ele>
        <time>2020-07-25T08:53:52Z</time>
      </trkpt>
      <trkpt lat="45.81196" lon="3.03815">
        <ele>639</ele>
        <time>2020-07-25T08:53:53Z</time>
      </trkpt>
      <trkpt lat="45.81192" lon="3.03829">
        <ele>638</ele>
        <time>2020-07-25T08:53:54Z</time>
      </trkpt>
      <trkpt lat="45.81189" lon="3.03844">
        <ele>637</ele>
        <time>2020-07-25T08:53:55Z</time>
      </trkpt>
      <trkpt lat="45.81186" lon="3.03859">
        <ele>635.79998779297</ele>
        <time>2020-07-25T08:53:56Z</time>
      </trkpt>
      <trkpt lat="45.81184" lon="3.0389">
        <ele>634.40002441406</ele>
        <time>2020-07-25T08:53:58Z</time>
      </trkpt>
      <trkpt lat="45.81181" lon="3.03921">
        <ele>633</ele>
        <time>2020-07-25T08:54:00Z</time>
      </trkpt>
      <trkpt lat="45.81178" lon="3.03936">
        <ele>632</ele>
        <time>2020-07-25T08:54:01Z</time>
      </trkpt>
      <trkpt lat="45.81174" lon="3.03951">
        <ele>631</ele>
        <time>2020-07-25T08:54:02Z</time>
      </trkpt>
      <trkpt lat="45.81161" lon="3.03978">
        <ele>629.20001220703</ele>
        <time>2020-07-25T08:54:04Z</time>
      </trkpt>
      <trkpt lat="45.81156" lon="3.03993">
        <ele>628.59997558594</ele>
        <time>2020-07-25T08:54:05Z</time>
      </trkpt>
      <trkpt lat="45.81154" lon="3.0401">
        <ele>628</ele>
        <time>2020-07-25T08:54:06Z</time>
      </trkpt>
      <trkpt lat="45.81152" lon="3.04026">
        <ele>627.40002441406</ele>
        <time>2020-07-25T08:54:07Z</time>
      </trkpt>
      <trkpt lat="45.81153" lon="3.04043">
        <ele>626.79998779297</ele>
        <time>2020-07-25T08:54:08Z</time>
      </trkpt>
      <trkpt lat="45.81154" lon="3.0406">
        <ele>626</ele>
        <time>2020-07-25T08:54:09Z</time>
      </trkpt>
      <trkpt lat="45.81154" lon="3.04077">
        <ele>625.20001220703</ele>
        <time>2020-07-25T08:54:10Z</time>
      </trkpt>
      <trkpt lat="45.81155" lon="3.04111">
        <ele>623.79998779297</ele>
        <time>2020-07-25T08:54:12Z</time>
      </trkpt>
      <trkpt lat="45.81158" lon="3.04146">
        <ele>622</ele>
        <time>2020-07-25T08:54:14Z</time>
      </trkpt>
      <trkpt lat="45.8116" lon="3.04164">
        <ele>619.40002441406</ele>
        <time>2020-07-25T08:54:15Z</time>
      </trkpt>
      <trkpt lat="45.81162" lon="3.04181">
        <ele>618.20001220703</ele>
        <time>2020-07-25T08:54:16Z</time>
      </trkpt>
      <trkpt lat="45.81162" lon="3.04199">
        <ele>617</ele>
        <time>2020-07-25T08:54:17Z</time>
      </trkpt>
      <trkpt lat="45.81162" lon="3.04217">
        <ele>616</ele>
        <time>2020-07-25T08:54:18Z</time>
      </trkpt>
      <trkpt lat="45.81161" lon="3.04233">
        <ele>615.20001220703</ele>
        <time>2020-07-25T08:54:19Z</time>
      </trkpt>
      <trkpt lat="45.81159" lon="3.04248">
        <ele>614.40002441406</ele>
        <time>2020-07-25T08:54:20Z</time>
      </trkpt>
      <trkpt lat="45.81156" lon="3.04262">
        <ele>613.59997558594</ele>
        <time>2020-07-25T08:54:21Z</time>
      </trkpt>
      <trkpt lat="45.81143" lon="3.04284">
        <ele>612.79998779297</ele>
        <time>2020-07-25T08:54:23Z</time>
      </trkpt>
      <trkpt lat="45.81136" lon="3.04295">
        <ele>612.40002441406</ele>
        <time>2020-07-25T08:54:24Z</time>
      </trkpt>
      <trkpt lat="45.81131" lon="3.04307">
        <ele>612.20001220703</ele>
        <time>2020-07-25T08:54:25Z</time>
      </trkpt>
      <trkpt lat="45.81127" lon="3.0432">
        <ele>611.59997558594</ele>
        <time>2020-07-25T08:54:26Z</time>
      </trkpt>
      <trkpt lat="45.81126" lon="3.04334">
        <ele>611</ele>
        <time>2020-07-25T08:54:27Z</time>
      </trkpt>
      <trkpt lat="45.81127" lon="3.04348">
        <ele>610</ele>
        <time>2020-07-25T08:54:28Z</time>
      </trkpt>
      <trkpt lat="45.81131" lon="3.04361">
        <ele>609.20001220703</ele>
        <time>2020-07-25T08:54:29Z</time>
      </trkpt>
      <trkpt lat="45.8114" lon="3.04384">
        <ele>608</ele>
        <time>2020-07-25T08:54:31Z</time>
      </trkpt>
      <trkpt lat="45.81143" lon="3.04395">
        <ele>607.20001220703</ele>
        <time>2020-07-25T08:54:32Z</time>
      </trkpt>
      <trkpt lat="45.81145" lon="3.04405">
        <ele>606.40002441406</ele>
        <time>2020-07-25T08:54:33Z</time>
      </trkpt>
      <trkpt lat="45.81143" lon="3.04415">
        <ele>606</ele>
        <time>2020-07-25T08:54:34Z</time>
      </trkpt>
      <trkpt lat="45.81132" lon="3.0443">
        <ele>605.20001220703</ele>
        <time>2020-07-25T08:54:36Z</time>
      </trkpt>
      <trkpt lat="45.81116" lon="3.0444">
        <ele>604.79998779297</ele>
        <time>2020-07-25T08:54:38Z</time>
      </trkpt>
      <trkpt lat="45.81108" lon="3.04444">
        <ele>603.79998779297</ele>
        <time>2020-07-25T08:54:39Z</time>
      </trkpt>
      <trkpt lat="45.81099" lon="3.04449">
        <ele>602.79998779297</ele>
        <time>2020-07-25T08:54:40Z</time>
      </trkpt>
      <trkpt lat="45.81089" lon="3.04452">
        <ele>602</ele>
        <time>2020-07-25T08:54:41Z</time>
      </trkpt>
      <trkpt lat="45.81068" lon="3.04448">
        <ele>600</ele>
        <time>2020-07-25T08:54:43Z</time>
      </trkpt>
      <trkpt lat="45.81048" lon="3.04441">
        <ele>598.20001220703</ele>
        <time>2020-07-25T08:54:45Z</time>
      </trkpt>
      <trkpt lat="45.81037" lon="3.04441">
        <ele>597.40002441406</ele>
        <time>2020-07-25T08:54:46Z</time>
      </trkpt>
      <trkpt lat="45.81026" lon="3.04444">
        <ele>596.59997558594</ele>
        <time>2020-07-25T08:54:47Z</time>
      </trkpt>
      <trkpt lat="45.81004" lon="3.04454">
        <ele>594.59997558594</ele>
        <time>2020-07-25T08:54:49Z</time>
      </trkpt>
      <trkpt lat="45.80992" lon="3.0446">
        <ele>593.20001220703</ele>
        <time>2020-07-25T08:54:50Z</time>
      </trkpt>
      <trkpt lat="45.80981" lon="3.04465">
        <ele>591.59997558594</ele>
        <time>2020-07-25T08:54:51Z</time>
      </trkpt>
      <trkpt lat="45.80969" lon="3.0447">
        <ele>590.20001220703</ele>
        <time>2020-07-25T08:54:52Z</time>
      </trkpt>
      <trkpt lat="45.80957" lon="3.04473">
        <ele>589</ele>
        <time>2020-07-25T08:54:53Z</time>
      </trkpt>
      <trkpt lat="45.80945" lon="3.04476">
        <ele>588</ele>
        <time>2020-07-25T08:54:54Z</time>
      </trkpt>
      <trkpt lat="45.80933" lon="3.04477">
        <ele>587.20001220703</ele>
        <time>2020-07-25T08:54:55Z</time>
      </trkpt>
      <trkpt lat="45.80908" lon="3.0448">
        <ele>585.40002441406</ele>
        <time>2020-07-25T08:54:57Z</time>
      </trkpt>
      <trkpt lat="45.80895" lon="3.04482">
        <ele>584.40002441406</ele>
        <time>2020-07-25T08:54:58Z</time>
      </trkpt>
      <trkpt lat="45.80883" lon="3.04487">
        <ele>583.20001220703</ele>
        <time>2020-07-25T08:54:59Z</time>
      </trkpt>
      <trkpt lat="45.80871" lon="3.04491">
        <ele>582.20001220703</ele>
        <time>2020-07-25T08:55:00Z</time>
      </trkpt>
      <trkpt lat="45.8086" lon="3.04493">
        <ele>581</ele>
        <time>2020-07-25T08:55:01Z</time>
      </trkpt>
      <trkpt lat="45.80848" lon="3.04493">
        <ele>580</ele>
        <time>2020-07-25T08:55:02Z</time>
      </trkpt>
      <trkpt lat="45.80838" lon="3.04491">
        <ele>578</ele>
        <time>2020-07-25T08:55:03Z</time>
      </trkpt>
      <trkpt lat="45.8082" lon="3.04476">
        <ele>576.59997558594</ele>
        <time>2020-07-25T08:55:05Z</time>
      </trkpt>
      <trkpt lat="45.80809" lon="3.04452">
        <ele>575.79998779297</ele>
        <time>2020-07-25T08:55:07Z</time>
      </trkpt>
      <trkpt lat="45.80805" lon="3.04438">
        <ele>575.40002441406</ele>
        <time>2020-07-25T08:55:08Z</time>
      </trkpt>
      <trkpt lat="45.80802" lon="3.04407">
        <ele>574.40002441406</ele>
        <time>2020-07-25T08:55:10Z</time>
      </trkpt>
      <trkpt lat="45.80803" lon="3.04391">
        <ele>574.20001220703</ele>
        <time>2020-07-25T08:55:11Z</time>
      </trkpt>
      <trkpt lat="45.8081" lon="3.04359">
        <ele>573.40002441406</ele>
        <time>2020-07-25T08:55:13Z</time>
      </trkpt>
      <trkpt lat="45.80814" lon="3.04343">
        <ele>573</ele>
        <time>2020-07-25T08:55:14Z</time>
      </trkpt>
      <trkpt lat="45.80817" lon="3.04327">
        <ele>572.20001220703</ele>
        <time>2020-07-25T08:55:15Z</time>
      </trkpt>
      <trkpt lat="45.80818" lon="3.0431">
        <ele>571</ele>
        <time>2020-07-25T08:55:16Z</time>
      </trkpt>
      <trkpt lat="45.80817" lon="3.04294">
        <ele>569.59997558594</ele>
        <time>2020-07-25T08:55:17Z</time>
      </trkpt>
      <trkpt lat="45.80814" lon="3.04277">
        <ele>568.20001220703</ele>
        <time>2020-07-25T08:55:18Z</time>
      </trkpt>
      <trkpt lat="45.8081" lon="3.04261">
        <ele>566.79998779297</ele>
        <time>2020-07-25T08:55:19Z</time>
      </trkpt>
      <trkpt lat="45.80807" lon="3.04244">
        <ele>565.59997558594</ele>
        <time>2020-07-25T08:55:20Z</time>
      </trkpt>
      <trkpt lat="45.80803" lon="3.04227">
        <ele>564.59997558594</ele>
        <time>2020-07-25T08:55:21Z</time>
      </trkpt>
      <trkpt lat="45.80801" lon="3.0421">
        <ele>563.40002441406</ele>
        <time>2020-07-25T08:55:22Z</time>
      </trkpt>
      <trkpt lat="45.80801" lon="3.04174">
        <ele>561.79998779297</ele>
        <time>2020-07-25T08:55:24Z</time>
      </trkpt>
      <trkpt lat="45.80805" lon="3.04139">
        <ele>560.59997558594</ele>
        <time>2020-07-25T08:55:26Z</time>
      </trkpt>
      <trkpt lat="45.80805" lon="3.04121">
        <ele>558.79998779297</ele>
        <time>2020-07-25T08:55:27Z</time>
      </trkpt>
      <trkpt lat="45.80803" lon="3.04105">
        <ele>557.79998779297</ele>
        <time>2020-07-25T08:55:28Z</time>
      </trkpt>
      <trkpt lat="45.80799" lon="3.04088">
        <ele>556.59997558594</ele>
        <time>2020-07-25T08:55:29Z</time>
      </trkpt>
      <trkpt lat="45.80789" lon="3.04056">
        <ele>555</ele>
        <time>2020-07-25T08:55:31Z</time>
      </trkpt>
      <trkpt lat="45.80786" lon="3.04021">
        <ele>553.40002441406</ele>
        <time>2020-07-25T08:55:33Z</time>
      </trkpt>
      <trkpt lat="45.80786" lon="3.04004">
        <ele>552.40002441406</ele>
        <time>2020-07-25T08:55:34Z</time>
      </trkpt>
      <trkpt lat="45.80786" lon="3.03986">
        <ele>551.40002441406</ele>
        <time>2020-07-25T08:55:35Z</time>
      </trkpt>
      <trkpt lat="45.80786" lon="3.03969">
        <ele>550.40002441406</ele>
        <time>2020-07-25T08:55:36Z</time>
      </trkpt>
      <trkpt lat="45.80784" lon="3.03951">
        <ele>549.40002441406</ele>
        <time>2020-07-25T08:55:37Z</time>
      </trkpt>
      <trkpt lat="45.80781" lon="3.03934">
        <ele>548.59997558594</ele>
        <time>2020-07-25T08:55:38Z</time>
      </trkpt>
      <trkpt lat="45.80773" lon="3.03902">
        <ele>547.20001220703</ele>
        <time>2020-07-25T08:55:40Z</time>
      </trkpt>
      <trkpt lat="45.80768" lon="3.03887">
        <ele>546.40002441406</ele>
        <time>2020-07-25T08:55:41Z</time>
      </trkpt>
      <trkpt lat="45.80763" lon="3.03871">
        <ele>545.59997558594</ele>
        <time>2020-07-25T08:55:42Z</time>
      </trkpt>
      <trkpt lat="45.80756" lon="3.0384">
        <ele>544.20001220703</ele>
        <time>2020-07-25T08:55:44Z</time>
      </trkpt>
      <trkpt lat="45.80753" lon="3.03824">
        <ele>543.59997558594</ele>
        <time>2020-07-25T08:55:45Z</time>
      </trkpt>
      <trkpt lat="45.80751" lon="3.03809">
        <ele>542.79998779297</ele>
        <time>2020-07-25T08:55:46Z</time>
      </trkpt>
      <trkpt lat="45.80748" lon="3.03782">
        <ele>542</ele>
        <time>2020-07-25T08:55:48Z</time>
      </trkpt>
      <trkpt lat="45.80744" lon="3.03772">
        <ele>541.79998779297</ele>
        <time>2020-07-25T08:55:49Z</time>
      </trkpt>
      <trkpt lat="45.80735" lon="3.03758">
        <ele>542</ele>
        <time>2020-07-25T08:55:51Z</time>
      </trkpt>
      <trkpt lat="45.80727" lon="3.03761">
        <ele>542.59997558594</ele>
        <time>2020-07-25T08:55:53Z</time>
      </trkpt>
      <trkpt lat="45.80724" lon="3.03768">
        <ele>542.79998779297</ele>
        <time>2020-07-25T08:55:54Z</time>
      </trkpt>
      <trkpt lat="45.80721" lon="3.03784">
        <ele>543</ele>
        <time>2020-07-25T08:55:56Z</time>
      </trkpt>
      <trkpt lat="45.80721" lon="3.0382">
        <ele>543</ele>
        <time>2020-07-25T08:56:00Z</time>
      </trkpt>
      <trkpt lat="45.80722" lon="3.03828">
        <ele>542.59997558594</ele>
        <time>2020-07-25T08:56:01Z</time>
      </trkpt>
      <trkpt lat="45.80728" lon="3.03854">
        <ele>541.40002441406</ele>
        <time>2020-07-25T08:56:04Z</time>
      </trkpt>
      <trkpt lat="45.80732" lon="3.03868">
        <ele>540.20001220703</ele>
        <time>2020-07-25T08:56:06Z</time>
      </trkpt>
      <trkpt lat="45.80735" lon="3.03882">
        <ele>539.20001220703</ele>
        <time>2020-07-25T08:56:08Z</time>
      </trkpt>
      <trkpt lat="45.80738" lon="3.039">
        <ele>538.20001220703</ele>
        <time>2020-07-25T08:56:11Z</time>
      </trkpt>
      <trkpt lat="45.80739" lon="3.03906">
        <ele>538</ele>
        <time>2020-07-25T08:56:12Z</time>
      </trkpt>
      <trkpt lat="45.80742" lon="3.03923">
        <ele>536.59997558594</ele>
        <time>2020-07-25T08:56:15Z</time>
      </trkpt>
      <trkpt lat="45.80744" lon="3.03936">
        <ele>535.79998779297</ele>
        <time>2020-07-25T08:56:17Z</time>
      </trkpt>
      <trkpt lat="45.80745" lon="3.03943">
        <ele>535.40002441406</ele>
        <time>2020-07-25T08:56:18Z</time>
      </trkpt>
      <trkpt lat="45.80746" lon="3.03955">
        <ele>534.59997558594</ele>
        <time>2020-07-25T08:56:20Z</time>
      </trkpt>
      <trkpt lat="45.80746" lon="3.03961">
        <ele>534.40002441406</ele>
        <time>2020-07-25T08:56:21Z</time>
      </trkpt>
      <trkpt lat="45.80747" lon="3.03973">
        <ele>533.59997558594</ele>
        <time>2020-07-25T08:56:23Z</time>
      </trkpt>
      <trkpt lat="45.80747" lon="3.03979">
        <ele>533.40002441406</ele>
        <time>2020-07-25T08:56:24Z</time>
      </trkpt>
      <trkpt lat="45.80748" lon="3.03984">
        <ele>533</ele>
        <time>2020-07-25T08:56:25Z</time>
      </trkpt>
      <trkpt lat="45.80748" lon="3.04009">
        <ele>531.59997558594</ele>
        <time>2020-07-25T08:56:29Z</time>
      </trkpt>
      <trkpt lat="45.80746" lon="3.04022">
        <ele>531</ele>
        <time>2020-07-25T08:56:31Z</time>
      </trkpt>
      <trkpt lat="45.80745" lon="3.04029">
        <ele>530.59997558594</ele>
        <time>2020-07-25T08:56:32Z</time>
      </trkpt>
      <trkpt lat="45.80744" lon="3.04046">
        <ele>529.59997558594</ele>
        <time>2020-07-25T08:56:35Z</time>
      </trkpt>
      <trkpt lat="45.80743" lon="3.04053">
        <ele>529.20001220703</ele>
        <time>2020-07-25T08:56:36Z</time>
      </trkpt>
      <trkpt lat="45.80742" lon="3.0406">
        <ele>529</ele>
        <time>2020-07-25T08:56:37Z</time>
      </trkpt>
      <trkpt lat="45.8074" lon="3.04067">
        <ele>528.59997558594</ele>
        <time>2020-07-25T08:56:38Z</time>
      </trkpt>
      <trkpt lat="45.80736" lon="3.04082">
        <ele>527.20001220703</ele>
        <time>2020-07-25T08:56:40Z</time>
      </trkpt>
      <trkpt lat="45.80732" lon="3.041">
        <ele>526.20001220703</ele>
        <time>2020-07-25T08:56:42Z</time>
      </trkpt>
      <trkpt lat="45.80726" lon="3.0412">
        <ele>525.20001220703</ele>
        <time>2020-07-25T08:56:44Z</time>
      </trkpt>
      <trkpt lat="45.80721" lon="3.0414">
        <ele>524</ele>
        <time>2020-07-25T08:56:46Z</time>
      </trkpt>
      <trkpt lat="45.80719" lon="3.04151">
        <ele>523.20001220703</ele>
        <time>2020-07-25T08:56:47Z</time>
      </trkpt>
      <trkpt lat="45.80717" lon="3.04163">
        <ele>522.59997558594</ele>
        <time>2020-07-25T08:56:48Z</time>
      </trkpt>
      <trkpt lat="45.80715" lon="3.04188">
        <ele>521.20001220703</ele>
        <time>2020-07-25T08:56:50Z</time>
      </trkpt>
      <trkpt lat="45.80713" lon="3.04216">
        <ele>519.40002441406</ele>
        <time>2020-07-25T08:56:52Z</time>
      </trkpt>
      <trkpt lat="45.80712" lon="3.04244">
        <ele>517.59997558594</ele>
        <time>2020-07-25T08:56:54Z</time>
      </trkpt>
      <trkpt lat="45.80711" lon="3.04275">
        <ele>515.79998779297</ele>
        <time>2020-07-25T08:56:56Z</time>
      </trkpt>
      <trkpt lat="45.80709" lon="3.04292">
        <ele>514.79998779297</ele>
        <time>2020-07-25T08:56:57Z</time>
      </trkpt>
      <trkpt lat="45.80706" lon="3.04308">
        <ele>513.59997558594</ele>
        <time>2020-07-25T08:56:58Z</time>
      </trkpt>
      <trkpt lat="45.80701" lon="3.04325">
        <ele>512.40002441406</ele>
        <time>2020-07-25T08:56:59Z</time>
      </trkpt>
      <trkpt lat="45.80696" lon="3.04341">
        <ele>511.20001220703</ele>
        <time>2020-07-25T08:57:00Z</time>
      </trkpt>
      <trkpt lat="45.80691" lon="3.04357">
        <ele>509.79998779297</ele>
        <time>2020-07-25T08:57:01Z</time>
      </trkpt>
      <trkpt lat="45.80686" lon="3.04375">
        <ele>508.60000610352</ele>
        <time>2020-07-25T08:57:02Z</time>
      </trkpt>
      <trkpt lat="45.80682" lon="3.04392">
        <ele>506</ele>
        <time>2020-07-25T08:57:03Z</time>
      </trkpt>
      <trkpt lat="45.80679" lon="3.0441">
        <ele>505</ele>
        <time>2020-07-25T08:57:04Z</time>
      </trkpt>
      <trkpt lat="45.80676" lon="3.04429">
        <ele>503.79998779297</ele>
        <time>2020-07-25T08:57:05Z</time>
      </trkpt>
      <trkpt lat="45.80673" lon="3.04448">
        <ele>502.60000610352</ele>
        <time>2020-07-25T08:57:06Z</time>
      </trkpt>
      <trkpt lat="45.8067" lon="3.04467">
        <ele>501.39999389648</ele>
        <time>2020-07-25T08:57:07Z</time>
      </trkpt>
      <trkpt lat="45.80667" lon="3.04485">
        <ele>500.20001220703</ele>
        <time>2020-07-25T08:57:08Z</time>
      </trkpt>
      <trkpt lat="45.80661" lon="3.04502">
        <ele>499</ele>
        <time>2020-07-25T08:57:09Z</time>
      </trkpt>
      <trkpt lat="45.80654" lon="3.04518">
        <ele>497.60000610352</ele>
        <time>2020-07-25T08:57:10Z</time>
      </trkpt>
      <trkpt lat="45.80646" lon="3.04533">
        <ele>496.39999389648</ele>
        <time>2020-07-25T08:57:11Z</time>
      </trkpt>
      <trkpt lat="45.80638" lon="3.04548">
        <ele>495.20001220703</ele>
        <time>2020-07-25T08:57:12Z</time>
      </trkpt>
      <trkpt lat="45.80632" lon="3.04563">
        <ele>493.79998779297</ele>
        <time>2020-07-25T08:57:13Z</time>
      </trkpt>
      <trkpt lat="45.80627" lon="3.04578">
        <ele>492.39999389648</ele>
        <time>2020-07-25T08:57:14Z</time>
      </trkpt>
      <trkpt lat="45.80624" lon="3.04595">
        <ele>491.39999389648</ele>
        <time>2020-07-25T08:57:15Z</time>
      </trkpt>
      <trkpt lat="45.80625" lon="3.04626">
        <ele>490.20001220703</ele>
        <time>2020-07-25T08:57:17Z</time>
      </trkpt>
      <trkpt lat="45.80635" lon="3.04667">
        <ele>489.60000610352</ele>
        <time>2020-07-25T08:57:20Z</time>
      </trkpt>
      <trkpt lat="45.80654" lon="3.04744">
        <ele>489.60000610352</ele>
        <time>2020-07-25T08:57:26Z</time>
      </trkpt>
      <trkpt lat="45.80665" lon="3.04804">
        <ele>489.60000610352</ele>
        <time>2020-07-25T08:57:31Z</time>
      </trkpt>
      <trkpt lat="45.80677" lon="3.0487">
        <ele>490</ele>
        <time>2020-07-25T08:57:37Z</time>
      </trkpt>
      <trkpt lat="45.8069" lon="3.0493">
        <ele>489</ele>
        <time>2020-07-25T08:57:43Z</time>
      </trkpt>
      <trkpt lat="45.8069" lon="3.04937">
        <ele>489</ele>
        <time>2020-07-25T08:57:44Z</time>
      </trkpt>
      <trkpt lat="45.80691" lon="3.0495">
        <ele>488.79998779297</ele>
        <time>2020-07-25T08:57:46Z</time>
      </trkpt>
      <trkpt lat="45.8069" lon="3.04956">
        <ele>489</ele>
        <time>2020-07-25T08:57:47Z</time>
      </trkpt>
      <trkpt lat="45.80677" lon="3.04978">
        <ele>489.20001220703</ele>
        <time>2020-07-25T08:57:51Z</time>
      </trkpt>
      <trkpt lat="45.80673" lon="3.04983">
        <ele>489.20001220703</ele>
        <time>2020-07-25T08:57:52Z</time>
      </trkpt>
      <trkpt lat="45.8066" lon="3.0499">
        <ele>488.79998779297</ele>
        <time>2020-07-25T08:57:55Z</time>
      </trkpt>
      <trkpt lat="45.80645" lon="3.04993">
        <ele>488.60000610352</ele>
        <time>2020-07-25T08:57:58Z</time>
      </trkpt>
      <trkpt lat="45.80633" lon="3.04996">
        <ele>488.39999389648</ele>
        <time>2020-07-25T08:58:00Z</time>
      </trkpt>
      <trkpt lat="45.80616" lon="3.04999">
        <ele>487.79998779297</ele>
        <time>2020-07-25T08:58:03Z</time>
      </trkpt>
      <trkpt lat="45.80589" lon="3.05005">
        <ele>486.79998779297</ele>
        <time>2020-07-25T08:58:08Z</time>
      </trkpt>
      <trkpt lat="45.80551" lon="3.05014">
        <ele>486.20001220703</ele>
        <time>2020-07-25T08:58:14Z</time>
      </trkpt>
      <trkpt lat="45.80538" lon="3.05018">
        <ele>485.39999389648</ele>
        <time>2020-07-25T08:58:16Z</time>
      </trkpt>
      <trkpt lat="45.80505" lon="3.05026">
        <ele>484.60000610352</ele>
        <time>2020-07-25T08:58:21Z</time>
      </trkpt>
      <trkpt lat="45.80477" lon="3.05025">
        <ele>484.39999389648</ele>
        <time>2020-07-25T08:58:25Z</time>
      </trkpt>
      <trkpt lat="45.80471" lon="3.05024">
        <ele>484.39999389648</ele>
        <time>2020-07-25T08:58:26Z</time>
      </trkpt>
      <trkpt lat="45.80443" lon="3.05017">
        <ele>485.20001220703</ele>
        <time>2020-07-25T08:58:31Z</time>
      </trkpt>
      <trkpt lat="45.80437" lon="3.05018">
        <ele>485.39999389648</ele>
        <time>2020-07-25T08:58:32Z</time>
      </trkpt>
      <trkpt lat="45.80432" lon="3.05019">
        <ele>485.60000610352</ele>
        <time>2020-07-25T08:58:33Z</time>
      </trkpt>
      <trkpt lat="45.80413" lon="3.05031">
        <ele>486.60000610352</ele>
        <time>2020-07-25T08:58:37Z</time>
      </trkpt>
      <trkpt lat="45.80403" lon="3.05045">
        <ele>487.20001220703</ele>
        <time>2020-07-25T08:58:40Z</time>
      </trkpt>
      <trkpt lat="45.80393" lon="3.05061">
        <ele>487.79998779297</ele>
        <time>2020-07-25T08:58:43Z</time>
      </trkpt>
      <trkpt lat="45.80365" lon="3.05088">
        <ele>488.39999389648</ele>
        <time>2020-07-25T08:58:50Z</time>
      </trkpt>
      <trkpt lat="45.80345" lon="3.051">
        <ele>488.79998779297</ele>
        <time>2020-07-25T08:58:55Z</time>
      </trkpt>
      <trkpt lat="45.80337" lon="3.05104">
        <ele>489.20001220703</ele>
        <time>2020-07-25T08:58:57Z</time>
      </trkpt>
      <trkpt lat="45.80317" lon="3.05116">
        <ele>490</ele>
        <time>2020-07-25T08:59:02Z</time>
      </trkpt>
      <trkpt lat="45.8031" lon="3.0512">
        <ele>490.39999389648</ele>
        <time>2020-07-25T08:59:04Z</time>
      </trkpt>
      <trkpt lat="45.80293" lon="3.05125">
        <ele>491</ele>
        <time>2020-07-25T08:59:08Z</time>
      </trkpt>
      <trkpt lat="45.80285" lon="3.05128">
        <ele>491.20001220703</ele>
        <time>2020-07-25T08:59:10Z</time>
      </trkpt>
      <trkpt lat="45.80281" lon="3.05128">
        <ele>491.39999389648</ele>
        <time>2020-07-25T08:59:11Z</time>
      </trkpt>
      <trkpt lat="45.80252" lon="3.05128">
        <ele>492.20001220703</ele>
        <time>2020-07-25T08:59:18Z</time>
      </trkpt>
      <trkpt lat="45.80248" lon="3.05128">
        <ele>492.39999389648</ele>
        <time>2020-07-25T08:59:19Z</time>
      </trkpt>
      <trkpt lat="45.80228" lon="3.05131">
        <ele>493.39999389648</ele>
        <time>2020-07-25T08:59:24Z</time>
      </trkpt>
      <trkpt lat="45.8022" lon="3.05133">
        <ele>493.60000610352</ele>
        <time>2020-07-25T08:59:26Z</time>
      </trkpt>
      <trkpt lat="45.80194" lon="3.0515">
        <ele>494.20001220703</ele>
        <time>2020-07-25T08:59:33Z</time>
      </trkpt>
      <trkpt lat="45.8019" lon="3.05153">
        <ele>494.20001220703</ele>
        <time>2020-07-25T08:59:34Z</time>
      </trkpt>
      <trkpt lat="45.80179" lon="3.05161">
        <ele>494.60000610352</ele>
        <time>2020-07-25T08:59:37Z</time>
      </trkpt>
      <trkpt lat="45.80161" lon="3.05173">
        <ele>495</ele>
        <time>2020-07-25T08:59:42Z</time>
      </trkpt>
      <trkpt lat="45.8014" lon="3.05184">
        <ele>495.60000610352</ele>
        <time>2020-07-25T08:59:47Z</time>
      </trkpt>
      <trkpt lat="45.80124" lon="3.05189">
        <ele>496</ele>
        <time>2020-07-25T08:59:51Z</time>
      </trkpt>
      <trkpt lat="45.80107" lon="3.0519">
        <ele>496.39999389648</ele>
        <time>2020-07-25T08:59:55Z</time>
      </trkpt>
      <trkpt lat="45.80094" lon="3.05189">
        <ele>496.79998779297</ele>
        <time>2020-07-25T08:59:58Z</time>
      </trkpt>
      <trkpt lat="45.80089" lon="3.05189">
        <ele>496.79998779297</ele>
        <time>2020-07-25T08:59:59Z</time>
      </trkpt>
      <trkpt lat="45.80061" lon="3.05185">
        <ele>497.79998779297</ele>
        <time>2020-07-25T09:00:06Z</time>
      </trkpt>
      <trkpt lat="45.80057" lon="3.05184">
        <ele>497.79998779297</ele>
        <time>2020-07-25T09:00:07Z</time>
      </trkpt>
      <trkpt lat="45.80029" lon="3.05183">
        <ele>499</ele>
        <time>2020-07-25T09:00:14Z</time>
      </trkpt>
      <trkpt lat="45.80025" lon="3.05184">
        <ele>499.39999389648</ele>
        <time>2020-07-25T09:00:15Z</time>
      </trkpt>
      <trkpt lat="45.80012" lon="3.05185">
        <ele>500</ele>
        <time>2020-07-25T09:00:18Z</time>
      </trkpt>
      <trkpt lat="45.79992" lon="3.05189">
        <ele>500.20001220703</ele>
        <time>2020-07-25T09:00:23Z</time>
      </trkpt>
      <trkpt lat="45.79956" lon="3.05194">
        <ele>501.20001220703</ele>
        <time>2020-07-25T09:00:32Z</time>
      </trkpt>
      <trkpt lat="45.79951" lon="3.05195">
        <ele>501.39999389648</ele>
        <time>2020-07-25T09:00:33Z</time>
      </trkpt>
      <trkpt lat="45.7993" lon="3.05198">
        <ele>502</ele>
        <time>2020-07-25T09:00:38Z</time>
      </trkpt>
      <trkpt lat="45.79926" lon="3.05199">
        <ele>502.20001220703</ele>
        <time>2020-07-25T09:00:39Z</time>
      </trkpt>
      <trkpt lat="45.79917" lon="3.052">
        <ele>502.39999389648</ele>
        <time>2020-07-25T09:00:41Z</time>
      </trkpt>
      <trkpt lat="45.79886" lon="3.05206">
        <ele>503.20001220703</ele>
        <time>2020-07-25T09:00:48Z</time>
      </trkpt>
      <trkpt lat="45.79868" lon="3.05209">
        <ele>503.79998779297</ele>
        <time>2020-07-25T09:00:52Z</time>
      </trkpt>
      <trkpt lat="45.79854" lon="3.05212">
        <ele>504.20001220703</ele>
        <time>2020-07-25T09:00:55Z</time>
      </trkpt>
      <trkpt lat="45.79834" lon="3.05215">
        <ele>504.60000610352</ele>
        <time>2020-07-25T09:01:00Z</time>
      </trkpt>
      <trkpt lat="45.79812" lon="3.05221">
        <ele>505.39999389648</ele>
        <time>2020-07-25T09:01:06Z</time>
      </trkpt>
      <trkpt lat="45.79805" lon="3.05225">
        <ele>505.60000610352</ele>
        <time>2020-07-25T09:01:08Z</time>
      </trkpt>
      <trkpt lat="45.79793" lon="3.05232">
        <ele>506.39999389648</ele>
        <time>2020-07-25T09:01:13Z</time>
      </trkpt>
      <trkpt lat="45.79791" lon="3.05234">
        <ele>506.39999389648</ele>
        <time>2020-07-25T09:01:14Z</time>
      </trkpt>
      <trkpt lat="45.79789" lon="3.05235">
        <ele>506.39999389648</ele>
        <time>2020-07-25T09:01:17Z</time>
      </trkpt>
      <trkpt lat="45.79789" lon="3.05235">
        <ele>506.79998779297</ele>
        <time>2020-07-25T09:01:27Z</time>
      </trkpt>
      <trkpt lat="45.79789" lon="3.05235">
        <ele>506.79998779297</ele>
        <time>2020-07-25T09:01:37Z</time>
      </trkpt>
      <trkpt lat="45.79789" lon="3.05235">
        <ele>506.79998779297</ele>
        <time>2020-07-25T09:01:44Z</time>
      </trkpt>
      <trkpt lat="45.79789" lon="3.05235">
        <ele>506.79998779297</ele>
        <time>2020-07-25T09:01:52Z</time>
      </trkpt>
      <trkpt lat="45.79789" lon="3.05235">
        <ele>506.60000610352</ele>
        <time>2020-07-25T09:02:06Z</time>
      </trkpt>
      <trkpt lat="45.79789" lon="3.05235">
        <ele>506.60000610352</ele>
        <time>2020-07-25T09:02:14Z</time>
      </trkpt>
      <trkpt lat="45.79788" lon="3.05235">
        <ele>506.60000610352</ele>
        <time>2020-07-25T09:02:20Z</time>
      </trkpt>
      <trkpt lat="45.79786" lon="3.05235">
        <ele>506.60000610352</ele>
        <time>2020-07-25T09:02:22Z</time>
      </trkpt>
      <trkpt lat="45.79782" lon="3.05238">
        <ele>506.60000610352</ele>
        <time>2020-07-25T09:02:24Z</time>
      </trkpt>
      <trkpt lat="45.79769" lon="3.05245">
        <ele>506.60000610352</ele>
        <time>2020-07-25T09:02:29Z</time>
      </trkpt>
      <trkpt lat="45.79768" lon="3.05263">
        <ele>506.79998779297</ele>
        <time>2020-07-25T09:02:33Z</time>
      </trkpt>
      <trkpt lat="45.79764" lon="3.05284">
        <ele>506.20001220703</ele>
        <time>2020-07-25T09:02:38Z</time>
      </trkpt>
      <trkpt lat="45.79757" lon="3.05315">
        <ele>506.60000610352</ele>
        <time>2020-07-25T09:02:44Z</time>
      </trkpt>
      <trkpt lat="45.79756" lon="3.05321">
        <ele>506.60000610352</ele>
        <time>2020-07-25T09:02:45Z</time>
      </trkpt>
      <trkpt lat="45.79752" lon="3.05372">
        <ele>505.39999389648</ele>
        <time>2020-07-25T09:02:52Z</time>
      </trkpt>
      <trkpt lat="45.7975" lon="3.05387">
        <ele>505.39999389648</ele>
        <time>2020-07-25T09:02:54Z</time>
      </trkpt>
      <trkpt lat="45.79744" lon="3.05446">
        <ele>504.79998779297</ele>
        <time>2020-07-25T09:03:03Z</time>
      </trkpt>
      <trkpt lat="45.79741" lon="3.05469">
        <ele>504.20001220703</ele>
        <time>2020-07-25T09:03:06Z</time>
      </trkpt>
      <trkpt lat="45.79739" lon="3.05491">
        <ele>503.60000610352</ele>
        <time>2020-07-25T09:03:09Z</time>
      </trkpt>
      <trkpt lat="45.79738" lon="3.05506">
        <ele>503.60000610352</ele>
        <time>2020-07-25T09:03:11Z</time>
      </trkpt>
      <trkpt lat="45.79732" lon="3.0556">
        <ele>503.79998779297</ele>
        <time>2020-07-25T09:03:18Z</time>
      </trkpt>
      <trkpt lat="45.79731" lon="3.05568">
        <ele>503.79998779297</ele>
        <time>2020-07-25T09:03:19Z</time>
      </trkpt>
      <trkpt lat="45.79728" lon="3.05608">
        <ele>503.20001220703</ele>
        <time>2020-07-25T09:03:24Z</time>
      </trkpt>
      <trkpt lat="45.79725" lon="3.05641">
        <ele>502.79998779297</ele>
        <time>2020-07-25T09:03:28Z</time>
      </trkpt>
      <trkpt lat="45.79718" lon="3.05718">
        <ele>502.79998779297</ele>
        <time>2020-07-25T09:03:37Z</time>
      </trkpt>
      <trkpt lat="45.79712" lon="3.05786">
        <ele>502</ele>
        <time>2020-07-25T09:03:45Z</time>
      </trkpt>
      <trkpt lat="45.79707" lon="3.05835">
        <ele>501</ele>
        <time>2020-07-25T09:03:51Z</time>
      </trkpt>
      <trkpt lat="45.79705" lon="3.05852">
        <ele>501</ele>
        <time>2020-07-25T09:03:53Z</time>
      </trkpt>
      <trkpt lat="45.79693" lon="3.0591">
        <ele>501</ele>
        <time>2020-07-25T09:04:00Z</time>
      </trkpt>
      <trkpt lat="45.7968" lon="3.05964">
        <ele>500</ele>
        <time>2020-07-25T09:04:06Z</time>
      </trkpt>
      <trkpt lat="45.79673" lon="3.0599">
        <ele>499.20001220703</ele>
        <time>2020-07-25T09:04:09Z</time>
      </trkpt>
      <trkpt lat="45.79668" lon="3.06008">
        <ele>498.79998779297</ele>
        <time>2020-07-25T09:04:11Z</time>
      </trkpt>
      <trkpt lat="45.79651" lon="3.06064">
        <ele>498</ele>
        <time>2020-07-25T09:04:17Z</time>
      </trkpt>
      <trkpt lat="45.79646" lon="3.06072">
        <ele>497.79998779297</ele>
        <time>2020-07-25T09:04:18Z</time>
      </trkpt>
      <trkpt lat="45.79626" lon="3.06104">
        <ele>496.39999389648</ele>
        <time>2020-07-25T09:04:22Z</time>
      </trkpt>
      <trkpt lat="45.79608" lon="3.06124">
        <ele>495.20001220703</ele>
        <time>2020-07-25T09:04:25Z</time>
      </trkpt>
      <trkpt lat="45.79595" lon="3.06138">
        <ele>494.39999389648</ele>
        <time>2020-07-25T09:04:27Z</time>
      </trkpt>
      <trkpt lat="45.79589" lon="3.06146">
        <ele>494</ele>
        <time>2020-07-25T09:04:28Z</time>
      </trkpt>
      <trkpt lat="45.79574" lon="3.0617">
        <ele>493</ele>
        <time>2020-07-25T09:04:31Z</time>
      </trkpt>
      <trkpt lat="45.79567" lon="3.06179">
        <ele>492.79998779297</ele>
        <time>2020-07-25T09:04:32Z</time>
      </trkpt>
      <trkpt lat="45.7954" lon="3.06198">
        <ele>491.79998779297</ele>
        <time>2020-07-25T09:04:35Z</time>
      </trkpt>
      <trkpt lat="45.79519" lon="3.06206">
        <ele>489.39999389648</ele>
        <time>2020-07-25T09:04:37Z</time>
      </trkpt>
      <trkpt lat="45.79509" lon="3.06209">
        <ele>488</ele>
        <time>2020-07-25T09:04:38Z</time>
      </trkpt>
      <trkpt lat="45.79498" lon="3.06212">
        <ele>486.60000610352</ele>
        <time>2020-07-25T09:04:39Z</time>
      </trkpt>
      <trkpt lat="45.79488" lon="3.06216">
        <ele>485.39999389648</ele>
        <time>2020-07-25T09:04:40Z</time>
      </trkpt>
      <trkpt lat="45.79477" lon="3.06219">
        <ele>483.60000610352</ele>
        <time>2020-07-25T09:04:41Z</time>
      </trkpt>
      <trkpt lat="45.79457" lon="3.06225">
        <ele>482.20001220703</ele>
        <time>2020-07-25T09:04:43Z</time>
      </trkpt>
      <trkpt lat="45.79439" lon="3.0623">
        <ele>481.39999389648</ele>
        <time>2020-07-25T09:04:45Z</time>
      </trkpt>
      <trkpt lat="45.79432" lon="3.06233">
        <ele>481.20001220703</ele>
        <time>2020-07-25T09:04:46Z</time>
      </trkpt>
      <trkpt lat="45.79425" lon="3.06237">
        <ele>480.79998779297</ele>
        <time>2020-07-25T09:04:47Z</time>
      </trkpt>
      <trkpt lat="45.79412" lon="3.06251">
        <ele>480.60000610352</ele>
        <time>2020-07-25T09:04:49Z</time>
      </trkpt>
      <trkpt lat="45.794" lon="3.06266">
        <ele>480</ele>
        <time>2020-07-25T09:04:51Z</time>
      </trkpt>
      <trkpt lat="45.79393" lon="3.06271">
        <ele>479.39999389648</ele>
        <time>2020-07-25T09:04:52Z</time>
      </trkpt>
      <trkpt lat="45.79386" lon="3.06276">
        <ele>478.60000610352</ele>
        <time>2020-07-25T09:04:53Z</time>
      </trkpt>
      <trkpt lat="45.79378" lon="3.06281">
        <ele>478</ele>
        <time>2020-07-25T09:04:54Z</time>
      </trkpt>
      <trkpt lat="45.7937" lon="3.06286">
        <ele>477.20001220703</ele>
        <time>2020-07-25T09:04:55Z</time>
      </trkpt>
      <trkpt lat="45.7936" lon="3.06292">
        <ele>475.79998779297</ele>
        <time>2020-07-25T09:04:57Z</time>
      </trkpt>
      <trkpt lat="45.79356" lon="3.06294">
        <ele>475.20001220703</ele>
        <time>2020-07-25T09:04:58Z</time>
      </trkpt>
      <trkpt lat="45.79352" lon="3.06295">
        <ele>474.79998779297</ele>
        <time>2020-07-25T09:04:59Z</time>
      </trkpt>
      <trkpt lat="45.79348" lon="3.06297">
        <ele>474.39999389648</ele>
        <time>2020-07-25T09:05:00Z</time>
      </trkpt>
      <trkpt lat="45.79338" lon="3.06305">
        <ele>474.20001220703</ele>
        <time>2020-07-25T09:05:02Z</time>
      </trkpt>
      <trkpt lat="45.79327" lon="3.06313">
        <ele>474.20001220703</ele>
        <time>2020-07-25T09:05:04Z</time>
      </trkpt>
      <trkpt lat="45.79322" lon="3.06319">
        <ele>473.60000610352</ele>
        <time>2020-07-25T09:05:05Z</time>
      </trkpt>
      <trkpt lat="45.7931" lon="3.06331">
        <ele>472.60000610352</ele>
        <time>2020-07-25T09:05:07Z</time>
      </trkpt>
      <trkpt lat="45.79296" lon="3.06346">
        <ele>471.20001220703</ele>
        <time>2020-07-25T09:05:09Z</time>
      </trkpt>
      <trkpt lat="45.79281" lon="3.06365">
        <ele>469.20001220703</ele>
        <time>2020-07-25T09:05:11Z</time>
      </trkpt>
      <trkpt lat="45.79275" lon="3.06376">
        <ele>468</ele>
        <time>2020-07-25T09:05:12Z</time>
      </trkpt>
      <trkpt lat="45.7927" lon="3.06389">
        <ele>466.79998779297</ele>
        <time>2020-07-25T09:05:13Z</time>
      </trkpt>
      <trkpt lat="45.79265" lon="3.064">
        <ele>465.60000610352</ele>
        <time>2020-07-25T09:05:14Z</time>
      </trkpt>
      <trkpt lat="45.7926" lon="3.06411">
        <ele>464.39999389648</ele>
        <time>2020-07-25T09:05:15Z</time>
      </trkpt>
      <trkpt lat="45.79255" lon="3.06423">
        <ele>463.20001220703</ele>
        <time>2020-07-25T09:05:16Z</time>
      </trkpt>
      <trkpt lat="45.79249" lon="3.06435">
        <ele>462.20001220703</ele>
        <time>2020-07-25T09:05:17Z</time>
      </trkpt>
      <trkpt lat="45.79244" lon="3.06445">
        <ele>461</ele>
        <time>2020-07-25T09:05:18Z</time>
      </trkpt>
      <trkpt lat="45.79239" lon="3.06454">
        <ele>459.79998779297</ele>
        <time>2020-07-25T09:05:19Z</time>
      </trkpt>
      <trkpt lat="45.79236" lon="3.06462">
        <ele>458.60000610352</ele>
        <time>2020-07-25T09:05:20Z</time>
      </trkpt>
      <trkpt lat="45.79232" lon="3.0647">
        <ele>457.60000610352</ele>
        <time>2020-07-25T09:05:21Z</time>
      </trkpt>
      <trkpt lat="45.79226" lon="3.06482">
        <ele>456</ele>
        <time>2020-07-25T09:05:23Z</time>
      </trkpt>
      <trkpt lat="45.79218" lon="3.06491">
        <ele>455.20001220703</ele>
        <time>2020-07-25T09:05:25Z</time>
      </trkpt>
      <trkpt lat="45.79209" lon="3.065">
        <ele>454.39999389648</ele>
        <time>2020-07-25T09:05:27Z</time>
      </trkpt>
      <trkpt lat="45.79198" lon="3.06509">
        <ele>452.39999389648</ele>
        <time>2020-07-25T09:05:29Z</time>
      </trkpt>
      <trkpt lat="45.79191" lon="3.06514">
        <ele>451.60000610352</ele>
        <time>2020-07-25T09:05:30Z</time>
      </trkpt>
      <trkpt lat="45.79184" lon="3.0652">
        <ele>450.79998779297</ele>
        <time>2020-07-25T09:05:31Z</time>
      </trkpt>
      <trkpt lat="45.79167" lon="3.06534">
        <ele>449</ele>
        <time>2020-07-25T09:05:33Z</time>
      </trkpt>
      <trkpt lat="45.79159" lon="3.06542">
        <ele>447.60000610352</ele>
        <time>2020-07-25T09:05:34Z</time>
      </trkpt>
      <trkpt lat="45.7915" lon="3.0655">
        <ele>446.20001220703</ele>
        <time>2020-07-25T09:05:35Z</time>
      </trkpt>
      <trkpt lat="45.79141" lon="3.06558">
        <ele>444.39999389648</ele>
        <time>2020-07-25T09:05:36Z</time>
      </trkpt>
      <trkpt lat="45.79131" lon="3.06566">
        <ele>442.60000610352</ele>
        <time>2020-07-25T09:05:37Z</time>
      </trkpt>
      <trkpt lat="45.79123" lon="3.06573">
        <ele>440.79998779297</ele>
        <time>2020-07-25T09:05:38Z</time>
      </trkpt>
      <trkpt lat="45.79114" lon="3.0658">
        <ele>439</ele>
        <time>2020-07-25T09:05:39Z</time>
      </trkpt>
      <trkpt lat="45.79104" lon="3.06587">
        <ele>437.60000610352</ele>
        <time>2020-07-25T09:05:40Z</time>
      </trkpt>
      <trkpt lat="45.79096" lon="3.06594">
        <ele>436.60000610352</ele>
        <time>2020-07-25T09:05:41Z</time>
      </trkpt>
      <trkpt lat="45.7908" lon="3.06606">
        <ele>435.39999389648</ele>
        <time>2020-07-25T09:05:43Z</time>
      </trkpt>
      <trkpt lat="45.79074" lon="3.06613">
        <ele>435</ele>
        <time>2020-07-25T09:05:44Z</time>
      </trkpt>
      <trkpt lat="45.79057" lon="3.06637">
        <ele>434.79998779297</ele>
        <time>2020-07-25T09:05:48Z</time>
      </trkpt>
      <trkpt lat="45.79052" lon="3.06643">
        <ele>436.39999389648</ele>
        <time>2020-07-25T09:05:51Z</time>
      </trkpt>
      <trkpt lat="45.79052" lon="3.06643">
        <ele>437</ele>
        <time>2020-07-25T09:05:52Z</time>
      </trkpt>
      <trkpt lat="45.79052" lon="3.06643">
        <ele>438.39999389648</ele>
        <time>2020-07-25T09:05:53Z</time>
      </trkpt>
      <trkpt lat="45.79052" lon="3.06643">
        <ele>439.39999389648</ele>
        <time>2020-07-25T09:05:55Z</time>
      </trkpt>
      <trkpt lat="45.79052" lon="3.06643">
        <ele>440</ele>
        <time>2020-07-25T09:05:57Z</time>
      </trkpt>
      <trkpt lat="45.79052" lon="3.06643">
        <ele>440</ele>
        <time>2020-07-25T09:06:06Z</time>
      </trkpt>
      <trkpt lat="45.79048" lon="3.06649">
        <ele>440</ele>
        <time>2020-07-25T09:06:10Z</time>
      </trkpt>
      <trkpt lat="45.79046" lon="3.06673">
        <ele>440</ele>
        <time>2020-07-25T09:06:15Z</time>
      </trkpt>
      <trkpt lat="45.79053" lon="3.06708">
        <ele>439</ele>
        <time>2020-07-25T09:06:20Z</time>
      </trkpt>
      <trkpt lat="45.79058" lon="3.06749">
        <ele>438.39999389648</ele>
        <time>2020-07-25T09:06:25Z</time>
      </trkpt>
      <trkpt lat="45.7906" lon="3.06766">
        <ele>438.20001220703</ele>
        <time>2020-07-25T09:06:27Z</time>
      </trkpt>
      <trkpt lat="45.79068" lon="3.0681">
        <ele>437.39999389648</ele>
        <time>2020-07-25T09:06:32Z</time>
      </trkpt>
      <trkpt lat="45.79071" lon="3.06818">
        <ele>437.39999389648</ele>
        <time>2020-07-25T09:06:33Z</time>
      </trkpt>
      <trkpt lat="45.79087" lon="3.06848">
        <ele>436.79998779297</ele>
        <time>2020-07-25T09:06:37Z</time>
      </trkpt>
      <trkpt lat="45.79091" lon="3.06855">
        <ele>436.60000610352</ele>
        <time>2020-07-25T09:06:38Z</time>
      </trkpt>
      <trkpt lat="45.79095" lon="3.06862">
        <ele>436.39999389648</ele>
        <time>2020-07-25T09:06:39Z</time>
      </trkpt>
      <trkpt lat="45.79105" lon="3.06884">
        <ele>435.39999389648</ele>
        <time>2020-07-25T09:06:42Z</time>
      </trkpt>
      <trkpt lat="45.7911" lon="3.06902">
        <ele>435.39999389648</ele>
        <time>2020-07-25T09:06:44Z</time>
      </trkpt>
      <trkpt lat="45.79112" lon="3.06911">
        <ele>435.39999389648</ele>
        <time>2020-07-25T09:06:45Z</time>
      </trkpt>
      <trkpt lat="45.79124" lon="3.06954">
        <ele>434</ele>
        <time>2020-07-25T09:06:50Z</time>
      </trkpt>
      <trkpt lat="45.79128" lon="3.06972">
        <ele>433.60000610352</ele>
        <time>2020-07-25T09:06:52Z</time>
      </trkpt>
      <trkpt lat="45.79147" lon="3.07052">
        <ele>433.20001220703</ele>
        <time>2020-07-25T09:07:01Z</time>
      </trkpt>
      <trkpt lat="45.79149" lon="3.07061">
        <ele>433.39999389648</ele>
        <time>2020-07-25T09:07:02Z</time>
      </trkpt>
      <trkpt lat="45.79162" lon="3.07112">
        <ele>433.20001220703</ele>
        <time>2020-07-25T09:07:08Z</time>
      </trkpt>
      <trkpt lat="45.79163" lon="3.07131">
        <ele>433</ele>
        <time>2020-07-25T09:07:10Z</time>
      </trkpt>
      <trkpt lat="45.79163" lon="3.07141">
        <ele>432.79998779297</ele>
        <time>2020-07-25T09:07:11Z</time>
      </trkpt>
      <trkpt lat="45.79164" lon="3.07183">
        <ele>431.60000610352</ele>
        <time>2020-07-25T09:07:15Z</time>
      </trkpt>
      <trkpt lat="45.79165" lon="3.07222">
        <ele>430.60000610352</ele>
        <time>2020-07-25T09:07:19Z</time>
      </trkpt>
      <trkpt lat="45.79165" lon="3.07232">
        <ele>430.39999389648</ele>
        <time>2020-07-25T09:07:20Z</time>
      </trkpt>
      <trkpt lat="45.79165" lon="3.07242">
        <ele>430.20001220703</ele>
        <time>2020-07-25T09:07:21Z</time>
      </trkpt>
      <trkpt lat="45.79168" lon="3.07284">
        <ele>430</ele>
        <time>2020-07-25T09:07:25Z</time>
      </trkpt>
      <trkpt lat="45.7917" lon="3.07318">
        <ele>429</ele>
        <time>2020-07-25T09:07:28Z</time>
      </trkpt>
      <trkpt lat="45.7917" lon="3.0733">
        <ele>428</ele>
        <time>2020-07-25T09:07:29Z</time>
      </trkpt>
      <trkpt lat="45.79169" lon="3.07354">
        <ele>426.39999389648</ele>
        <time>2020-07-25T09:07:31Z</time>
      </trkpt>
      <trkpt lat="45.79168" lon="3.07366">
        <ele>425.79998779297</ele>
        <time>2020-07-25T09:07:32Z</time>
      </trkpt>
      <trkpt lat="45.79167" lon="3.07379">
        <ele>425.20001220703</ele>
        <time>2020-07-25T09:07:33Z</time>
      </trkpt>
      <trkpt lat="45.79164" lon="3.07405">
        <ele>424.20001220703</ele>
        <time>2020-07-25T09:07:35Z</time>
      </trkpt>
      <trkpt lat="45.79161" lon="3.07431">
        <ele>423</ele>
        <time>2020-07-25T09:07:37Z</time>
      </trkpt>
      <trkpt lat="45.79158" lon="3.07457">
        <ele>421.79998779297</ele>
        <time>2020-07-25T09:07:39Z</time>
      </trkpt>
      <trkpt lat="45.79154" lon="3.07482">
        <ele>420.79998779297</ele>
        <time>2020-07-25T09:07:41Z</time>
      </trkpt>
      <trkpt lat="45.79151" lon="3.07507">
        <ele>419.39999389648</ele>
        <time>2020-07-25T09:07:43Z</time>
      </trkpt>
      <trkpt lat="45.79148" lon="3.0752">
        <ele>418.79998779297</ele>
        <time>2020-07-25T09:07:44Z</time>
      </trkpt>
      <trkpt lat="45.79145" lon="3.07542">
        <ele>418</ele>
        <time>2020-07-25T09:07:46Z</time>
      </trkpt>
      <trkpt lat="45.79143" lon="3.07561">
        <ele>416.79998779297</ele>
        <time>2020-07-25T09:07:48Z</time>
      </trkpt>
      <trkpt lat="45.79141" lon="3.07568">
        <ele>416.20001220703</ele>
        <time>2020-07-25T09:07:49Z</time>
      </trkpt>
      <trkpt lat="45.79139" lon="3.07577">
        <ele>416</ele>
        <time>2020-07-25T09:07:51Z</time>
      </trkpt>
      <trkpt lat="45.79138" lon="3.07589">
        <ele>416.39999389648</ele>
        <time>2020-07-25T09:07:54Z</time>
      </trkpt>
      <trkpt lat="45.79137" lon="3.07593">
        <ele>416.60000610352</ele>
        <time>2020-07-25T09:07:56Z</time>
      </trkpt>
      <trkpt lat="45.79128" lon="3.07592">
        <ele>416.79998779297</ele>
        <time>2020-07-25T09:08:00Z</time>
      </trkpt>
      <trkpt lat="45.79118" lon="3.07584">
        <ele>417.79998779297</ele>
        <time>2020-07-25T09:08:05Z</time>
      </trkpt>
      <trkpt lat="45.79115" lon="3.07582">
        <ele>418</ele>
        <time>2020-07-25T09:08:06Z</time>
      </trkpt>
      <trkpt lat="45.79104" lon="3.07582">
        <ele>419</ele>
        <time>2020-07-25T09:08:10Z</time>
      </trkpt>
      <trkpt lat="45.79101" lon="3.07583">
        <ele>419.20001220703</ele>
        <time>2020-07-25T09:08:11Z</time>
      </trkpt>
      <trkpt lat="45.79092" lon="3.07587">
        <ele>420.39999389648</ele>
        <time>2020-07-25T09:08:15Z</time>
      </trkpt>
      <trkpt lat="45.7909" lon="3.07586">
        <ele>421.79998779297</ele>
        <time>2020-07-25T09:08:17Z</time>
      </trkpt>
    </trkseg>
  </trk>
</gpx>